[[{"header":{"parameterUnit":"m.s-1","parameterCategory":1,"la1":30.6,"la2":29.2853,"lo1":-89.7004,"lo2":-87.6739,"dy":0.0162,"dx":0.0183,"nx":112,"ny":82,"refTime":"2023-06-14T06:00:00:Z","depth":0,"parameterNumber":2,"parameterNumberName":"U-component_of_WINDS"},"data":[0.0,0.0,0.0,0.0,0.0,0.0,0.0,0.0,0.0,0.0,0.0,0.0,0.0,0.0,0.0,0.0,0.0,0.0,0.0,0.0,0.0,0.0,0.0,0.0,0.0,0.0,0.0,0.0,0.0,0.0,0.0,0.0,0.0,0.0,0.0,0.0,0.0,0.0,0.0,0.0,0.0,0.0,0.0,0.0,0.0,0.0,0.0,0.0,0.0,0.0,0.0,0.0,0.0,0.0,0.0,0.0,0.0,0.0,0.0,0.0,0.0,0.0,0.0,0.0,0.0,0.0,0.0,0.0,0.0,0.0,0.0,0.0,0.0,0.0,0.0,0.0,0.0,0.0,0.0,0.0,0.0,0.0,0.0,0.0,0.0,0.0,0.0,0.0,0.0,0.0,-0.2183,-0.2461,-0.2879,-0.3143,-0.3153,-0.308,-0.2892,-0.2479,0.0,0.0,0.0,0.0,0.0,0.0,0.0,0.0,0.0,0.0,0.0,0.0,0.0,0.0,0.0,0.0,0.0,0.0,0.0,0.0,0.0,0.0,0.0,0.0,0.0,0.0,0.0,0.0,0.0,0.0,0.0,0.0,0.0,0.0,0.0,0.0,0.0,0.0,0.0,0.0,0.0,0.0,0.0,0.0,0.0,0.0,0.0,0.0,0.0,0.0,0.0,0.0,0.0,0.0,0.0,0.0,0.0,0.0,0.0,0.0,0.0,0.0,0.0,0.0,0.0,0.0,0.0,0.0,0.0,0.0,0.0,0.0,0.0,0.0,0.0,0.0,0.0,0.0,0.0,0.0,0.0,0.0,0.0,0.0,0.0,0.0,0.0,0.0,0.0,0.0,0.0,0.0,0.0,0.0,0.0,0.0,0.0,0.0,0.0,0.0,0.0,0.0,0.0,0.0,-0.2383,-0.2758,-0.3006,-0.3161,-0.3213,-0.3067,-0.2884,-0.2425,0.0,0.0,0.0,0.0,0.0,0.0,0.0,0.0,0.0,0.0,0.0,0.0,0.0,0.0,0.0,0.0,0.0,0.0,0.0,0.0,0.0,0.0,0.0,0.0,0.0,0.0,0.0,0.0,0.0,0.0,0.0,0.0,0.0,0.0,0.0,0.0,0.0,0.0,0.0,0.0,0.0,0.0,0.0,0.0,0.0,0.0,0.0,0.0,0.0,0.0,0.0,0.0,0.0,0.0,0.0,0.0,0.0,0.0,0.0,0.0,0.0,0.0,0.0,0.0,0.0,0.0,0.0,0.0,0.0,0.0,0.0,0.0,0.0,0.0,0.0,0.0,0.0,0.0,0.0,0.0,0.0,0.0,0.0,0.0,0.0,0.0,0.0,0.0,0.0,0.0,0.0,0.0,0.0,0.0,0.0,0.0,0.0,0.0,0.0,0.0,0.0,0.0,0.0,-0.2256,-0.2482,-0.2837,-0.3063,-0.3173,-0.3135,-0.2997,-0.2747,-0.2404,-0.2243,0.0,0.0,0.0,0.0,0.0,0.0,0.0,0.0,0.0,0.0,0.0,0.0,0.0,0.0,0.0,0.0,0.0,0.0,0.0,0.0,0.0,0.0,0.0,0.0,0.0,0.0,0.0,0.0,0.0,0.0,0.0,0.0,0.0,0.0,0.0,0.0,0.0,0.0,0.0,0.0,0.0,0.0,0.0,0.0,0.0,0.0,0.0,0.0,0.0,0.0,0.0,0.0,0.0,0.0,0.0,0.0,0.0,0.0,0.0,0.0,0.0,0.0,0.0,0.0,0.0,0.0,0.0,0.0,0.0,0.0,0.0,0.0,0.0,0.0,0.0,0.0,0.0,0.0,0.0,0.0,0.0,0.0,0.0,0.0,0.0,0.0,0.0,0.0,0.0,0.0,0.0,0.0,0.0,0.0,0.0,0.0,0.0,0.0,0.0,0.0,0.0,0.0,-0.2463,-0.264,-0.2869,-0.307,-0.315,-0.3057,-0.2929,-0.2694,-0.2285,-0.213,0.0,0.0,0.0,0.0,0.0,0.0,0.0,0.0,0.0,0.0,0.0,0.0,0.0,0.0,0.0,0.0,0.0,0.0,0.0,0.0,0.0,0.0,0.0,0.0,0.0,0.0,0.0,0.0,0.0,0.0,0.0,0.0,0.0,0.0,0.0,0.0,0.0,0.0,0.0,0.0,0.0,0.0,0.0,0.0,0.0,0.0,0.0,0.0,0.0,0.0,0.0,0.0,0.0,0.0,0.0,0.0,0.0,0.0,0.0,0.0,0.0,0.0,0.0,0.0,0.0,0.0,0.0,0.0,0.0,0.0,0.0,0.0,0.0,0.0,0.0,0.0,0.0,0.0,0.0,0.0,0.0,0.0,0.0,0.0,0.0,0.0,0.0,0.0,0.0,0.0,0.0,0.0,0.0,0.0,0.0,0.0,0.0,0.0,0.0,0.0,0.0,0.0,-0.2537,-0.2749,-0.2933,-0.3018,-0.3059,-0.3144,-0.289,-0.2649,-0.2118,-0.1901,0.0,0.0,0.0,0.0,0.0,0.0,0.0,0.0,0.0,0.0,0.0,0.0,0.0,0.0,0.0,0.0,0.0,0.0,0.0,0.0,0.0,0.0,0.0,0.0,0.0,0.0,0.0,0.0,0.0,0.0,0.0,0.0,0.0,0.0,0.0,0.0,0.0,0.0,0.0,0.0,0.0,0.0,0.0,0.0,0.0,0.0,0.0,0.0,0.0,0.0,0.0,0.0,0.0,0.0,0.0,0.0,0.0,0.0,0.0,0.0,0.0,0.0,0.0,0.0,0.0,0.0,0.0,0.0,0.0,0.0,0.0,0.0,0.0,0.0,0.0,0.0,0.0,0.0,0.0,0.0,0.0,0.0,0.0,0.0,0.0,0.0,0.0,0.0,0.0,0.0,0.0,0.0,0.0,0.0,0.0,0.0,0.0,0.0,0.0,0.0,0.0,0.0,-0.2511,-0.2704,-0.2887,-0.2992,-0.3019,-0.2946,-0.272,-0.2424,-0.2076,0.0,0.0,0.0,0.0,0.0,0.0,0.0,0.0,0.0,0.0,0.0,0.0,0.0,0.0,0.0,0.0,0.0,0.0,0.0,0.0,0.0,0.0,0.0,0.0,0.0,0.0,0.0,0.0,0.0,0.0,0.0,0.0,0.0,0.0,0.0,0.0,0.0,0.0,0.0,0.0,0.0,0.0,0.0,0.0,0.0,0.0,0.0,0.0,0.0,0.0,0.0,0.0,0.0,0.0,0.0,0.0,0.0,0.0,0.0,0.0,0.0,0.0,0.0,0.0,0.0,0.0,0.0,0.0,0.0,0.0,0.0,0.0,0.0,0.0,0.0,0.0,0.0,0.0,0.0,0.0,0.0,0.0,0.0,0.0,0.0,0.0,0.0,0.0,0.0,0.0,0.0,0.0,0.0,0.0,0.0,0.0,0.0,0.0,0.0,0.0,0.0,0.0,-0.263,-0.2694,-0.2714,-0.2858,-0.2946,-0.2954,-0.2854,-0.2546,-0.2349,-0.2336,0.0,0.0,0.0,0.0,0.0,0.0,0.0,0.0,0.0,0.0,0.0,0.0,0.0,0.0,0.0,0.0,0.0,0.0,0.0,0.0,0.0,0.0,0.0,0.0,0.0,0.0,0.0,0.0,0.0,0.0,0.0,0.0,0.0,0.0,0.0,0.0,0.0,0.0,0.0,0.0,0.0,0.0,0.0,0.0,0.0,0.0,0.0,0.0,0.0,0.0,0.0,0.0,0.0,0.0,0.0,0.0,0.0,0.0,0.0,0.0,0.0,0.0,0.0,0.0,0.0,0.0,0.0,0.0,0.0,0.0,0.0,0.0,0.0,0.0,0.0,0.0,0.0,0.0,0.0,0.0,0.0,0.0,0.0,0.0,0.0,0.0,0.0,0.0,0.0,0.0,0.0,0.0,0.0,0.0,0.0,0.0,0.0,0.0,0.0,0.0,0.0,0.0,-0.3464,-0.3123,-0.2893,-0.2957,-0.2964,-0.2938,-0.2874,-0.2453,-0.2485,0.0,0.0,0.0,0.0,0.0,0.0,0.0,0.0,0.0,0.0,0.0,0.0,0.0,0.0,0.0,0.0,0.0,0.0,0.0,0.0,0.0,0.0,0.0,0.0,0.0,0.0,0.0,0.0,0.0,0.0,0.0,0.0,0.0,0.0,0.0,0.0,0.0,0.0,0.0,0.0,0.0,0.0,0.0,0.0,0.0,0.0,0.0,0.0,0.0,0.0,0.0,0.0,0.0,0.0,0.0,0.0,0.0,0.0,0.0,0.0,0.0,0.0,0.0,0.0,0.0,0.0,0.0,0.0,0.0,0.0,0.0,0.0,0.0,0.0,0.0,0.0,0.0,0.0,0.0,0.0,0.0,0.0,0.0,0.0,0.0,0.0,0.0,0.0,0.0,0.0,0.0,0.0,0.0,0.0,0.0,0.0,0.0,0.0,0.0,0.0,0.0,0.0,0.0,-0.3674,-0.4281,-0.4723,-0.4814,-0.4741,-0.4612,-0.4431,-0.3973,-0.3734,-0.3801,0.0,0.0,0.0,0.0,0.0,0.0,0.0,0.0,0.0,0.0,0.0,0.0,0.0,0.0,0.0,0.0,0.0,0.0,0.0,0.0,0.0,0.0,0.0,0.0,0.0,0.0,0.0,0.0,0.0,0.0,0.0,0.0,0.0,0.0,0.0,0.0,0.0,0.0,0.0,0.0,0.0,0.0,0.0,0.0,0.0,0.0,0.0,0.0,0.0,0.0,0.0,0.0,0.0,0.0,0.0,0.0,0.0,0.0,0.0,0.0,0.0,0.0,0.0,0.0,0.0,0.0,0.0,0.0,0.0,0.0,0.0,0.0,0.0,0.0,0.0,0.0,0.0,0.0,0.0,0.0,0.0,0.0,0.0,0.0,0.0,0.0,0.0,0.0,0.0,0.0,0.0,0.0,0.0,0.0,0.0,0.0,0.0,0.0,0.0,0.0,0.0,0.0,-0.4712,-0.5165,-0.5556,-0.5706,-0.567,-0.5539,-0.5208,-0.4741,-0.4492,-0.4545,0.0,0.0,0.0,0.0,0.0,0.0,0.0,0.0,0.0,0.0,0.0,0.0,0.0,0.0,0.0,0.0,0.0,0.0,0.0,0.0,0.0,0.0,0.0,0.0,0.0,0.0,0.0,0.0,0.0,0.0,0.0,0.0,0.0,0.0,0.0,0.0,0.0,0.0,0.0,0.0,0.0,0.0,0.0,0.0,0.0,0.0,0.0,0.0,0.0,0.0,0.0,0.0,0.0,0.0,0.0,0.0,0.0,0.0,0.0,0.0,0.0,0.0,0.0,0.0,0.0,0.0,0.0,0.0,0.0,0.0,0.0,0.0,0.0,0.0,0.0,0.0,0.0,0.0,0.0,0.0,0.0,0.0,0.0,0.0,0.0,0.0,0.0,0.0,0.0,0.0,0.0,0.0,0.0,0.0,0.0,0.0,0.0,0.0,0.0,0.0,0.0,0.0,-0.6066,-0.6008,-0.5985,-0.5985,-0.6093,-0.6065,-0.5553,-0.516,-0.5066,-0.5425,0.0,0.0,0.0,0.0,0.0,0.0,0.0,0.0,0.0,0.0,0.0,0.0,0.0,0.0,0.0,0.0,0.0,0.0,0.0,0.0,0.0,0.0,0.0,0.0,0.0,0.0,0.0,0.0,0.0,0.0,0.0,0.0,0.0,0.0,0.0,0.0,0.0,0.0,0.0,0.0,0.0,0.0,0.0,0.0,0.0,0.0,0.0,0.0,0.0,0.0,0.0,0.0,0.0,0.0,0.0,0.0,0.0,0.0,0.0,0.0,-0.7286,-0.7092,0.0,0.0,0.0,0.0,0.0,0.0,0.0,0.0,0.0,0.0,0.0,0.0,0.0,0.0,0.0,0.0,0.0,0.0,0.0,0.0,0.0,0.0,0.0,0.0,0.0,0.0,0.0,0.0,0.0,0.0,0.0,0.0,0.0,0.0,0.0,0.0,0.0,0.0,0.0,0.0,-0.6304,-0.7275,-0.7944,-0.7944,-0.7998,-0.7785,-0.7465,-0.692,-0.6583,-0.652,-0.5476,0.0,0.0,0.0,0.0,0.0,0.0,0.0,0.0,0.0,0.0,0.0,0.0,0.0,0.0,0.0,0.0,0.0,0.0,0.0,0.0,0.0,0.0,0.0,0.0,0.0,0.0,0.0,0.0,0.0,0.0,0.0,0.0,0.0,0.0,0.0,0.0,0.0,0.0,0.0,0.0,0.0,0.0,0.0,0.0,0.0,0.0,0.0,0.0,0.0,0.0,0.0,0.0,0.0,0.0,0.0,0.0,0.0,0.0,0.0,-0.8023,-0.7697,0.0,0.0,0.0,0.0,0.0,0.0,0.0,0.0,0.0,0.0,0.0,0.0,0.0,0.0,0.0,0.0,0.0,0.0,0.0,0.0,0.0,0.0,0.0,0.0,0.0,0.0,0.0,0.0,0.0,0.0,0.0,0.0,0.0,0.0,0.0,0.0,0.0,0.0,0.0,0.0,-0.7021,-0.7831,-0.8384,-0.8384,-0.843,-0.8265,-0.7759,-0.7406,-0.7076,-0.676,-0.6118,0.0,0.0,0.0,0.0,0.0,0.0,0.0,0.0,0.0,0.0,0.0,0.0,0.0,0.0,0.0,0.0,0.0,0.0,0.0,0.0,0.0,0.0,0.0,0.0,0.0,0.0,0.0,0.0,0.0,0.0,0.0,0.0,0.0,0.0,0.0,0.0,0.0,0.0,0.0,0.0,0.0,0.0,0.0,0.0,0.0,0.0,0.0,0.0,0.0,0.0,0.0,0.0,0.0,-0.935,-0.9327,-0.9493,-0.9526,-0.9563,-0.9484,-0.8979,-0.8534,-0.8168,-0.8136,0.0,0.0,0.0,0.0,0.0,0.0,0.0,0.0,0.0,0.0,0.0,0.0,0.0,0.0,0.0,0.0,0.0,0.0,0.0,0.0,0.0,0.0,-0.7927,-0.8036,-0.8321,-0.8325,-0.7503,0.0,0.0,0.0,0.0,0.0,0.0,0.0,0.0,0.0,0.0,0.0,-0.7744,-0.8126,-0.829,-0.829,-0.8295,-0.8158,-0.7663,-0.74,-0.7154,-0.6833,-0.6597,-0.6512,0.0,0.0,0.0,0.0,0.0,0.0,0.0,0.0,0.0,0.0,0.0,0.0,0.0,0.0,0.0,0.0,0.0,0.0,0.0,0.0,0.0,0.0,0.0,0.0,0.0,0.0,0.0,0.0,0.0,0.0,0.0,0.0,-1.1578,-1.1622,0.0,0.0,0.0,0.0,0.0,0.0,0.0,0.0,0.0,0.0,0.0,0.0,0.0,-0.9836,-0.9266,-0.9543,-0.9615,-0.9566,-0.9995,-1.0126,-1.0154,-1.0329,-1.0421,-1.0309,-1.0231,0.0,-0.8581,-0.8399,0.0,0.0,0.0,0.0,0.0,0.0,0.0,0.0,0.0,0.0,0.0,0.0,0.0,0.0,0.0,0.0,0.0,0.0,0.0,0.0,0.0,0.0,-0.8426,-0.8284,-0.8414,-0.8528,-0.8385,-0.8101,-0.7784,-0.7395,-0.7218,-0.711,0.0,0.0,0.0,0.0,0.0,0.0,-0.7951,-0.832,-0.8641,-0.8641,-0.8634,-0.8426,-0.8007,-0.7656,-0.7407,-0.7247,-0.6836,-0.6671,-0.6671,-0.6671,0.0,0.0,0.0,0.0,0.0,0.0,0.0,0.0,0.0,0.0,0.0,0.0,0.0,0.0,0.0,0.0,0.0,0.0,0.0,0.0,0.0,0.0,0.0,0.0,0.0,0.0,0.0,0.0,0.0,-1.1875,-1.1963,-1.1667,-1.1882,-1.1955,0.0,0.0,0.0,0.0,0.0,0.0,0.0,0.0,0.0,-1.235,-1.2732,-1.2506,-1.1538,-1.1839,-1.1738,-1.1151,-1.101,-1.1414,-1.2109,-1.1521,-1.1519,-1.1909,-1.1438,-1.0565,-0.9566,-0.913,-0.8587,-0.8055,0.0,0.0,0.0,0.0,-0.7766,-0.7711,-0.8016,-0.8061,-0.7988,-0.804,0.0,0.0,0.0,0.0,0.0,0.0,0.0,-0.8085,-0.8203,-0.8621,-0.9015,-0.9035,-0.9259,-0.9409,-0.9206,-0.8954,-0.8605,-0.8044,-0.7793,-0.7606,-0.7407,-0.7224,0.0,0.0,0.0,-0.7894,-0.8098,-0.8313,-0.843,-0.8243,-0.82,-0.8016,-0.7798,-0.7625,-0.7521,-0.7364,-0.7118,-0.6949,-0.6949,-0.6871,-0.6865,0.0,0.0,0.0,0.0,0.0,0.0,0.0,0.0,0.0,0.0,0.0,0.0,0.0,0.0,0.0,0.0,0.0,0.0,0.0,0.0,0.0,0.0,0.0,0.0,0.0,0.0,0.0,0.0,-1.2189,-1.2372,-1.1648,-1.2277,-1.2482,0.0,0.0,0.0,0.0,0.0,0.0,-1.3843,-1.4253,-1.4474,-1.4409,-1.5168,-1.5096,-1.397,-1.4272,-1.4119,-1.3479,-1.2965,-1.3376,-1.4339,-1.3556,-1.3477,-1.3911,-1.3239,-1.2209,-1.0944,-1.0022,-0.9306,-0.8623,-0.8623,-0.8422,-0.8308,-0.8446,-0.8438,-0.8414,-0.8816,-0.8844,-0.8694,-0.8645,-0.8666,-0.8601,-0.8061,0.0,0.0,0.0,0.0,-0.8633,-0.8946,-0.9295,-0.9596,-0.9734,-1.0002,-1.0148,-0.9831,-0.9657,-0.9336,-0.8572,-0.828,-0.8073,-0.7805,-0.7655,0.0,-0.774,-0.7914,-0.8106,-0.8367,-0.8409,-0.8324,-0.8175,-0.7997,-0.7811,-0.7665,-0.7655,-0.759,-0.7441,-0.7285,-0.7217,-0.7258,-0.7119,-0.7112,-0.7255,0.0,0.0,0.0,0.0,0.0,0.0,0.0,0.0,0.0,0.0,0.0,0.0,0.0,0.0,0.0,0.0,0.0,0.0,0.0,0.0,0.0,0.0,0.0,0.0,0.0,0.0,0.0,0.0,0.0,-1.174,-1.268,0.0,0.0,0.0,0.0,-1.3418,-1.4289,-1.475,-1.4867,-1.5474,-1.5796,-1.5752,-1.6068,-1.6242,-1.6026,-1.6063,-1.6099,-1.6247,-1.6265,-1.6417,-1.6691,-1.6946,-1.6726,-1.6275,-1.6172,-1.4869,-1.2736,-1.1155,-1.0075,-0.9382,-0.9382,-0.919,-0.9043,-0.9051,-0.9153,-0.9291,-0.9319,-0.9214,-0.9125,-0.9453,-0.934,-0.9064,-0.9027,-0.8901,0.0,0.0,-0.9031,-0.9344,-0.9539,-0.9851,-1.0123,-1.0132,-1.0282,-1.0367,-1.0176,-1.0128,-0.9855,-0.8966,-0.8658,-0.8532,-0.8515,0.0,-0.8503,-0.8511,-0.8658,-0.884,-0.9043,-0.876,-0.8635,-0.8784,-0.8315,-0.7967,-0.7814,-0.7801,-0.774,-0.7597,-0.7444,-0.7424,-0.757,-0.7431,-0.7421,-0.7573,-0.7577,0.0,0.0,0.0,0.0,0.0,0.0,0.0,0.0,0.0,0.0,0.0,0.0,0.0,0.0,0.0,0.0,0.0,0.0,0.0,0.0,0.0,0.0,0.0,0.0,0.0,0.0,0.0,0.0,-1.3477,-1.4567,0.0,-1.4296,-1.4531,-1.4904,-1.5313,-1.5862,-1.6448,-1.7069,-1.7523,-1.7913,-1.8352,-1.848,-1.8261,-1.7675,-1.7675,-1.7399,-1.6729,-1.5841,-1.631,-1.7817,-1.6442,-1.6339,-1.731,-1.5828,-1.4538,-1.3436,-1.1962,-1.0785,-0.9884,-1.0002,-0.9941,-0.9811,-1.0038,-1.0091,-1.0067,-1.0176,-1.0176,-1.0128,-1.0144,-0.9827,-0.9462,-0.9571,-0.9397,-0.9238,-0.9583,-0.9689,-0.9791,-1.0205,-1.0327,-1.0367,-1.0477,-1.0554,-1.0554,-1.0375,-1.0245,-1.0067,-0.9746,-0.9352,-0.9072,-0.9072,-0.8792,-0.8645,-0.8877,-0.8862,-0.8776,-0.8767,-0.8646,-0.847,-0.8329,-0.8137,-0.8018,-0.7963,-0.796,-0.7936,-0.7885,-0.774,-0.7678,-0.7733,-0.7597,-0.7543,-0.7597,-0.76,-0.76,0.0,0.0,0.0,0.0,0.0,0.0,0.0,0.0,0.0,0.0,0.0,0.0,0.0,0.0,0.0,0.0,0.0,0.0,0.0,0.0,0.0,0.0,0.0,0.0,0.0,-1.4275,-1.4955,-1.4955,-1.6082,-1.6608,-1.5972,-1.6206,-1.6572,-1.6989,-1.753,-1.8167,-1.8913,-1.9155,-1.9579,-2.023,-2.0142,-1.9952,-1.9562,-1.9569,-1.9231,-1.8431,-1.7628,-1.8021,-1.9387,-1.7865,-1.7769,-1.8888,-1.7279,-1.6063,-1.508,-1.3627,-1.2355,-1.1164,-1.0804,-1.0501,-1.0375,-1.0676,-1.0676,-1.0538,-1.0651,-1.0733,-1.0765,-1.0651,-1.0331,-1.001,-1.0123,-0.9994,-0.988,-1.0241,-1.0298,-1.0347,-1.0761,-1.0834,-1.0806,-1.0858,-1.0871,-1.0822,-1.0651,-1.0473,-1.0339,-1.0339,-0.9904,-0.9555,-0.9616,-0.9336,-0.9165,-0.934,-0.926,-0.9087,-0.896,-0.8667,-0.8432,-0.8333,-0.8137,-0.8038,-0.8038,-0.8038,-0.8038,-0.8038,-0.7896,-0.7834,-0.7885,-0.7746,-0.7695,-0.7746,-0.7746,-0.7746,-0.7746,0.0,0.0,0.0,0.0,0.0,0.0,0.0,0.0,0.0,0.0,0.0,0.0,0.0,0.0,0.0,0.0,0.0,0.0,0.0,0.0,0.0,0.0,0.0,-1.4114,-1.5174,-1.5987,-1.6016,-1.7128,-1.7647,-1.7018,-1.7816,-1.8364,-1.8379,-1.9257,-1.9938,-2.0267,-2.0281,-2.0574,-2.1218,-2.0933,-2.1072,-2.1708,-2.1715,-2.1715,-2.1715,-2.1701,-2.1533,-2.1247,-2.1438,-2.1217,-2.0739,-2.0746,-1.9674,-1.7955,-1.6121,-1.4505,-1.326,-1.1603,-1.0863,-1.0724,-1.0915,-1.0875,-1.0724,-1.072,-1.0838,-1.0997,-1.0997,-1.0871,-1.0716,-1.0716,-1.0712,-1.0708,-1.0716,-1.0842,-1.1017,-1.1187,-1.1358,-1.1439,-1.1265,-1.122,-1.1171,-1.1005,-1.0826,-1.0692,-1.0692,-1.0266,-0.9961,-1.0148,-1.0164,-1.0095,-0.992,-0.9884,0.0,-0.9648,-0.913,-0.8832,-0.8832,-0.834,-0.8048,-0.8045,-0.8041,-0.8038,-0.8038,-0.7899,-0.7882,-0.8028,-0.7892,-0.7889,-0.8035,-0.8038,-0.8038,-0.8038,0.0,0.0,0.0,0.0,0.0,0.0,0.0,0.0,0.0,0.0,0.0,0.0,0.0,0.0,0.0,0.0,0.0,0.0,0.0,0.0,0.0,-1.5277,-1.5899,-1.6045,-1.6769,-1.756,-1.8269,-1.9074,-1.9499,-1.9323,-1.955,-1.9798,-2.004,-2.0311,-2.0706,-2.1269,-2.1298,-2.1489,-2.1906,-2.1832,-2.1869,-2.2052,-2.2052,-2.2052,-2.2045,-2.0837,-2.0684,-2.1173,-2.0064,-1.9887,-2.0227,-1.9369,-1.8635,-1.7979,-1.6261,-1.5317,-1.4748,-1.2188,-1.1045,-1.0932,-1.124,-1.1407,-1.1459,-1.1321,-1.1399,-1.1557,-1.1557,-1.1431,-1.1277,-1.1277,-1.1183,-1.1102,-1.124,-1.1216,-1.1196,-1.1374,-1.1269,-1.1131,-1.1204,-1.1126,-1.1025,-1.098,-1.0826,-1.0692,-1.0692,-1.0469,-1.0339,-1.0517,-1.0221,-0.9989,-1.0071,-0.9665,-0.9387,-0.9339,-0.9137,-0.8906,-0.8708,-0.861,-0.8407,-0.8208,-0.8102,-0.8038,-0.8038,-0.8001,-0.7946,-0.7875,-0.794,-0.7997,-0.8038,-0.8038,-0.8038,0.0,0.0,0.0,0.0,0.0,0.0,0.0,0.0,0.0,0.0,0.0,0.0,0.0,0.0,0.0,0.0,0.0,0.0,0.0,0.0,0.0,0.0,-1.6872,-1.7845,-1.8577,-1.8533,-1.8789,-1.9769,-2.0333,-2.0698,-2.0837,-2.0969,-2.113,-2.132,-2.1335,-2.1554,-2.2059,-2.1964,-2.2045,-2.2359,-2.225,-2.2242,-2.2367,-2.2242,-2.225,-2.2359,-2.1314,-2.1146,-2.1555,-2.0513,-2.0287,-2.0591,-1.9607,-1.9305,-1.9129,-1.7361,-1.655,-1.6374,0.0,0.0,0.0,0.0,-1.1439,-1.1634,-1.1447,-1.1557,-1.1776,-1.1776,-1.1703,-1.1602,-1.1524,-1.1423,-1.1362,-1.1468,-1.1423,-1.1382,-1.1569,-1.1464,-1.1334,-1.1431,-1.1317,-1.1191,-1.1191,-1.1045,-1.0915,-1.0915,-1.0777,0.0,-1.0789,-1.0424,-1.0128,-1.0156,-0.9819,-0.951,-0.9343,-0.9179,-0.9078,-0.8874,-0.8731,-0.8539,-0.8275,-0.813,0.0,0.0,0.0,-0.7933,-0.7909,-0.7991,0.0,0.0,0.0,-0.8038,-0.8038,-0.8038,0.0,0.0,-0.7997,-0.7991,0.0,0.0,0.0,0.0,0.0,0.0,0.0,0.0,0.0,0.0,0.0,0.0,0.0,0.0,0.0,0.0,-1.8664,-1.993,-2.1196,-2.0347,-1.9923,-2.0786,-2.1145,-2.143,-2.1723,-2.2015,-2.2184,-2.2184,-2.2184,-2.2308,-2.2608,-2.2374,0.0,0.0,0.0,-2.2396,-2.2615,-2.2396,-2.2381,-2.2571,-2.2308,-2.2184,-2.2176,-2.1759,-2.1519,-2.1074,-2.0832,-2.0625,-2.0458,-1.879,-1.8056,-1.7696,-1.4567,-1.3288,-1.3136,-1.1977,-1.168,-1.1825,-1.1769,0.0,0.0,-1.2014,-1.2014,-1.1985,-1.1581,-1.1516,-1.1504,-1.1524,-1.1516,-1.1537,-1.1703,-1.1744,-1.1744,-1.1744,-1.1618,-1.1504,-1.1529,-1.1382,-1.1248,-1.1228,-1.1098,-1.0984,-1.0944,-1.0655,-1.0371,-1.0188,-1.0006,-0.9823,-0.9648,-0.938,-0.918,-0.9078,-0.8809,0.0,-0.8282,-0.8143,-0.8058,-0.8041,-0.7896,-0.7879,-0.8031,-0.8024,-0.8021,-0.8038,-0.8058,-0.8065,-0.8065,-0.8082,-0.8089,-0.8089,-0.8055,-0.8038,0.0,0.0,0.0,0.0,0.0,0.0,0.0,0.0,0.0,0.0,0.0,0.0,0.0,0.0,0.0,-1.9133,-2.0164,-2.1189,-2.2206,-2.1928,-2.1693,-2.1876,-2.1957,-2.2023,-2.2081,-2.2147,-2.2184,-2.2184,-2.2184,-2.2308,-2.2608,-2.2564,-2.2681,-2.3003,-2.2959,-2.2828,-2.2623,-2.2828,-2.2703,-2.2264,-2.2213,0.0,-2.1788,-2.1403,-2.1068,-2.0832,-2.0711,-2.0503,-2.0287,-1.9694,-1.8555,-1.708,-1.5539,-1.4791,-1.4535,-1.4443,-1.4441,-1.4397,-1.4462,-1.4626,-1.4743,-1.367,-1.3315,-1.3191,-1.2088,-1.1618,0.0,-1.1683,-1.1614,-1.1508,-1.1545,-1.1553,-1.1553,-1.1553,-1.1524,-1.1541,-1.1691,-1.1577,-1.1403,-1.1252,-1.1196,-1.1082,-1.0794,-1.057,-1.0371,-1.0188,-1.0006,-0.9823,-0.9648,-0.9678,-0.9583,-0.918,-0.9124,-0.8953,-0.8385,-0.8245,-0.8174,-0.8045,-0.7896,-0.7879,-0.8031,-0.7919,-0.7913,-0.8038,-0.8163,-0.8225,-0.8225,-0.834,-0.8397,-0.8391,-0.815,-0.8038,0.0,0.0,0.0,0.0,0.0,0.0,0.0,0.0,0.0,0.0,0.0,-1.7304,-1.7947,0.0,-1.9879,-2.1013,-2.1737,-2.244,-2.3237,-2.3084,-2.2769,-2.244,-2.2403,-2.2403,-2.2403,-2.2696,-2.2886,-2.2886,-2.2886,-2.2952,-2.3098,-2.2952,-2.2937,-2.3106,-2.3106,-2.3032,-2.2864,-2.3025,-2.2871,-2.2403,-2.2403,-2.2275,-2.2139,-2.1853,-2.1598,-2.1403,-2.1156,-2.0835,-2.0421,-1.998,-1.9181,-1.8186,-1.7346,-1.6136,-1.4708,-1.4945,-1.4961,-1.4778,-1.5122,-1.5289,-1.5296,-1.4821,-1.4262,-1.355,-1.296,-1.2116,-1.152,-1.1614,-1.1504,-1.1362,-1.1362,-1.1427,-1.15,-1.15,-1.1569,-1.1663,-1.1756,-1.1703,-1.161,-1.152,-1.1423,-1.1305,-1.1126,-1.0948,-1.0737,-1.0469,-1.0197,-1.0022,-0.9816,-0.9788,-0.9495,-0.9006,-0.9035,-0.8857,-0.8391,-0.8313,-0.817,-0.794,-0.7926,-0.796,-0.8035,-0.7967,-0.7997,-0.815,-0.8231,-0.8306,-0.8377,-0.8445,-0.8482,-0.8479,-0.833,-0.8262,0.0,0.0,0.0,0.0,0.0,0.0,0.0,0.0,-1.7968,-1.7636,-1.8233,-1.9125,-1.9981,-2.0713,-2.1562,-2.2718,-2.3128,-2.3501,-2.4093,-2.3845,-2.3398,-2.2871,-2.2813,-2.2813,-2.2813,-2.3288,-2.3596,-2.3596,-2.3537,-2.353,-2.3596,-2.3288,-2.3135,-2.3201,-2.3201,-2.3142,-2.3018,-2.3142,-2.2981,-2.2535,-2.2535,-2.2564,-2.2623,-2.232,-2.2132,-2.2111,-2.1734,-2.1318,-2.0758,-2.01,-1.9713,-1.9419,-1.9125,-1.7422,-1.5327,-1.5479,-1.5412,-1.5299,-1.5858,-1.5935,-1.5898,-1.5981,-1.5327,-1.4376,-1.4143,-1.314,-1.2156,-1.2233,-1.2087,-1.1923,-1.1996,-1.2134,-1.2255,-1.2018,-1.2017,-1.213,-1.1897,-1.1776,-1.1764,-1.1732,-1.163,-1.1533,-1.1459,-1.1354,-1.1143,-1.0753,-1.0477,-1.0343,-1.0091,-0.9885,-0.9514,-0.918,-0.9065,-0.8873,-0.8642,-0.8498,-0.8204,-0.7957,-0.8058,-0.8126,-0.8126,-0.8126,-0.8184,-0.8309,-0.834,-0.8411,-0.8526,-0.8557,-0.857,-0.857,-0.857,-0.8537,-1.9756,-2.0127,-2.0372,-1.939,-2.0415,-2.1334,0.0,0.0,-2.0991,-1.997,-2.0406,-2.1006,-2.1408,-2.2228,-2.3076,-2.3801,-2.3947,-2.4101,-2.4466,-2.3984,-2.3567,-2.3493,-2.3486,-2.3486,-2.3486,-2.3552,-2.3596,-2.3596,-2.3325,-2.3288,-2.3581,-2.3288,-2.3245,-2.353,-2.3545,-2.3267,-2.2681,-2.3252,-2.3098,-2.2228,-2.2228,-2.2374,-2.2615,-2.2352,-2.2306,-2.2487,-2.1859,-2.1443,-2.1142,-2.0443,-2.0013,-1.9726,-1.9432,-1.8997,-1.834,-1.8118,-1.8125,-1.8033,-1.8346,-1.8627,-1.8726,-1.7683,-1.7214,-1.6862,-1.5688,-1.5025,-1.4645,-1.5061,-1.4861,-1.4609,-1.5029,-1.5156,-1.4821,-1.3751,-1.3412,-1.3195,-1.2014,-1.1776,-1.1727,-1.1565,-1.1646,-1.1638,-1.1309,-1.1374,-1.1289,-1.0769,-1.0798,-1.0769,-1.0365,-1.0325,-1.0206,-0.9861,-0.9873,-0.9663,-0.9112,-0.8758,-0.8442,-0.8411,-0.8425,-0.8431,-0.8431,-0.8431,-0.8442,-0.8459,-0.8591,-0.8669,-0.8686,-0.8821,-0.8889,-0.8889,-0.8889,-0.8743,-2.1592,-2.1748,-2.1734,-2.1787,-2.3017,-2.3597,-2.1784,-2.2423,-2.2872,-2.1653,-2.2023,-2.2754,-2.3274,-2.3691,-2.4108,-2.4576,-2.4488,-2.4415,-2.4547,-2.4005,-2.3457,-2.3069,-2.3201,-2.331,-2.331,-2.3486,-2.3596,-2.3596,-2.3471,-2.3457,-2.3588,-2.3288,-2.3171,-2.331,-2.331,-2.3274,-2.3186,-2.3457,-2.3303,-2.2718,-2.2528,-2.2506,-2.2608,-2.2315,-2.2399,-2.2584,-2.1486,-2.1012,-2.0862,-2.0039,-1.9659,-1.9539,-1.9412,-1.9292,-1.9165,-1.9045,-1.8677,-1.8323,-1.8958,-1.9038,-1.8798,-1.8661,-1.8052,-1.7455,-1.6868,-1.6025,-1.5216,-1.5422,-1.5227,-1.5004,-1.5205,-1.5368,-1.5242,-1.4769,-1.476,-1.4624,-1.4152,-1.4033,-1.4004,-1.3912,-1.397,-1.3975,-1.379,-1.3834,-1.3756,-1.3473,-1.2034,-1.1511,-1.2566,-1.2004,-1.1516,-1.1695,-1.1774,-1.1622,-1.1303,-1.1207,-1.1072,-1.0966,-1.0958,-1.0651,-0.9819,-1.0543,-1.0289,-0.8931,-0.9629,-0.9819,-0.9385,-0.9881,-1.0241,-1.046,-1.1105,-1.145,-2.2393,-2.2822,-2.3223,-2.3955,-2.5303,-2.5982,-2.4216,-2.4754,-2.5239,-2.3641,-2.3863,-2.4381,-2.4481,-2.4437,-2.451,-2.4744,-2.4591,-2.4401,-2.4313,-2.3815,-2.3223,-2.2579,-2.263,-2.2718,-2.2718,-2.3171,-2.3501,-2.3588,-2.3508,-2.3501,-2.3596,-2.3288,-2.3149,-2.3237,-2.3245,-2.331,-2.3464,-2.3552,-2.3435,-2.3106,-2.2776,-2.2674,-2.2747,-2.2535,-2.2559,-2.2709,-2.1635,-2.1202,-2.1046,-2.026,-1.9965,-1.984,-1.976,-1.9679,-1.9599,-1.9512,-1.9032,-1.849,-1.9052,-1.9018,-1.8804,-1.9232,-1.8765,-1.8046,-1.8046,-1.7152,-1.6264,-1.6449,-1.6281,-1.6095,-1.6165,-1.6327,-1.6356,-1.6003,-1.6026,-1.6042,-1.5693,-1.5575,-1.5575,-1.5575,-1.5575,-1.5575,-1.5575,-1.5575,-1.5628,-1.5915,-1.3882,-1.2961,-1.45,-1.3615,-1.3091,-1.328,-1.3229,-1.3167,-1.3013,-1.3031,-1.3056,-1.2904,-1.2893,-1.2472,-1.1426,-1.2367,-1.213,-1.0373,-1.1117,-1.1294,-1.0789,-1.1433,-1.1864,-1.1973,-1.294,-1.3156,-2.1396,-2.2793,-2.4463,-2.4912,-2.6631,-2.8095,-2.7547,-2.8135,-2.8229,-2.6404,-2.6072,-2.572,-2.4346,-2.4101,-2.4101,-2.4108,-2.4101,-2.3984,-2.3669,-2.3332,-2.2893,-2.2271,-2.1928,-2.1737,-2.1737,-2.2579,-2.3252,-2.3574,-2.3303,-2.3267,-2.3581,-2.3288,-2.3252,-2.3574,-2.3581,-2.3435,-2.3128,-2.3435,-2.3435,-2.3106,-2.2776,-2.2791,-2.3091,-2.3084,-2.3091,-2.3106,-2.2716,-2.2327,-2.2083,-2.1692,-2.1308,-2.1029,-2.0748,-2.0461,-2.0174,-1.9887,-1.9593,-1.9292,-1.9025,-1.9118,-1.9345,-1.9359,-1.9366,-1.9366,-1.9366,-1.9044,-1.8864,-1.915,-1.9024,-1.8858,-1.9143,-1.9229,-1.8997,-1.7683,-1.7449,-1.7103,-1.593,-1.5575,-1.5575,-1.5575,-1.5575,-1.5575,-1.5575,-1.5575,-1.6042,-1.7208,-1.6262,-1.5461,-1.534,-1.4988,-1.4659,-1.4067,-1.3798,-1.3685,-1.368,-1.347,-1.3254,-1.3249,-1.3244,-1.3244,-1.3244,-1.3244,-1.3249,-1.3146,-1.3254,-1.3259,-1.3156,-1.3264,-1.3264,-1.3264,-1.3264,-1.262,-2.3359,-2.4727,-2.6035,-2.7305,-2.8389,-2.9022,-2.8566,-2.882,-2.8711,-2.6996,-2.6321,-2.5838,-2.5125,-2.4358,-2.3825,-2.4054,-2.3791,-2.3471,-2.3581,-2.3318,-2.2718,-2.1664,-2.1825,-2.1767,-2.1115,-2.173,-2.2389,-2.2908,-2.2849,-2.3025,-2.3567,-2.3288,-2.3259,-2.3581,-2.3384,-2.3325,-2.3427,-2.3325,-2.3325,-2.3427,-2.3098,-2.2784,-2.2513,-2.2923,-2.3106,-2.3098,-2.2515,-2.2305,-2.216,-2.1586,-2.1018,-2.0611,-2.0706,-2.0442,-1.9933,-1.9833,-1.974,-1.9613,-1.9319,-1.9152,-1.9105,-1.9305,-1.9366,-1.9366,-1.9366,-1.9432,-1.9526,-1.9626,-1.9579,-1.9526,-1.9633,-1.9512,-1.9249,-1.8887,-1.8765,-1.8648,-1.8175,-1.8175,-1.8175,-1.8175,-1.8175,-1.8175,-1.8175,-1.8175,-1.8292,-1.8648,-1.8256,-1.7516,-1.6603,-1.6946,-1.7166,-1.7089,-1.6954,-1.6844,-1.6844,-1.6844,-1.6654,-1.647,-1.6464,-1.5941,-1.4776,-1.5636,-1.531,-1.3588,-1.4341,-1.4449,-1.3809,-1.4449,-1.4669,-1.468,-1.5749,-1.5749,-2.4922,-2.6182,-2.7256,-2.8955,-2.9717,-2.9986,-2.9842,-2.9849,-2.9453,-2.7586,-2.6629,-2.5801,-2.4712,-2.34,-2.2675,-2.2905,-2.2696,-2.2491,-2.282,-2.2892,-2.2431,-2.1613,-2.1723,-2.1635,-2.1123,-2.1452,-2.1957,-2.2571,-2.2732,-2.2981,-2.3398,-2.3332,-2.3384,-2.3588,-2.3508,-2.3501,-2.3596,-2.3391,-2.3325,-2.342,-2.3208,-2.2901,-2.2528,-2.293,-2.3106,-2.3098,-2.2646,-2.2436,-2.2298,-2.1723,-2.122,-2.0602,-2.0557,-2.0174,-1.9786,-1.9686,-1.9713,-1.9773,-1.9586,-1.9399,-1.9285,-1.9579,-1.9679,-1.9659,-1.9553,-1.9726,-1.9933,-1.9826,-1.9873,-1.9953,-1.9953,-1.974,-1.9519,-1.9519,-1.9446,-1.9366,-1.9366,-1.9366,-1.9366,-1.9366,-1.9366,-1.9366,-1.9366,-1.9366,-1.9366,-1.9366,-1.9205,-1.8689,-1.7767,-1.8294,-1.8604,-1.8504,-1.849,-1.849,-1.849,-1.849,-1.841,-1.8217,-1.8203,-1.7668,-1.659,-1.7248,-1.697,-1.5235,-1.5897,-1.5962,-1.5316,-1.5962,-1.618,-1.6193,-1.7153,-1.7153,-2.6016,-2.7129,-2.8193,-2.9824,-3.0566,-3.0986,-3.1367,-3.1103,-3.0287,-2.8394,-2.7085,-2.5649,0.0,0.0,-2.0751,-2.1144,-2.1262,-2.1472,-2.1817,-2.2245,-2.2402,0.0,0.0,0.0,-2.1693,-2.1752,-2.2023,-2.263,-2.2945,-2.3128,-2.3157,-2.3457,-2.3625,-2.3647,-2.391,-2.3918,-2.3625,-2.3603,-2.3427,-2.3084,-2.3098,-2.3098,-2.3084,-2.3098,-2.3106,-2.3106,-2.3106,-2.2856,-2.2606,-2.2237,-2.1804,-2.1142,-2.0605,-2.008,-1.9786,-1.9512,-1.9573,-1.9806,-1.9833,-1.9833,-1.9867,-2.014,-2.0234,-2.018,-1.9887,-2.0,-2.0174,-1.99,-2.0007,-2.0221,-2.0247,-2.0027,-1.9806,-1.982,-1.9613,-1.9412,-1.9412,-1.9399,-1.9392,-1.9406,-1.9412,-1.9412,-1.9412,-1.9399,-1.9392,-1.9392,-1.9379,-1.9265,-1.8985,-1.8945,-1.8844,-1.8564,-1.8537,-1.8531,-1.851,-1.851,-1.8504,-1.849,-1.849,-1.849,-1.849,-1.8203,-1.8043,-1.8043,-1.7769,-1.7622,-1.7609,-1.7609,-1.7602,-1.7582,-1.7582,-1.7041,-2.7334,-2.8662,-2.9736,-3.0518,-3.0801,-3.083,-3.0586,-2.9961,-2.9001,-2.7612,-2.5781,-2.4192,0.0,0.0,0.0,-2.337,-2.3883,0.0,-2.4283,-2.5115,0.0,-2.2445,0.0,-2.3273,-2.2186,-2.2476,-2.2915,-2.3318,-2.3201,-2.3318,-2.3808,-2.391,-2.4071,-2.4313,-2.3925,-2.3801,-2.3954,-2.372,-2.331,-2.2747,-2.2988,-2.2981,-2.2754,-2.3003,-2.3106,-2.3106,-2.3106,-2.3106,-2.2981,-2.2863,-2.2551,-2.1895,-2.181,-2.1227,-2.0468,-2.0393,-2.0159,-1.986,-2.0301,-2.0307,-2.0134,-2.0207,-2.0234,-2.018,-1.9887,-2.0,-2.0221,-2.014,-2.002,-2.0013,-2.0448,-2.018,-1.9853,-2.0067,-2.0067,-2.0013,-2.0013,-1.9846,-1.9753,-1.9967,-2.0013,-2.0013,-2.0013,-1.9833,-1.9686,-1.9686,-1.9506,-1.9339,-1.9265,-1.9252,-1.9225,-1.9152,-1.9145,-1.9058,-1.8831,-1.8811,-1.8724,-1.8504,-1.849,-1.849,-1.849,-1.8417,-1.837,-1.837,-1.8297,-1.815,-1.7929,-1.7929,-1.7709,-1.7279,-1.7483,-1.7153,-2.8711,-2.9805,-3.0605,-3.1055,-3.1025,-3.0625,-2.96,-2.8555,-2.7383,-2.5908,-2.4189,-2.2822,-2.2393,-2.1776,-2.1834,0.0,0.0,0.0,-2.5003,-2.5553,-2.5528,0.0,-2.4658,0.0,-2.3566,-2.4022,-2.4171,-2.3588,-2.3559,-2.3698,-2.4064,-2.4218,-2.4379,-2.4562,-2.4357,-2.4188,-2.4086,-2.3903,-2.3413,-2.263,-2.3098,-2.3076,-2.2637,-2.2959,-2.3106,-2.3106,-2.3106,-2.3106,-2.3106,-2.2981,-2.2551,-2.2148,-2.2025,-2.1589,-2.0953,-2.0953,-2.0722,-2.0414,-2.076,-2.0808,-2.0563,-2.0575,-2.0615,-2.0561,-2.0274,-2.0388,-2.0588,-2.0461,-2.0401,-2.0454,-2.0782,-2.0528,-2.0227,-2.0388,-2.0327,-2.0234,-2.0234,-2.0107,-2.004,-2.0201,-2.0234,-2.0194,-2.006,-1.9907,-1.976,-1.9633,-1.9472,-1.9366,-1.9366,-1.9366,-1.9366,-1.9366,-1.9366,-1.9299,-1.9132,-1.9118,-1.8991,-1.8698,-1.8684,-1.8624,-1.8497,-1.849,-1.843,-1.8297,-1.8297,-1.8143,-1.7842,-1.7842,-1.7649,-1.7378,-1.7483,-1.7371,-3.0266,-3.078,-3.1182,-3.1544,-3.1191,-3.0319,-2.8584,-2.7129,-2.5654,-2.3965,0.0,-2.1592,-2.1221,-2.0904,-2.1005,-2.1946,0.0,-2.4409,-2.5261,-2.531,-2.5839,-2.6919,-2.6067,-2.548,-2.5633,-2.5913,-2.5642,-2.4427,-2.4431,-2.4449,-2.4152,-2.4459,-2.4613,-2.4569,-2.4883,-2.4723,-2.4027,-2.402,-2.3545,-2.263,-2.3157,-2.3113,-2.2571,-2.2901,-2.3025,-2.2996,-2.3076,-2.3084,-2.3047,-2.2716,-2.2572,-2.2328,-2.1959,-2.1645,-2.1378,-2.142,-2.1264,-2.1243,-2.1231,-2.119,-2.108,-2.1135,-2.1109,-2.1056,-2.0762,-2.0855,-2.1002,-2.0748,-2.0828,-2.1009,-2.1089,-2.0895,-2.0688,-2.0722,-2.0535,-2.0347,-2.0347,-2.0347,-2.0341,-2.0301,-2.0294,-2.0221,-2.0013,-1.9907,-1.9773,-1.9519,-1.9452,-1.9412,-1.9372,-1.9366,-1.9366,-1.9366,-1.9366,-1.9352,-1.9312,-1.9305,-1.9199,-1.8938,-1.8925,-1.8824,-1.8617,-1.8571,-1.8444,-1.8223,-1.8183,-1.8009,-1.7702,-1.7702,-1.7662,-1.7582,-1.7582,-1.7582,-3.1852,-3.2173,-3.2126,-3.1969,-3.0839,-2.9322,-2.8104,-2.6211,0.0,0.0,-2.1699,-2.0771,-2.0693,-2.0876,-2.1829,-2.4171,-2.5334,-2.6397,-2.7578,-2.8585,-2.8825,0.0,-2.7079,-2.7136,-2.8061,-2.6976,-2.6705,-2.8143,-2.7194,-2.5934,-2.4628,-2.4796,-2.4847,-2.4576,-2.4883,-2.4613,-2.3691,-2.3684,-2.3325,-2.2623,-2.2491,-2.2367,-2.2271,-2.2571,-2.2579,-2.2374,-2.2886,-2.2952,-2.2725,-2.2872,-2.2952,-2.2901,-2.2901,-2.2457,-2.1961,-2.2224,-2.1874,-2.1271,-2.1714,-2.1617,-2.1211,-2.1135,-2.1109,-2.1056,-2.0762,-2.0715,-2.0742,-2.0688,-2.0535,-2.0494,-2.0982,-2.0895,-2.0735,-2.0975,-2.0995,-2.0955,-2.0955,-2.0955,-2.0889,-2.0648,-2.0601,-2.0661,-2.0848,-2.0481,-2.014,-2.0087,-1.988,-1.9639,-1.9399,-1.9366,-1.9366,-1.9366,-1.9366,-1.9265,-1.9018,-1.8998,-1.8978,-1.8925,-1.8925,-1.9011,-1.9205,-1.8978,-1.8938,-1.9138,-1.8898,-1.8624,-1.8337,-1.8337,-1.8076,-1.7582,-1.7582,-1.7582,-3.3084,-3.3145,-3.3035,-3.2325,-3.0877,-2.91,-2.7112,0.0,0.0,0.0,-2.0909,-2.037,-2.0692,-2.1282,0.0,-2.4158,-2.4888,-2.6006,-2.8134,-2.8284,0.0,-2.949,-2.9058,-2.8834,-2.9199,-2.8794,-2.8146,-2.7355,-2.7701,-2.7269,-2.5988,-2.536,-2.4986,-2.4832,-2.4979,-2.4664,-2.3859,-2.3845,-2.3362,-2.2396,-2.2403,-2.2242,-2.1942,-2.225,-2.2315,-2.2206,-2.2659,-2.2769,-2.2645,-2.2974,-2.3106,-2.3106,-2.3106,-2.2886,-2.2646,-2.2798,-2.2436,-2.1976,-2.2199,-2.1908,-2.1458,-2.1386,-2.1235,-2.1082,-2.0942,-2.0902,-2.0902,-2.0902,-2.0802,-2.0755,-2.1036,-2.1002,-2.0935,-2.1076,-2.1109,-2.1109,-2.1109,-2.0989,-2.0889,-2.0902,-2.0782,-2.0722,-2.0862,-2.0655,-2.0408,-2.0254,-1.9987,-1.9746,-1.9606,-1.9459,-1.9366,-1.9366,-1.9366,-1.9305,-1.9165,-1.9152,-1.9092,-1.8931,-1.8925,-1.8918,-1.8911,-1.8918,-1.8918,-1.8911,-1.8918,-1.8778,-1.849,-1.849,-1.8343,-1.8056,-1.8056,-1.8056,-3.3872,-3.3953,-3.368,-3.2751,-3.0994,-2.8739,-2.6365,-2.4216,0.0,-2.1232,-2.0542,-2.0318,-2.0837,0.0,-2.2327,0.0,-2.3887,-2.504,0.0,-2.7494,-2.8021,0.0,-3.0549,0.0,-3.0167,-3.0396,-2.9485,-2.7093,-2.822,-2.8459,-2.7538,-2.6126,-2.548,-2.548,-2.4944,-2.4466,-2.3881,-2.3742,-2.3135,-2.2081,-2.2242,-2.2067,-2.1606,-2.1935,-2.2045,-2.2001,-2.2367,-2.2528,-2.2557,-2.2871,-2.3047,-2.3098,-2.3032,-2.2967,-2.2915,-2.2981,-2.2798,-2.2586,-2.2601,-2.2324,-2.1782,-2.1783,-2.1488,-2.1109,-2.1109,-2.1109,-2.1109,-2.1109,-2.1109,-2.1109,-2.1109,-2.1109,-2.1109,-2.1109,-2.1109,-2.1109,-2.1109,-2.0929,-2.0835,-2.1069,-2.0875,-2.0695,-2.0762,-2.0715,-2.0601,-2.0361,-2.008,-1.9893,-1.9893,-1.9639,-1.9486,-1.9546,-1.9446,-1.9366,-1.9366,-1.9366,-1.9265,-1.9032,-1.9018,-1.8918,-1.8691,-1.8838,-1.8844,-1.8684,-1.8844,-1.8811,-1.8584,-1.8584,-1.8551,-1.849,-1.849,-1.849,-3.4517,-3.4455,-3.3891,-3.3034,-3.0635,-2.8013,-2.6154,0.0,-2.2241,-2.1318,-2.1098,-2.1078,-2.1128,-2.1275,-2.1669,0.0,0.0,-2.4666,0.0,0.0,-2.9045,-3.0732,0.0,0.0,-3.1779,-3.0569,-3.026,-3.1453,-3.0529,-2.9475,-2.8571,-2.719,-2.6553,-2.6553,-2.4675,-2.3559,-2.3201,-2.2637,-2.2147,-2.1737,-2.1467,-2.1313,-2.1269,-2.1591,-2.1576,-2.1335,-2.1957,-2.2228,-2.225,-2.2542,-2.2842,-2.3084,-2.2784,-2.2506,-2.2301,-2.2564,-2.2476,-2.2308,-2.2901,-2.2841,-2.2445,-2.2097,-2.1607,-2.1109,-2.1109,-2.1109,-2.1109,-2.1109,-2.1109,-2.1109,-2.1109,-2.1109,-2.1109,-2.1109,-2.1109,-2.1109,-2.1109,-2.1089,-2.1076,-2.1109,-2.0875,-2.0762,-2.1022,-2.0848,-2.0668,-2.0641,-2.0381,-2.0194,-2.0194,-1.994,-1.986,-2.0127,-1.9679,-1.9366,-1.9366,-1.9366,-1.9359,-1.9325,-1.9325,-1.9319,-1.9285,-1.9052,-1.9038,-1.9285,-1.9045,-1.8911,-1.8885,-1.8885,-1.8744,-1.849,-1.849,-1.849,-3.4434,-3.4621,-3.4238,-3.3118,-3.036,-2.7647,-2.6187,0.0,-2.2109,-2.148,-2.1282,-2.1205,-2.1359,-2.1359,-2.17,0.0,0.0,0.0,-2.5792,0.0,-2.7092,-2.9951,-2.9945,-3.0383,-3.1899,-3.1472,-3.131,-3.2129,-3.0888,-3.0328,-3.0742,-2.805,-2.6056,-2.488,-2.4168,-2.364,-2.3113,-2.2491,-2.2118,-2.1986,-2.1459,-2.1211,-2.1211,-2.1342,-2.1445,-2.1525,-2.1986,-2.2286,-2.2469,-2.2784,-2.2879,-2.2806,-2.2674,-2.244,-2.2198,-2.2315,-2.2396,-2.2484,-2.2732,-2.2697,-2.248,-2.2237,-2.1734,-2.1355,-2.1109,-2.1109,-2.1109,-2.1109,-2.1109,-2.1109,-2.1109,-2.1109,-2.1109,-2.1109,-2.1109,-2.1109,-2.1109,-2.0969,-2.0902,-2.1076,-2.0875,-2.0768,-2.1056,-2.1009,-2.0935,-2.0935,-2.0688,-2.0501,-2.0501,-2.0241,-2.01,-2.0221,-2.0027,-1.9887,-1.9887,-1.9726,-1.9626,-1.9626,-1.9466,-1.9366,-1.9366,-1.9252,-1.9245,-1.9366,-1.9252,-1.9192,-1.9192,-1.9192,-1.9132,-1.9018,-1.9018,-1.9018,-3.3254,-3.3948,-3.4062,-3.283,-3.0212,-2.7562,0.0,0.0,-2.2132,-2.1671,-2.1512,-2.1436,-2.1578,-2.1578,-2.1758,0.0,0.0,-2.2388,-2.4679,-2.4916,-2.5929,-2.8784,0.0,-3.0289,-3.1391,-3.1761,-3.1949,-3.1777,-3.0905,-3.0653,-3.1156,-2.878,-2.6677,-2.5195,-2.4851,-2.4339,-2.3764,-2.2855,-2.2466,-2.2466,-2.1654,-2.1211,-2.1211,-2.1313,-2.1481,-2.1715,-2.2045,-2.2352,-2.2637,-2.2871,-2.2828,-2.2615,-2.2528,-2.2308,-2.2052,-2.2147,-2.2315,-2.252,-2.2703,-2.2792,-2.2731,-2.2362,-2.2111,-2.1859,-2.1481,-2.1235,-2.1109,-2.1109,-2.1109,-2.1109,-2.1109,-2.1109,-2.1109,-2.1109,-2.1109,-2.1109,-2.1109,-2.0949,-2.0862,-2.1069,-2.0942,-2.0869,-2.1076,-2.1109,-2.1109,-2.1109,-2.0862,-2.0708,-2.0795,-2.0548,-2.0401,-2.0481,-2.0494,-2.0421,-2.0247,-2.0047,-1.9887,-1.9806,-1.9606,-1.9459,-1.9372,-1.9366,-1.9366,-1.9366,-1.9366,-1.9366,-1.9366,-1.9366,-1.9366,-1.9366,-1.9366,-1.9366,-3.0594,-3.2033,-3.3172,-3.2271,-2.9973,-2.7562,0.0,0.0,-2.2366,-2.1901,-2.1807,-2.1807,-2.1807,-2.1807,-2.1807,-2.1818,-2.2573,0.0,-2.4063,-2.5249,-2.6334,0.0,-2.7873,-2.8936,-3.0339,-3.1331,-3.1702,-3.0937,-3.0908,-3.0284,-2.9048,-2.9203,-2.9231,-2.882,-2.6979,-2.5694,-2.5196,-2.3715,-2.299,-2.299,-2.1767,-2.1211,-2.1218,-2.154,-2.1693,-2.1715,-2.2045,-2.2352,-2.2623,-2.2623,-2.2623,-2.2593,-2.2301,-2.1986,-2.1745,-2.2067,-2.2184,-2.2279,-2.2893,-2.3106,-2.2981,-2.2731,-2.2606,-2.2487,-2.223,-2.1607,-2.1109,-2.1109,-2.1109,-2.1109,-2.1109,-2.1109,-2.1109,-2.1109,-2.1109,-2.1109,-2.1109,-2.1109,-2.1109,-2.1109,-2.1109,-2.1109,-2.1109,-2.1109,-2.1109,-2.1109,-2.0862,-2.0782,-2.1069,-2.0855,-2.0782,-2.1069,-2.1102,-2.0862,-2.0281,-2.0227,-2.0107,-1.982,-1.98,-1.9666,-1.9379,-1.9366,-1.9366,-1.9366,-1.9366,-1.9366,-1.9366,-1.9366,-1.9366,-1.9366,-1.9366,-1.9366,-2.8131,-2.8763,-2.898,-2.8059,-2.6248,-2.4488,-2.3732,0.0,-2.1507,-2.1362,-2.159,-2.1807,-2.1807,-2.1549,-2.1538,-2.217,-2.2263,0.0,0.0,0.0,0.0,-2.773,-2.9794,-3.1136,-3.1325,-3.1902,-3.2037,-3.1328,-3.1318,-3.1072,-3.0696,-3.0552,-2.93,-2.6944,-2.6736,-2.6217,-2.5187,-2.4859,-2.4574,-2.4444,-2.4243,-2.4024,-2.404,-2.4507,-2.4343,-2.3642,-2.3751,-2.3505,-2.2952,-2.2952,-2.2828,-2.2615,-2.252,-2.2301,-2.2045,-2.2147,-2.2308,-2.2513,-2.271,-2.2923,-2.2981,-2.2738,-2.2606,-2.2487,-2.2237,-2.1985,-2.1734,-2.1488,-2.1235,-2.1109,-2.1109,-2.1109,-2.1109,-2.1109,-2.1109,-2.1109,-2.1109,-2.1109,-2.1109,-2.1109,-2.1109,-2.1109,-2.1109,-2.1109,-2.1109,-2.1109,-2.1029,-2.1002,-2.1096,-2.1029,-2.1009,-2.1096,-2.1109,-2.1029,-2.0848,-2.0655,-2.0414,-2.0114,-1.9907,-1.9673,-1.9379,-1.9366,-1.9366,-1.9366,-1.9366,-1.9366,-1.9366,-1.9366,-1.9366,-1.9366,-1.9366,-1.9366,0.0,-2.6486,-2.6786,-2.5865,-2.4529,0.0,0.0,0.0,-2.1373,-2.1373,-2.1611,-2.1756,-2.158,-2.1311,-2.13,-2.188,-2.2025,-2.249,0.0,0.0,0.0,-2.8368,-3.0638,-3.1861,-3.1511,-3.2105,-3.2145,-3.1515,-3.1279,-3.1279,-3.1279,-3.1035,-2.9909,-2.7848,-2.8048,-2.7795,-2.6884,-2.6441,-2.6215,-2.6197,-2.576,-2.5654,-2.5663,-2.6041,-2.5864,-2.5267,-2.5406,-2.5108,0.0,-2.4571,-2.4369,-2.4057,-2.4057,-2.3855,-2.3708,-2.3834,-2.3654,-2.3361,-2.349,-2.3301,-2.3106,-2.2863,-2.2731,-2.2731,-2.248,-2.2237,-2.1859,-2.1488,-2.1235,-2.1109,-2.1109,-2.1109,-2.1109,-2.1109,-2.1109,-2.1109,-2.1109,-2.1109,-2.1109,-2.1109,-2.1109,-2.1109,-2.1109,-2.1109,-2.1109,-2.1109,-2.1109,-2.1109,-2.1109,-2.1109,-2.1109,-2.1109,-2.1109,-2.1109,-2.1109,-2.0942,-2.0715,-2.0421,-2.0127,-1.9833,-1.9546,-1.9426,-1.9366,-1.9366,-1.9366,-1.9366,-1.9366,-1.9366,-1.9366,-1.9366,-1.9366,-1.9366,0.0,-2.4989,-2.5968,-2.5109,-2.426,0.0,0.0,0.0,0.0,-2.1756,-2.1756,-2.1642,-2.128,-2.1135,-2.1104,-2.1238,-2.1952,-2.2822,0.0,-2.5513,0.0,0.0,-3.0646,-3.1323,-3.0901,-3.1866,-3.2123,-3.1364,-3.0995,-3.0889,-3.0889,-3.0918,-3.0918,-3.0889,-3.0498,-3.0068,-2.9619,-2.8606,-2.8011,-2.7946,-2.6831,-2.6264,-2.6282,-2.6663,-2.6719,-2.6745,-2.6979,-2.7134,-2.7013,-2.7013,-2.6807,-2.6491,-2.6491,-2.6394,-2.6119,-2.6471,-2.5777,-2.4868,-2.5082,-2.4456,-2.3355,-2.3355,-2.3355,-2.3355,-2.323,-2.248,-2.1607,-2.1229,-2.1235,-2.1109,-2.1109,-2.1109,-2.1109,-2.1109,-2.1109,-2.1109,-2.1109,-2.1109,-2.1109,-2.1109,-2.1109,-2.1109,-2.1109,-2.1109,-2.1109,-2.1109,-2.1109,-2.1109,-2.1109,-2.1109,-2.1109,-2.1109,-2.1109,-2.1109,-2.1109,-2.1109,-2.0989,-2.0695,-2.0421,-2.0127,-1.9813,-1.9539,-1.9392,-1.9366,-1.9366,-1.9366,-1.9366,-1.9366,-1.9366,-1.9366,-1.9366,-1.9379,-2.266,0.0,-2.2263,-2.1694,-2.1393,-2.1207,0.0,0.0,0.0,0.0,0.0,0.0,0.0,-2.13,-2.1052,-2.247,-2.2584,-2.2822,-2.3743,0.0,0.0,-3.0667,-3.1795,-3.1902,-3.0621,-3.1355,-3.1676,-3.1005,-3.0889,-3.0889,-3.0889,-3.1191,-3.1221,-3.0898,-3.1094,-3.083,-3.0059,-3.0161,-2.9881,-2.9225,-2.9193,-2.9222,-2.9241,-2.9688,-2.9282,-2.8309,-2.8399,-2.7847,-2.7013,-2.7013,-2.6961,-2.6884,-2.6884,-2.6824,-2.6756,-2.685,-2.6644,-2.6411,-2.6503,-2.6407,-2.6042,-2.6042,-2.6042,-2.5798,-2.4571,-2.3347,-2.2362,-2.2237,-2.2104,-2.1859,-2.1607,-2.1488,-2.1355,-2.1109,-2.1109,-2.1109,-2.1109,-2.1109,-2.1109,-2.1109,-2.1109,-2.1109,-2.1109,-2.1109,-2.1109,-2.1109,-2.1109,-2.1109,-2.1109,-2.1109,-2.1109,-2.1109,-2.1109,-2.1109,-2.1109,-2.1109,-2.0989,-2.0695,-2.0608,-2.0341,-1.982,-1.9733,-1.9593,-1.9372,-1.9366,-1.9366,-1.9366,-1.9366,-1.9366,-1.9366,-1.9366,-1.9486,-2.3089,-2.2131,-2.1052,-2.0803,-2.0741,-2.0793,0.0,0.0,0.0,0.0,0.0,0.0,0.0,0.0,0.0,0.0,-2.2697,0.0,0.0,0.0,-2.9373,-3.1433,-3.194,-3.185,-3.1299,-3.162,-3.1566,-3.1112,-3.1005,-3.0976,-3.1172,-3.1211,-3.1309,-3.1475,-3.1504,-3.1094,-3.0205,-3.0664,-3.0547,-2.9863,-3.0303,-3.0518,-3.0527,-3.0771,-3.0518,-2.9785,-2.9785,-2.9422,-2.8829,-2.8829,-2.8829,-2.8829,-2.8829,-2.8829,-2.8829,-2.8829,-2.8462,-2.7847,-2.7847,-2.7495,-2.7013,-2.7013,-2.7013,-2.6892,-2.5912,-2.4818,-2.3596,-2.2606,-2.223,-2.1985,-2.1734,-2.1607,-2.1481,-2.1235,-2.1109,-2.1109,-2.1109,-2.1109,-2.1109,-2.1109,-2.1109,-2.1109,-2.1109,-2.1109,-2.1109,-2.1109,-2.1109,-2.1109,-2.1109,-2.1109,-2.1109,-2.1109,-2.1109,-2.1109,-2.1109,-2.1109,-2.1042,-2.0882,-2.0748,-2.0535,-2.0214,-1.994,-1.9659,-1.9372,-1.9366,-1.9366,-1.9366,-1.9366,-1.9432,-1.9566,-1.9566,-1.972,-2.4131,-2.2926,-2.1428,-2.1145,-2.1114,-2.1197,0.0,0.0,0.0,0.0,0.0,0.0,0.0,0.0,0.0,0.0,0.0,0.0,-2.8431,-2.8928,-2.9673,-3.1702,-3.1723,-3.1715,-3.1983,-3.1822,-3.1672,-3.1218,-3.0995,-3.1045,-3.1406,-3.1143,-3.1289,-3.1953,-3.168,-3.1094,-3.0205,-3.0723,-3.0752,-3.0303,-3.0703,-3.0859,-3.0791,-3.0859,-3.085,-3.0791,-3.0859,-3.085,-3.0781,-3.0781,-3.0752,-3.0693,-3.0762,-3.0781,-3.0791,-3.0859,-3.0147,-2.9166,-2.9166,-2.8453,-2.7624,-2.7624,-2.7624,-2.7504,-2.7375,-2.652,-2.5317,-2.3517,-2.2634,-2.2104,-2.1734,-2.1734,-2.1607,-2.1235,-2.1109,-2.1109,-2.1109,-2.1109,-2.1109,-2.1109,-2.1109,-2.1109,-2.1109,-2.1109,-2.1109,-2.1109,-2.1109,-2.1109,-2.1109,-2.1109,-2.1109,-2.1109,-2.1109,-2.1109,-2.1109,-2.1109,-2.1109,-2.1109,-2.0882,-2.0722,-2.0681,-2.0154,-1.9726,-1.9439,-1.9432,-1.9432,-1.9432,-1.9432,-1.9586,-1.9867,-1.9867,-2.002,-2.5087,-2.4249,-2.2972,-2.1449,-2.1114,-2.1031,0.0,0.0,0.0,0.0,0.0,0.0,0.0,0.0,0.0,0.0,0.0,-2.7055,-2.9963,-3.0367,-3.0646,-3.1391,-3.2095,-3.2035,-3.0823,-3.1345,-3.1566,-3.1005,-3.0889,-3.0918,-3.0986,-3.126,-3.1318,-3.1094,-3.1367,-3.1094,-3.0205,-3.1016,-3.1211,-3.0781,-3.0859,-3.0684,-3.0322,-3.0713,-3.0674,-3.0322,-3.0723,-3.0664,-3.0303,-3.0303,-3.0098,-2.9814,-3.0166,-3.0303,-3.0351,-3.0742,-3.0772,-3.0645,-3.0645,-3.0401,-3.0284,-3.0284,-3.0284,-3.0039,-2.8929,-2.8444,-2.8148,-2.7013,-2.4914,-2.2856,-2.2237,-2.1985,-2.1859,-2.1235,-2.1109,-2.1109,-2.1109,-2.1109,-2.1109,-2.1109,-2.1109,-2.1109,-2.1109,-2.1109,-2.1109,-2.1109,-2.1109,-2.1109,-2.1109,-2.1109,-2.1109,-2.1109,-2.1109,-2.1109,-2.1109,-2.1109,-2.1109,-2.1109,-2.1069,-2.0935,-2.0688,-2.0347,-2.0034,-1.974,-1.9733,-1.9733,-1.9733,-1.9733,-1.9887,-2.0167,-2.0167,-2.0327,-2.4366,-2.3488,-2.2342,-2.1805,-2.1975,-2.2118,-2.1652,0.0,0.0,0.0,0.0,0.0,0.0,0.0,-2.3888,-2.5761,-2.7179,-2.8669,-3.0439,-3.047,-3.0667,-3.1619,-3.1881,-3.1921,-3.1516,-3.1886,-3.1939,-3.125,-3.123,-3.123,-3.123,-3.1201,-3.1191,-3.123,-3.1201,-3.0986,-3.0576,-3.0976,-3.0957,-3.0518,-3.0771,-3.0781,-3.0576,-3.0791,-3.0771,-3.0586,-3.0801,-3.0625,-3.0215,-3.0469,-3.0176,-2.9639,-3.0312,-3.0283,-2.9912,-3.0351,-3.0518,-3.0547,-3.0801,-3.0889,-3.0889,-3.0889,-3.0889,-3.0762,-3.0147,-2.9412,-2.8838,-2.842,-2.6903,-2.5506,-2.518,-2.4843,-2.4337,-2.3087,-2.2589,-2.2215,-2.1471,-2.147,-2.1583,-2.1583,-2.1583,-2.1537,-2.1376,-2.1349,-2.1349,-2.1349,-2.1349,-2.141,-2.1563,-2.1583,-2.1583,-2.1583,-2.1443,-2.1349,-2.1349,-2.1203,-2.1109,-2.1109,-2.1109,-2.0982,-2.0688,-2.0541,-2.0334,-2.004,-2.0034,-2.0034,-2.0034,-2.0034,-2.0187,-2.0474,-2.0474,-2.0628,-2.3911,-2.2912,-2.2033,-2.2435,0.0,-2.2563,-2.2646,0.0,0.0,0.0,0.0,0.0,0.0,-2.4095,0.0,-2.8038,-2.9187,-3.0149,-3.1174,-3.0926,-3.106,-3.2219,-3.1922,-3.193,-3.2371,-3.2306,-3.2068,-3.1396,-3.1367,-3.1367,-3.1367,-3.1064,-3.1035,-3.1357,-3.1055,-3.0889,-3.0889,-3.0889,-3.0713,-3.0361,-3.0723,-3.0781,-3.0586,-3.0801,-3.0781,-3.0596,-3.0801,-3.0576,-3.0078,-3.0439,-3.0117,-2.9492,-3.0273,-3.0234,-2.9756,-3.0078,-3.0195,-3.0244,-3.0605,-3.0801,-3.0889,-3.0889,-3.0889,-3.0889,-3.0889,-3.0147,-2.945,-2.9645,-2.9192,-2.8483,-2.7813,-2.7268,-2.6454,-2.5282,-2.4538,-2.391,-2.2535,-2.2339,-2.2372,-2.2116,-2.1984,-2.1911,-2.1697,-2.1657,-2.1657,-2.1657,-2.1657,-2.1737,-2.1957,-2.1984,-2.1984,-2.1984,-2.1724,-2.1523,-2.1456,-2.1236,-2.1109,-2.1109,-2.1109,-2.1009,-2.0788,-2.0775,-2.0635,-2.0341,-2.0334,-2.0334,-2.0334,-2.0334,-2.0488,-2.0775,-2.0775,-2.0895,-2.4691,-2.3939,-2.329,-2.3792,-2.2241,0.0,-2.2749,-2.2832,0.0,0.0,0.0,0.0,0.0,-2.5502,-2.7179,-2.9477,-3.0626,-3.1681,-3.2996,-3.2809,-3.2716,-3.3223,-3.2683,-3.2286,-3.2529,-3.1876,-3.1297,-3.0937,-3.0937,-3.0937,-3.0937,-3.0908,-3.0898,-3.0937,-3.0908,-3.0889,-3.0889,-3.0889,-3.0869,-3.084,-3.0869,-3.0459,-2.9687,-3.0518,-3.0439,-2.9717,-3.0537,-3.041,-2.9619,-2.9648,-2.9394,-2.9014,-2.9482,-2.9863,-3.0156,-3.0185,-3.0195,-3.0205,-3.0234,-3.0537,-3.0889,-3.0889,-3.0889,-3.0889,-3.0889,-3.0889,-3.0927,-3.1725,-3.1968,-3.1152,-2.7919,-2.7075,-2.7018,-2.7101,-2.6796,-2.6152,-2.4759,-2.415,-2.3529,-2.2241,-2.1984,-2.1977,-2.1957,-2.1951,-2.1951,-2.1951,-2.1951,-2.1964,-2.1984,-2.1984,-2.1984,-2.1984,-2.1724,-2.1443,-2.1162,-2.1122,-2.1109,-2.1109,-2.1109,-2.1096,-2.1082,-2.1076,-2.0942,-2.0648,-2.0641,-2.0641,-2.0641,-2.0641,-2.0795,-2.1076,-2.1076,-2.1089,-2.4205,-2.3538,-2.3087,-2.4425,0.0,0.0,0.0,0.0,0.0,-2.544,-2.5958,0.0,0.0,0.0,-2.8742,-3.0191,-3.1433,-3.2489,-3.3265,-3.3006,-3.2892,-3.3327,-3.2758,-3.2377,-3.2431,-3.183,-3.1388,-3.1279,-3.1035,-3.0889,-3.0889,-3.0889,-3.0889,-3.0889,-3.0889,-3.0752,-3.0459,-3.0459,-3.0322,-3.0078,-3.0625,-3.0566,-2.9971,-3.0303,-3.0137,-2.96,-3.0195,-3.0117,-2.9609,-3.0166,-2.9971,-2.9336,-2.9502,-2.9668,-2.9814,-2.9814,-2.9639,-2.9443,-2.9717,-3.0098,-3.0459,-3.0459,-3.0654,-3.0889,-3.0889,-3.1074,-3.1348,-3.167,-3.1963,-3.1992,-3.1196,-3.0719,-3.0199,-2.943,-2.8959,-2.7933,-2.549,-2.4877,-2.4494,-2.2923,-2.2532,-2.2472,-2.2285,-2.2258,-2.2258,-2.2258,-2.2258,-2.2325,-2.2505,-2.2532,-2.2532,-2.2532,-2.2104,-2.1704,-2.141,-2.1216,-2.1109,-2.1109,-2.1109,-2.1109,-2.1109,-2.1109,-2.1056,-2.0949,-2.0949,-2.0949,-2.0949,-2.0949,-2.1002,-2.1109,-2.1109,-2.1109,-2.3765,-2.337,-2.3142,0.0,0.0,0.0,0.0,0.0,0.0,-2.7189,-2.7427,-2.7645,-2.8255,0.0,-2.9487,-3.0708,-3.193,-3.2882,-3.3317,-3.3006,-3.2892,-3.3327,-3.254,-3.2129,-3.2411,-3.1604,-3.1162,-3.1309,-3.1055,-3.0889,-3.0889,-3.0752,-3.0674,-3.0674,-3.0547,-3.0322,-3.0,-3.0,-2.9853,-2.958,-3.0185,-3.0234,-2.9795,-2.9941,-2.9766,-2.9394,-2.9951,-2.9961,-2.9629,-3.0371,-3.0312,-2.9785,-2.9932,-2.9893,-2.9756,-2.9619,-2.9385,-2.915,-2.9307,-2.9648,-3.0019,-3.0156,-3.041,-3.0703,-3.085,-3.1094,-3.1348,-3.1475,-3.1836,-3.2305,-3.2871,-3.2786,-3.2325,-3.1523,-3.1046,-3.001,-2.7271,-2.6806,-2.618,-2.3931,-2.3536,-2.3331,-2.2727,-2.2559,-2.2559,-2.2559,-2.2559,-2.2632,-2.2839,-2.2859,-2.2826,-2.2732,-2.2365,-2.2004,-2.1717,-2.1503,-2.1383,-2.1383,-2.1303,-2.1203,-2.1109,-2.1109,-2.1109,-2.1109,-2.1109,-2.1109,-2.1109,-2.1109,-2.1156,-2.1249,-2.1156,-2.1209,-2.37,-2.3725,0.0,0.0,0.0,0.0,0.0,0.0,0.0,-3.0201,-2.9228,-2.8235,-2.9145,-2.8949,-2.9239,-3.1081,-3.2137,-3.2882,-3.3317,-3.2996,-3.2882,-3.3317,-3.2001,-3.1476,-3.2371,-3.106,-3.0391,-3.0859,-3.0889,-3.0889,-3.0889,-3.0449,-3.0195,-3.0185,-2.9785,-2.957,-2.956,-2.956,-2.956,-2.956,-2.956,-2.9336,-2.8935,-2.9365,-2.9326,-2.8955,-2.9814,-2.9951,-2.96,-3.0029,-3.0205,-3.0244,-3.0713,-3.0605,-3.0146,-2.9726,-2.957,-2.9502,-2.9062,-2.9199,-2.9629,-3.0049,-3.0195,-3.0283,-3.0752,-3.0889,-3.0986,-3.1396,-3.1836,-3.2168,-3.2168,-3.248,-3.29,-3.332,-3.3165,-3.2393,-3.0669,-3.0021,-2.8846,-2.5667,-2.5008,-2.4609,-2.3133,-2.2866,-2.2859,-2.2859,-2.2866,-2.2859,-2.2859,-2.2859,-2.2746,-2.2452,-2.2418,-2.2305,-2.2017,-2.1984,-2.1984,-2.1984,-2.171,-2.1423,-2.1122,-2.1109,-2.1109,-2.1109,-2.1109,-2.1109,-2.1109,-2.1109,-2.1263,-2.1543,-2.1256,-2.143,-2.4834,-2.4462,0.0,0.0,0.0,0.0,0.0,0.0,0.0,0.0,-3.0025,-2.9953,-3.0222,-3.0429,-3.0739,-3.1288,-3.2137,-3.2778,-3.2903,-3.253,-3.2416,-3.2871,-3.1818,-3.1345,-3.1928,-3.0873,-3.0391,-3.0859,-3.0586,-3.04,-3.04,-3.0273,-3.0059,-2.9766,-2.9629,-2.9424,-2.9111,-2.9111,-2.8965,-2.8672,-2.8672,-2.876,-2.8926,-2.9053,-2.8877,-2.8506,-2.9062,-2.9404,-2.9629,-3.0381,-3.0488,-3.0244,-3.0713,-3.0605,-3.0146,-2.9726,-2.9375,-2.9053,-2.8623,-2.876,-2.918,-2.9619,-2.9961,-3.0283,-3.0752,-3.1094,-3.1357,-3.1484,-3.1836,-3.2168,-3.2168,-3.248,-3.2832,-3.2949,-3.3087,-3.2765,-3.1047,-3.0522,-2.9735,-2.7254,-2.6863,-2.6588,-2.592,-2.4993,-2.4338,-2.4338,-2.3536,-2.2859,-2.2859,-2.2859,-2.2826,-2.2739,-2.2545,-2.2385,-2.2298,-2.2104,-2.1984,-2.1984,-2.171,-2.1516,-2.1423,-2.1223,-2.1109,-2.1109,-2.1109,-2.1109,-2.1109,-2.1323,-2.147,-2.1557,-2.167,-2.1817,-2.5289,0.0,0.0,0.0,0.0,0.0,0.0,0.0,0.0,0.0,-3.0874,-3.0801,-3.1164,-3.1153,-3.1215,-3.1578,-3.2095,-3.252,-3.2706,-3.2333,-3.2209,-3.2675,-3.1736,-3.1295,-3.1747,-3.0646,-3.0137,-3.0576,-3.0195,-2.9941,-2.9941,-2.9785,-2.957,-2.9316,-2.8984,-2.8769,-2.8672,-2.833,-2.8203,-2.8291,-2.8125,-2.8262,-2.8672,-2.8672,-2.8535,-2.831,-2.874,-2.917,-2.9609,-3.0146,-3.0293,-3.0225,-3.0508,-3.0557,-3.042,-2.998,-2.9551,-2.9121,-2.8691,-2.8711,-2.8994,-2.9434,-2.9853,-3.0283,-3.0752,-3.1064,-3.1269,-3.1269,-3.1572,-3.1875,-3.1709,-3.21,-3.2588,-3.2754,-3.3115,-3.3029,-3.1845,-3.1579,-3.1056,-2.9091,-2.8575,-2.818,-2.7379,-2.6455,-2.5793,-2.5793,-2.4602,-2.3665,-2.3665,-2.3263,-2.2859,-2.2859,-2.2706,-2.2599,-2.2599,-2.2432,-2.2331,-2.2331,-2.1951,-2.1724,-2.1724,-2.1329,-2.1109,-2.1109,-2.1223,-2.1289,-2.1289,-2.1583,-2.1784,-2.1897,-2.1957,-2.2111,0.0,0.0,0.0,0.0,0.0,0.0,0.0,0.0,-3.1661,-3.2447,0.0,-3.1153,-3.1909,-3.1402,-3.1133,-3.1909,-3.2075,-3.2219,-3.2561,-3.224,-3.2116,-3.2499,-3.1594,-3.1174,-3.1626,-3.0369,-2.9726,-3.0107,-2.9785,-2.9541,-2.9463,-2.9072,-2.8809,-2.8691,-2.7988,-2.7773,-2.8115,-2.7383,-2.7402,-2.8174,-2.7793,-2.7803,-2.8174,-2.8252,-2.8291,-2.831,-2.874,-2.9121,-2.9463,-2.9541,-2.9775,-3.0088,-3.0127,-3.04,-3.0713,-3.0244,-2.9844,-2.9443,-2.9014,-2.8867,-2.8935,-2.9414,-2.9824,-3.0234,-3.0742,-3.0889,-3.0889,-3.0889,-3.1162,-3.1377,-3.0986,-3.1494,-3.2207,-3.2588,-3.3027,-3.3243,-3.299,-3.2892,-3.2521,-3.0807,-3.029,-2.9639,-2.8188,-2.7643,-2.7246,-2.7113,-2.6061,-2.5135,-2.5008,-2.3938,-2.2996,-2.2859,-2.2859,-2.2859,-2.2859,-2.2859,-2.2859,-2.2859,-2.2338,-2.2024,-2.2024,-2.1436,-2.1122,-2.1149,-2.1416,-2.157,-2.159,-2.1884,-2.2164,-2.2412,-2.2178,-2.2352,0.0,0.0,0.0,0.0,0.0,0.0,0.0,0.0,-3.1857,-3.1702,-3.2271,-3.2644,-3.2137,-3.2178,-3.223,-3.2064,-3.2344,-3.2364,-3.1754,-3.1588,-3.1422,-3.1153,-3.0486,-3.0258,-3.0711,-3.0013,-2.9609,-2.9697,-2.9619,-2.9277,-2.8603,-2.8476,-2.7969,-2.6963,-2.708,-2.7041,-2.6797,-2.6943,-2.7109,-2.7285,-2.7197,-2.7207,-2.7314,-2.7988,-2.8291,-2.831,-2.874,-2.8789,-2.8613,-2.9297,-2.9424,-2.9228,-2.957,-2.9766,-2.9795,-2.9355,-2.9131,-2.8994,-2.8574,-2.8428,-2.8555,-2.9316,-2.9629,-2.9853,-3.0644,-3.0889,-3.0889,-3.0889,-3.0957,-3.1006,-3.0918,-3.1269,-3.168,-3.1777,-3.2373,-3.293,-3.2805,-3.3068,-3.3038,-3.2511,-3.2256,-3.201,-3.1111,-3.0048,-2.8706,-2.7379,-2.6847,-2.6195,-2.5135,-2.4738,-2.4067,-2.2996,-2.2859,-2.2859,-2.2859,-2.2859,-2.2859,-2.2859,-2.2525,-2.2325,-2.2325,-2.1543,-2.1223,-2.1456,-2.1516,-2.1663,-2.1891,-2.2184,-2.2358,-2.2418,-2.2592,-2.2739,0.0,0.0,0.0,0.0,0.0,0.0,0.0,0.0,-3.2113,-3.2091,-3.241,-3.2592,-3.2126,-3.2064,-3.2002,-3.1764,-3.1743,-3.1661,-3.1412,-3.1184,-3.104,-3.1019,-3.0455,-3.0218,-3.045,-2.9717,-2.9258,-2.9258,-2.8691,-2.8154,-2.7705,-2.7295,-2.6865,-2.6406,-2.6396,-2.6494,-2.6689,-2.6504,-2.6611,-2.7012,-2.6807,-2.6816,-2.7031,-2.748,-2.7685,-2.7705,-2.8135,-2.8193,-2.8047,-2.8691,-2.8945,-2.8945,-2.917,-2.9385,-2.9541,-2.9316,-2.9092,-2.8887,-2.8672,-2.8594,-2.8701,-2.9355,-2.9707,-3.0,-3.0684,-3.0889,-3.0889,-3.0889,-3.0889,-3.0889,-3.0889,-3.1055,-3.1211,-3.1211,-3.1875,-3.2549,-3.2754,-3.2969,-3.3184,-3.3136,-3.3048,-3.2794,-3.2422,-3.1497,-3.0446,-2.937,-2.8583,-2.766,-2.6195,-2.5405,-2.4474,-2.2996,-2.2859,-2.2859,-2.2859,-2.2859,-2.2859,-2.2859,-2.2579,-2.2418,-2.2418,-2.1844,-2.1603,-2.1757,-2.1897,-2.2044,-2.2191,-2.2485,-2.2632,-2.2639,-2.2939,-2.3086,0.0,0.0,0.0,0.0,0.0,0.0,0.0,-3.3454,-3.2729,-3.3221,-3.2542,-3.1899,-3.1816,-3.1578,-3.135,-3.1267,-3.0998,-3.0915,-3.1215,-3.0864,-3.0677,-3.0977,-3.0574,-3.0237,-3.0128,-2.9352,-2.8701,-2.8701,-2.7588,-2.6904,-2.6904,-2.6162,-2.5869,-2.6152,-2.581,-2.5928,-2.6562,-2.5859,-2.5869,-2.6562,-2.6289,-2.6338,-2.668,-2.6758,-2.6875,-2.7041,-2.748,-2.7666,-2.7695,-2.8125,-2.8496,-2.8809,-2.8809,-2.9033,-2.9355,-2.9355,-2.9121,-2.8809,-2.8809,-2.8857,-2.8994,-2.9434,-2.9853,-3.0283,-3.0752,-3.0889,-3.0889,-3.0889,-3.083,-3.0771,-3.0771,-3.0771,-3.0771,-3.0771,-3.1426,-3.2168,-3.2598,-3.2744,-3.29,-3.3242,-3.3068,-3.2815,-3.2815,-3.2247,-3.1791,-3.1515,-3.0455,-2.9125,-2.7652,-2.6195,-2.4865,-2.34,-2.2996,-2.2859,-2.2859,-2.2859,-2.2859,-2.2859,-2.2632,-2.2498,-2.2498,-2.2265,-2.2138,-2.2138,-2.2325,-2.2445,-2.2498,-2.2746,-2.2859,-2.2873,-2.318,-2.3327,0.0,0.0,0.0,0.0,0.0,0.0,0.0,0.0,-3.3856,-3.4952,-3.321,-3.134,-3.0936,-3.1143,-3.1247,-3.0843,-3.106,-3.1164,-3.0822,-3.0377,-2.9963,-2.9622,-2.928,-2.8968,-2.875,-2.8481,-2.8127,-2.7832,-2.6992,-2.6475,-2.6475,-2.6006,-2.5586,-2.5254,-2.5185,-2.5029,-2.4766,-2.4648,-2.4648,-2.4766,-2.5088,-2.5273,-2.5342,-2.5732,-2.6318,-2.7041,-2.748,-2.7666,-2.7695,-2.8125,-2.833,-2.8379,-2.8379,-2.8418,-2.8457,-2.8457,-2.8428,-2.8379,-2.8379,-2.8613,-2.8994,-2.9434,-2.9853,-3.0283,-3.0752,-3.0889,-3.0889,-3.0889,-3.0605,-3.0293,-3.0293,-3.0293,-3.0293,-3.0293,-3.0967,-3.1728,-3.2158,-3.2539,-3.2812,-3.2871,-3.2632,-3.2392,-3.2392,-3.2058,-3.1919,-3.1791,-3.1387,-3.0584,-2.9134,-2.7784,-2.6321,-2.4873,-2.3672,-2.2859,-2.2859,-2.2859,-2.2859,-2.2859,-2.2826,-2.2806,-2.2806,-2.2766,-2.2746,-2.2746,-2.2532,-2.2545,-2.2806,-2.2846,-2.2859,-2.2873,-2.318,-2.3327,0.0,0.0,0.0,0.0,0.0,0.0,0.0,0.0,-3.3112,-3.3971,-3.2261,-3.0817,-3.1497,-3.0832,-3.0232,-3.0294,-3.0036,-2.9849,-2.9901,-2.9508,-2.9145,-2.8938,-2.8625,-2.8432,-2.833,-2.8004,-2.7687,-2.7491,-2.6369,-2.5644,-2.5644,-2.4775,-2.4307,-2.4355,-2.4355,-2.4375,-2.4414,-2.4414,-2.4516,-2.4608,-2.4702,-2.4918,-2.5258,-2.5359,-2.5703,-2.6328,-2.6758,-2.6953,-2.7002,-2.7666,-2.7939,-2.7969,-2.8203,-2.8291,-2.8291,-2.8291,-2.8437,-2.8613,-2.8369,-2.873,-2.9316,-2.9502,-2.9853,-3.0283,-3.0752,-3.0889,-3.0889,-3.0889,-3.0557,-3.0195,-3.0195,-3.0019,-2.9902,-3.0137,-3.0498,-3.1035,-3.1963,-3.2314,-3.2441,-3.2441,-3.2328,-3.2273,-3.2267,-3.2083,-3.1912,-3.1882,-3.1644,-3.0852,-2.9535,-2.8056,-2.6588,-2.5143,-2.3802,-2.2859,-2.2859,-2.2859,-2.2859,-2.2859,-2.2859,-2.2859,-2.2859,-2.2859,-2.2859,-2.2859,-2.2732,-2.2732,-2.2859,-2.2859,-2.2953,-2.3133,-2.3434,-2.3661,0.0,0.0,0.0,0.0,0.0,0.0,0.0,0.0,-3.2604,-3.298,-3.1879,-3.1169,-3.2252,-3.0675,-2.9341,-2.99,-2.9265,-2.8731,-2.9073,-2.8731,-2.8442,-2.8442,-2.815,-2.799,-2.789,-2.7371,-2.7003,-2.6894,-2.5602,-2.4879,-2.4893,-2.3887,-2.3506,-2.3935,-2.3848,-2.3935,-2.4258,-2.4141,-2.4183,-2.4465,-2.4392,-2.4608,-2.5202,-2.5135,-2.5336,-2.5789,-2.6241,-2.6576,-2.6635,-2.729,-2.7663,-2.78,-2.8008,-2.8193,-2.8291,-2.8291,-2.8496,-2.8711,-2.8398,-2.8779,-2.9424,-2.9531,-2.9853,-3.0283,-3.0752,-3.0889,-3.0889,-3.0889,-3.0478,-3.0039,-3.0039,-2.9726,-2.9482,-2.9795,-3.0127,-3.0674,-3.1768,-3.209,-3.2129,-3.2031,-3.209,-3.2266,-3.2218,-3.22,-3.2071,-3.2001,-3.1772,-3.112,-2.9926,-2.8592,-2.7121,-2.5667,-2.4331,-2.3263,-2.2866,-2.2859,-2.2859,-2.2859,-2.2859,-2.2859,-2.2859,-2.2859,-2.2859,-2.2859,-2.2859,-2.2859,-2.2859,-2.2859,-2.3026,-2.3333,-2.3634,-2.3928,0.0,0.0,0.0,0.0,0.0,0.0,0.0,0.0,-3.3032,-3.3057,-3.3044,-3.3002,-3.3086,-3.0685,-2.8948,-2.9959,-2.9236,-2.8618,-2.8649,-2.8245,-2.7966,-2.7966,-2.7593,-2.7228,-2.6941,-2.6469,-2.6027,-2.5535,-2.4621,-2.4205,-2.4424,-2.4014,-2.3945,-2.4375,-2.3994,-2.3799,-2.3828,-2.3408,-2.33,-2.3573,-2.3979,-2.4277,-2.4595,-2.4917,-2.5338,-2.5819,-2.6486,-2.6854,-2.7082,-2.7341,-2.7687,-2.7969,-2.779,-2.7939,-2.8291,-2.8291,-2.8301,-2.832,-2.8301,-2.8584,-2.9023,-2.9434,-2.9853,-3.0283,-3.0752,-3.0889,-3.0889,-3.0889,-3.0273,-2.96,-2.96,-2.9277,-2.8955,-2.8984,-2.9941,-3.0986,-3.1455,-3.1875,-3.2041,-3.1631,-3.1885,-3.2178,-3.2197,-3.2613,-3.2775,-3.2422,-3.2038,-3.1782,-3.1377,-3.0056,-2.86,-2.7113,-2.5667,-2.4338,-2.2996,-2.2859,-2.2859,-2.2859,-2.2859,-2.2859,-2.2859,-2.2859,-2.2859,-2.2859,-2.2859,-2.2859,-2.2859,-2.2859,-2.3026,-2.3333,-2.3634,-2.3928,0.0,0.0,0.0,0.0,0.0,0.0,-2.9327,-3.0281,-3.1072,-3.1424,-3.1295,-3.1255,-3.1859,-3.0434,-2.9225,-2.9611,-2.8603,-2.7748,-2.7748,-2.7345,-2.7055,-2.7055,-2.6651,-2.6372,-2.6187,-2.5962,-2.5686,-2.5492,-2.4656,-2.4117,-2.4175,-2.3693,-2.3447,-2.3594,-2.3634,-2.3643,-2.3819,-2.366,-2.3667,-2.3947,-2.3914,-2.4223,-2.4682,-2.4665,-2.5078,-2.5614,-2.5835,-2.6205,-2.6758,-2.7102,-2.7272,-2.7482,-2.7752,-2.7963,-2.8121,-2.83,-2.8467,-2.8662,-2.8389,-2.875,-2.9365,-2.9521,-2.9853,-3.0283,-3.0752,-3.0889,-3.0889,-3.0889,-3.0449,-2.9912,-2.9639,-2.9248,-2.8994,-2.9268,-3.0137,-3.0928,-3.1084,-3.124,-3.1377,-3.1494,-3.1641,-3.1924,-3.2471,-3.2574,-3.2613,-3.2756,-3.2294,-3.1919,-3.1782,-3.0325,-2.9134,-2.8592,-2.647,-2.4738,-2.4338,-2.34,-2.2859,-2.2859,-2.2859,-2.2859,-2.2859,-2.2859,-2.2859,-2.2859,-2.2859,-2.2859,-2.2859,-2.2859,-2.312,-2.3614,-2.3721,-2.4028,-2.6533,0.0,0.0,0.0,0.0,-2.7256,-2.816,-2.8963,-2.9666,-3.0231,-3.0264,-3.0437,-3.1267,-3.0458,-2.9635,-2.9635,-2.8532,-2.7601,-2.7345,-2.7243,-2.7131,-2.6869,-2.6367,-2.6083,-2.6083,-2.5523,-2.5173,-2.5094,-2.4454,-2.4185,-2.4419,-2.4048,-2.3887,-2.4221,-2.4402,-2.4413,-2.4241,-2.4241,-2.4251,-2.4206,-2.4024,-2.4176,-2.4723,-2.4557,-2.4801,-2.5409,-2.5409,-2.5829,-2.6581,-2.6683,-2.6986,-2.7309,-2.7602,-2.7806,-2.8009,-2.819,-2.8457,-2.8672,-2.8389,-2.8662,-2.9189,-2.9473,-2.9756,-3.0098,-3.0703,-3.0889,-3.0889,-3.0889,-3.0557,-3.0137,-2.9853,-2.9355,-2.9062,-2.9648,-3.0117,-3.0527,-3.083,-3.0996,-3.1143,-3.1279,-3.1426,-3.1748,-3.2461,-3.2581,-3.2565,-3.2863,-3.2549,-3.2166,-3.1919,-3.0861,-2.9935,-2.9404,-2.7543,-2.6077,-2.5143,-2.4203,-2.34,-2.2866,-2.2859,-2.2859,-2.2859,-2.2859,-2.2859,-2.2859,-2.2859,-2.2859,-2.2859,-2.2859,-2.3173,-2.3774,-2.3774,-2.4082,0.0,0.0,0.0,0.0,0.0,0.0,-2.713,-2.8097,-2.9038,-2.9603,-3.0156,-3.0708,-3.1223,-3.056,-2.9989,-3.0001,-2.9145,-2.82,-2.7338,-2.7928,-2.8189,-2.7338,-2.6824,-2.6529,-2.6443,-2.5284,-2.4454,-2.4282,-2.4206,-2.4519,-2.5126,-2.5126,-2.5546,-2.6472,-2.6472,-2.6047,-2.521,-2.5126,-2.4819,-2.4282,-2.4282,-2.4378,-2.454,-2.454,-2.4788,-2.5213,-2.5213,-2.5709,-2.6537,-2.629,-2.6727,-2.7415,-2.7239,-2.7482,-2.7949,-2.7959,-2.814,-2.8291,-2.8291,-2.8291,-2.8437,-2.9297,-2.957,-2.9736,-3.0625,-3.0889,-3.0889,-3.0889,-3.0566,-3.0215,-3.0205,-2.957,-2.9141,-2.998,-2.9873,-2.9824,-3.0684,-3.1201,-3.1377,-3.0986,-3.124,-3.165,-3.209,-3.2519,-3.2805,-3.2844,-3.2912,-3.2667,-3.2047,-3.1919,-3.1258,-2.9535,-2.9404,-2.8205,-2.5412,-2.5008,-2.4474,-2.2996,-2.2859,-2.2859,-2.2859,-2.2859,-2.2859,-2.2859,-2.2859,-2.2859,-2.2859,-2.2859,-2.3173,-2.3774,-2.3788,-2.4102,-2.6533,0.0,0.0,0.0,0.0,0.0,-2.6722,-2.7231,-2.7783,-2.7946,-2.8411,-2.8963,-2.9503,-2.9372,-2.9353,-2.9762,-2.9107,-2.8345,-2.7748,-2.7861,-2.7861,-2.7691,-2.725,-2.6696,-2.6026,-2.5665,-2.5421,-2.5337,-2.5253,-2.5495,-2.6307,-2.6224,-2.6307,-2.673,-2.673,-2.6648,-2.6554,-2.6554,-2.6152,-2.5337,-2.5337,-2.502,-2.454,-2.454,-2.4612,-2.4726,-2.4726,-2.5068,-2.5647,-2.6218,-2.663,-2.6919,-2.7298,-2.7602,-2.7841,-2.7954,-2.8246,-2.8514,-2.8408,-2.8408,-2.8652,-2.9407,-2.957,-2.9736,-3.0625,-3.0889,-3.0889,-3.0889,-3.0801,-3.0625,-3.0283,-2.9795,-2.9453,-2.9687,-2.9893,-3.0088,-3.0332,-3.0742,-3.1123,-3.1309,-3.1435,-3.165,-3.209,-3.2519,-3.2832,-3.2825,-3.2855,-3.2794,-3.2667,-3.2422,-3.2029,-3.1258,-3.0316,-2.9248,-2.8205,-2.6211,-2.4873,-2.4474,-2.34,-2.2859,-2.2859,-2.2859,-2.2859,-2.2859,-2.2859,-2.2859,-2.2859,-2.2859,-2.3173,-2.3781,-2.4202,-2.4482,-2.6596,-2.6289,-2.6151,-2.6471,0.0,0.0,-2.6471,-2.6703,-2.7005,-2.7231,-2.7544,-2.7934,-2.8486,-2.8586,-2.8699,-2.9026,-2.8633,-2.8184,-2.7766,-2.8009,-2.8018,-2.7462,-2.717,-2.6827,-2.6553,-2.6251,-2.6095,-2.6307,-2.6235,-2.6464,-2.707,-2.7179,-2.7231,-2.7309,-2.7309,-2.7337,-2.7298,-2.71,-2.6726,-2.6318,-2.5788,-2.5311,-2.502,-2.47,-2.454,-2.454,-2.454,-2.4695,-2.5016,-2.5906,-2.6392,-2.6641,-2.7184,-2.7656,-2.7955,-2.8014,-2.8401,-2.8834,-2.8514,-2.8514,-2.8739,-2.9192,-2.9424,-2.9707,-3.0391,-3.0732,-3.0889,-3.0889,-3.0889,-3.083,-3.0557,-3.0156,-2.9834,-2.9834,-2.9883,-2.999,-3.0156,-3.041,-3.0732,-3.1172,-3.126,-3.1445,-3.206,-3.2373,-3.2656,-3.3008,-3.3136,-3.3048,-3.2921,-3.2667,-3.2422,-3.2166,-3.1368,-3.0567,-2.9526,-2.7924,-2.673,-2.5927,-2.5128,-2.4324,-2.3802,-2.3802,-2.3536,-2.2866,-2.2859,-2.2859,-2.2859,-2.2859,-2.3113,-2.3607,-2.4309,-2.4569,-2.6747,-2.6126,-2.5812,-2.6395,-2.6113,0.0,-2.642,-2.6584,-2.6747,-2.7105,-2.7193,-2.7356,-2.7908,-2.8009,-2.8034,-2.8097,-2.8109,-2.7965,-2.773,-2.8348,-2.8338,-2.7061,-2.6926,-2.7107,-2.75,-2.6773,-2.6576,-2.7025,-2.714,-2.7343,-2.7649,-2.7978,-2.8109,-2.8109,-2.8109,-2.794,-2.7625,-2.7215,-2.7097,-2.714,-2.5931,-2.5568,-2.5902,-2.502,-2.4615,-2.4615,-2.454,-2.454,-2.4602,-2.5461,-2.6082,-2.6548,-2.7055,-2.7626,-2.8237,-2.8237,-2.8593,-2.9132,-2.8834,-2.8737,-2.8797,-2.8898,-2.918,-2.959,-3.0049,-3.0488,-3.083,-3.0879,-3.0889,-3.0889,-3.0889,-3.0586,-3.0264,-3.0205,-2.9951,-2.9805,-3.0127,-3.0234,-3.0391,-3.081,-3.0889,-3.1133,-3.1894,-3.2109,-3.2422,-3.3174,-3.3359,-3.3292,-3.3048,-3.2921,-3.2794,-3.2549,-3.2422,-3.1763,-3.0169,-2.9909,-2.91,-2.7511,-2.7246,-2.6588,-2.527,-2.527,-2.4602,-2.34,-2.34,-2.3263,-2.3133,-2.303,-2.3053,-2.3347,-2.4195,-2.4449,-2.7226,-2.6716,-2.6314,-2.6496,-2.6716,0.0,-2.6596,-2.6804,-2.703,-2.6691,-2.6697,-2.6791,-2.7344,-2.7444,-2.7595,-2.8034,-2.8109,-2.8074,-2.8014,-2.8186,-2.8149,-2.7889,-2.7877,-2.7594,-2.6995,-2.6769,-2.674,-2.6847,-2.749,-2.7916,-2.8027,-2.8086,-2.8109,-2.8109,-2.8109,-2.8074,-2.8027,-2.8363,-2.8157,-2.7477,-2.7731,-2.7463,-2.6823,-2.5913,-2.5589,-2.5505,-2.4775,-2.454,-2.4495,-2.514,-2.5616,-2.6092,-2.6931,-2.7626,-2.8237,-2.8237,-2.8799,-2.9448,-2.894,-2.8824,-2.9,-2.8888,-2.8975,-2.9189,-2.9961,-3.0264,-3.041,-3.0781,-3.0889,-3.0889,-3.0889,-3.082,-3.0664,-3.0283,-3.042,-3.0547,-3.0264,-3.0488,-3.0781,-3.0869,-3.0889,-3.0947,-3.1113,-3.1709,-3.2226,-3.2393,-3.2988,-3.3418,-3.3292,-3.3292,-3.3175,-3.2794,-3.2794,-3.254,-3.1891,-3.0816,-2.9882,-2.937,-2.818,-2.7254,-2.6722,-2.6722,-2.6581,-2.6321,-2.6314,-2.5659,-2.4609,-2.3659,-2.3267,-2.334,-2.3988,-2.4255,-2.7974,-2.7352,-2.6929,-2.7205,-2.708,0.0,0.0,-2.6866,-2.6791,-2.6584,-2.6533,-2.6609,-2.6816,-2.6866,-2.6967,-2.7243,-2.7281,-2.7281,-2.7281,-2.7519,-2.7595,-2.7318,-2.7281,-2.7239,-2.7053,-2.7078,-2.7189,-2.7459,-2.7615,-2.7695,-2.7695,-2.7431,-2.7281,-2.7281,-2.7281,-2.7419,-2.7695,-2.7695,-2.7877,-2.8282,-2.7811,-2.7699,-2.7799,-2.6894,-2.6483,-2.64,-2.6008,-2.5516,-2.5221,-2.5614,-2.569,-2.5647,-2.6558,-2.7373,-2.8109,-2.8335,-2.8849,-2.9362,-2.9061,-2.9036,-2.9066,-2.875,-2.875,-2.9043,-2.9687,-3.0195,-3.0596,-3.083,-3.0889,-3.0889,-3.0889,-3.0889,-3.0771,-3.0303,-3.0371,-3.0478,-3.0244,-3.0381,-3.0615,-3.084,-3.1064,-3.1201,-3.1201,-3.1738,-3.2236,-3.2451,-3.3018,-3.3418,-3.3418,-3.3418,-3.3301,-3.3175,-3.3175,-3.3048,-3.2667,-3.2001,-3.1469,-3.1092,-3.0428,-2.9631,-2.8689,-2.8567,-2.804,-2.7113,-2.7113,-2.6722,-2.6061,-2.5426,-2.4436,-2.3113,-2.3861,-2.4128,-2.8654,-2.799,-2.7544,-2.7996,-2.7444,-2.6866,0.0,0.0,0.0,-2.6546,-2.6533,-2.6533,-2.6533,-2.6533,-2.6496,-2.6382,-2.6389,-2.6483,-2.6314,-2.6766,-2.6967,-2.6584,-2.6533,-2.6697,-2.708,-2.713,-2.7306,-2.7758,-2.7369,-2.713,-2.713,-2.6773,-2.6533,-2.6533,-2.6533,-2.6747,-2.7118,-2.6791,-2.7344,-2.8762,-2.7716,-2.7754,-2.8712,-2.781,-2.7395,-2.7395,-2.7151,-2.673,-2.6102,-2.6245,-2.5969,-2.557,-2.6308,-2.7076,-2.7862,-2.8411,-2.8907,-2.9271,-2.9191,-2.9237,-2.9132,-2.8611,-2.8633,-2.9111,-2.9463,-3.0185,-3.0889,-3.0889,-3.0889,-3.0889,-3.0889,-3.0889,-3.0801,-3.042,-3.0332,-3.0332,-3.0332,-3.0264,-3.0332,-3.0801,-3.1094,-3.1318,-3.1484,-3.1943,-3.2402,-3.2744,-3.3154,-3.3418,-3.3418,-3.3418,-3.3418,-3.3418,-3.3418,-3.3301,-3.3048,-3.3048,-3.2794,-3.2549,-3.2549,-3.201,-3.0807,-3.0419,-2.9631,-2.804,-2.8048,-2.7916,-2.7519,-2.7519,-2.6188,-2.3679,-2.4558,-2.4835,-2.9198,-2.8571,-2.8021,-2.8084,-2.8009,-2.7808,-2.7381,0.0,-2.7055,-2.6634,0.0,-2.6533,-2.6533,0.0,0.0,-2.5774,-2.6126,-2.6276,-2.5774,-2.6189,-2.6596,-2.6533,-2.6533,-2.6546,-2.6553,-2.6622,-2.6647,-2.671,-2.6659,-2.6622,-2.6622,-2.6559,-2.6533,-2.6533,-2.6533,-2.6559,-2.6622,-2.6979,-2.7532,-2.8197,-2.8475,-2.9012,-2.9624,-2.8712,-2.8371,-2.8291,-2.7476,-2.7069,-2.6905,-2.6218,-2.6084,-2.6401,-2.6571,-2.6879,-2.7438,-2.8297,-2.8907,-2.9373,-2.9505,-2.9554,-2.9448,-2.8834,-2.9065,-2.9502,-2.9551,-3.0185,-3.0889,-3.0889,-3.0889,-3.0889,-3.0889,-3.0889,-3.0879,-3.083,-3.081,-3.081,-3.081,-3.0488,-3.0332,-3.0801,-3.0596,-3.0596,-3.1377,-3.2187,-3.2744,-3.2793,-3.3154,-3.3418,-3.3418,-3.3418,-3.3418,-3.3418,-3.3418,-3.3418,-3.3292,-3.3292,-3.3175,-3.2921,-3.2794,-3.2667,-3.2147,-3.2147,-3.1901,-3.1377,-3.1387,-3.0584,-2.9003,-2.9003,-2.8188,-2.6604,-2.7344,-2.7671,-2.9783,-2.9226,-2.8798,-2.9001,-2.8661,-2.8268,-2.8222,-2.7996,-2.7607,-2.7055,0.0,0.0,0.0,0.0,0.0,0.0,-2.6302,-2.6264,-2.5674,-2.5799,-2.6088,-2.6483,-2.6533,-2.6533,-2.6533,-2.6151,-2.6101,-2.6496,-2.6151,-2.6101,-2.6508,-2.6533,-2.6533,-2.6533,-2.6533,-2.6533,-2.6533,-2.7005,-2.7557,-2.8109,-2.8662,-2.9239,-2.9792,-2.9456,-2.9287,-2.9209,-2.8803,-2.8051,-2.7069,-2.673,-2.6034,-2.5379,-2.5711,-2.6227,-2.6972,-2.7883,-2.8338,-2.8607,-2.9034,-2.9186,-2.9082,-2.855,-2.8544,-2.8828,-2.8828,-2.9434,-3.0176,-3.042,-3.0684,-3.0889,-3.0889,-3.0889,-3.0889,-3.0889,-3.0889,-3.0889,-3.0889,-3.0732,-3.0654,-3.085,-3.0928,-3.1084,-3.1455,-3.1816,-3.2217,-3.2715,-3.2939,-3.3144,-3.3389,-3.3418,-3.3418,-3.3418,-3.3418,-3.3418,-3.3418,-3.3418,-3.3301,-3.3175,-3.3175,-3.3048,-3.2667,-3.2676,-3.2549,-3.2166,-3.2175,-3.1772,-3.0861,-3.0861,-3.0571,-2.9872,-2.8766,-2.8289,-3.0228,-2.9834,-2.9479,-2.9756,-2.9202,-2.8571,-2.8837,-2.8499,-2.7996,-2.7595,-2.7394,0.0,0.0,0.0,-2.6483,-2.6251,0.0,-2.6214,-2.5485,-2.5511,-2.5749,-2.6176,-2.6433,-2.6533,-2.6533,-2.5937,-2.5774,-2.6189,-2.5837,-2.5774,-2.6201,-2.6445,-2.6533,-2.6533,-2.6533,-2.6596,-2.6747,-2.708,-2.7632,-2.8335,-2.8737,-2.9239,-2.9792,-2.9792,-2.9792,-2.9792,-2.9792,-2.904,-2.781,-2.7557,-2.6577,-2.5243,-2.5462,-2.5868,-2.6496,-2.7407,-2.7821,-2.8059,-2.8798,-2.8992,-2.8867,-2.8415,-2.8335,-2.8437,-2.833,-2.8975,-2.9805,-3.0107,-3.0537,-3.0889,-3.0889,-3.0889,-3.0889,-3.0889,-3.0889,-3.0889,-3.0889,-3.0791,-3.0703,-3.0703,-3.0947,-3.1191,-3.1318,-3.1533,-3.1943,-3.2685,-3.2793,-3.2949,-3.3369,-3.3418,-3.3418,-3.3418,-3.3418,-3.3418,-3.3418,-3.3418,-3.3418,-3.3418,-3.3418,-3.3301,-3.3048,-3.3048,-3.2921,-3.254,-3.2549,-3.2422,-3.2047,-3.216,-3.2292,-3.2439,-3.0402,-2.9622,-3.0444,-3.0203,-3.0062,-2.9856,-2.934,-2.8913,-2.8925,-2.8499,-2.8097,-2.8084,-2.7657,-2.7268,-2.7256,-2.6816,-2.6276,-2.5711,-2.6101,0.0,0.0,-2.5272,-2.5598,-2.5624,-2.6113,-2.6533,-2.6533,-2.5937,-2.5598,-2.5624,-2.5598,-2.5598,-2.5624,-2.6151,-2.6533,-2.6533,-2.6533,-2.6716,-2.7256,-2.7268,-2.7821,-2.89,-2.8925,-2.9239,-2.9792,-2.9792,-2.9792,-2.9792,-2.9792,-2.9792,-2.9624,-2.8791,-2.7891,-2.6951,-2.662,-2.6256,-2.6009,-2.6941,-2.7552,-2.8059,-2.898,-2.9176,-2.9041,-2.8619,-2.8638,-2.8818,-2.8418,-2.918,-3.0176,-3.0195,-3.0537,-3.0889,-3.0889,-3.0889,-3.0889,-3.0889,-3.0889,-3.0889,-3.0889,-3.0537,-3.0215,-3.0215,-3.0234,-3.0381,-3.083,-3.1601,-3.2295,-3.2734,-3.2793,-3.2949,-3.3369,-3.3418,-3.3418,-3.3418,-3.3418,-3.3418,-3.3418,-3.3418,-3.3418,-3.3418,-3.3418,-3.3418,-3.3418,-3.3418,-3.3165,-3.2921,-3.2921,-3.2667,-3.2422,-3.2838,-3.3245,-3.3643,-3.2855,-3.2682,-3.0444,-3.0457,-3.0394,-3.0088,-2.9935,-2.9859,-2.958,-2.9365,-2.9114,-2.8725,-2.8499,-2.8147,-2.7419,-2.713,-2.6816,-2.6264,-2.6395,-2.6269,0.0,-2.5485,-2.5598,-2.5598,-2.6101,-2.6314,-2.5925,-2.5398,-2.5084,-2.5084,-2.5084,-2.5234,-2.5573,-2.6151,-2.6533,-2.6533,-2.6533,-2.6798,-2.7268,-2.7645,-2.8197,-2.8938,-2.9315,-2.9603,-2.9792,-2.9792,-2.9792,-2.9792,-2.9792,-2.9456,-2.8961,-2.8633,-2.7637,-2.6257,-2.6089,-2.5968,-2.5958,-2.6579,-2.7096,-2.7614,-2.8535,-2.8737,-2.8629,-2.8196,-2.7845,-2.7637,-2.749,-2.7949,-2.8701,-2.9541,-3.0098,-3.0508,-3.081,-3.0889,-3.0889,-3.0889,-3.0889,-3.0889,-3.0889,-3.0771,-3.0654,-3.0654,-3.04,-3.0342,-3.081,-3.0879,-3.1299,-3.2598,-3.2793,-3.2949,-3.3369,-3.3418,-3.3418,-3.3418,-3.3418,-3.3418,-3.3418,-3.3418,-3.3418,-3.3418,-3.3418,-3.3418,-3.3418,-3.3418,-3.3292,-3.3165,-3.3165,-3.3048,-3.2667,-3.3225,-3.3516,-3.3671,-3.3669,-3.3755,-3.0533,-3.0609,-3.0622,-3.0305,-3.0292,-3.0292,-3.0011,-2.9934,-2.9756,-2.9315,-2.9076,-2.8712,-2.7996,-2.7544,-2.7168,-2.6816,-2.659,-2.6264,0.0,-2.5598,-2.5598,-2.5598,-2.6101,-2.6382,-2.5937,-2.5247,-2.4895,-2.5084,-2.4921,-2.5046,-2.5573,-2.6151,-2.6533,-2.6533,-2.6722,-2.7017,-2.757,-2.8122,-2.8687,-2.9239,-2.9616,-2.9792,-2.9792,-2.9792,-2.9792,-2.9792,-2.9792,-2.9456,-2.8961,-2.8961,-2.8131,-2.673,-2.64,-2.6334,-2.6357,-2.6389,-2.6817,-2.7583,-2.8162,-2.8379,-2.8278,-2.7844,-2.7391,-2.7104,-2.7012,-2.7422,-2.8125,-2.9248,-2.9873,-3.0303,-3.0771,-3.0889,-3.0889,-3.0889,-3.0889,-3.0889,-3.0889,-3.0889,-3.084,-3.0674,-3.04,-3.0293,-3.0596,-3.0537,-3.0879,-3.2148,-3.2471,-3.2725,-3.3144,-3.333,-3.3418,-3.3418,-3.3418,-3.3418,-3.3418,-3.3418,-3.3418,-3.3418,-3.3418,-3.3418,-3.3418,-3.3418,-3.3496,-3.3652,-3.3496,-3.3447,-3.3492,-3.3902,-3.4129,-3.4298,-3.4576,-3.4793]},{"header":{"parameterUnit":"m.s-1","parameterCategory":1,"la1":30.6,"la2":29.2853,"lo1":-89.7004,"lo2":-87.6739,"dy":0.0162,"dx":0.0183,"nx":112,"ny":82,"refTime":"2023-06-14T06:00:00:Z","depth":0,"parameterNumber":3,"parameterNumberName":"V-component_of_WINDS"},"data":[0.0,0.0,0.0,0.0,0.0,0.0,0.0,0.0,0.0,0.0,0.0,0.0,0.0,0.0,0.0,0.0,0.0,0.0,0.0,0.0,0.0,0.0,0.0,0.0,0.0,0.0,0.0,0.0,0.0,0.0,0.0,0.0,0.0,0.0,0.0,0.0,0.0,0.0,0.0,0.0,0.0,0.0,0.0,0.0,0.0,0.0,0.0,0.0,0.0,0.0,0.0,0.0,0.0,0.0,0.0,0.0,0.0,0.0,0.0,0.0,0.0,0.0,0.0,0.0,0.0,0.0,0.0,0.0,0.0,0.0,0.0,0.0,0.0,0.0,0.0,0.0,0.0,0.0,0.0,0.0,0.0,0.0,0.0,0.0,0.0,0.0,0.0,0.0,0.0,0.0,-3.1213,-3.5187,-4.1169,-4.4949,-4.5085,-4.4052,-4.1364,-3.6596,0.0,0.0,0.0,0.0,0.0,0.0,0.0,0.0,0.0,0.0,0.0,0.0,0.0,0.0,0.0,0.0,0.0,0.0,0.0,0.0,0.0,0.0,0.0,0.0,0.0,0.0,0.0,0.0,0.0,0.0,0.0,0.0,0.0,0.0,0.0,0.0,0.0,0.0,0.0,0.0,0.0,0.0,0.0,0.0,0.0,0.0,0.0,0.0,0.0,0.0,0.0,0.0,0.0,0.0,0.0,0.0,0.0,0.0,0.0,0.0,0.0,0.0,0.0,0.0,0.0,0.0,0.0,0.0,0.0,0.0,0.0,0.0,0.0,0.0,0.0,0.0,0.0,0.0,0.0,0.0,0.0,0.0,0.0,0.0,0.0,0.0,0.0,0.0,0.0,0.0,0.0,0.0,0.0,0.0,0.0,0.0,0.0,0.0,0.0,0.0,0.0,0.0,0.0,0.0,-3.3039,-3.9435,-4.2981,-4.5202,-4.5942,-4.3858,-4.1247,-3.8283,0.0,0.0,0.0,0.0,0.0,0.0,0.0,0.0,0.0,0.0,0.0,0.0,0.0,0.0,0.0,0.0,0.0,0.0,0.0,0.0,0.0,0.0,0.0,0.0,0.0,0.0,0.0,0.0,0.0,0.0,0.0,0.0,0.0,0.0,0.0,0.0,0.0,0.0,0.0,0.0,0.0,0.0,0.0,0.0,0.0,0.0,0.0,0.0,0.0,0.0,0.0,0.0,0.0,0.0,0.0,0.0,0.0,0.0,0.0,0.0,0.0,0.0,0.0,0.0,0.0,0.0,0.0,0.0,0.0,0.0,0.0,0.0,0.0,0.0,0.0,0.0,0.0,0.0,0.0,0.0,0.0,0.0,0.0,0.0,0.0,0.0,0.0,0.0,0.0,0.0,0.0,0.0,0.0,0.0,0.0,0.0,0.0,0.0,0.0,0.0,0.0,0.0,0.0,-3.2265,-3.5499,-4.0565,-4.3799,-4.5377,-4.4832,-4.2864,-4.0552,-3.7951,-3.5398,0.0,0.0,0.0,0.0,0.0,0.0,0.0,0.0,0.0,0.0,0.0,0.0,0.0,0.0,0.0,0.0,0.0,0.0,0.0,0.0,0.0,0.0,0.0,0.0,0.0,0.0,0.0,0.0,0.0,0.0,0.0,0.0,0.0,0.0,0.0,0.0,0.0,0.0,0.0,0.0,0.0,0.0,0.0,0.0,0.0,0.0,0.0,0.0,0.0,0.0,0.0,0.0,0.0,0.0,0.0,0.0,0.0,0.0,0.0,0.0,0.0,0.0,0.0,0.0,0.0,0.0,0.0,0.0,0.0,0.0,0.0,0.0,0.0,0.0,0.0,0.0,0.0,0.0,0.0,0.0,0.0,0.0,0.0,0.0,0.0,0.0,0.0,0.0,0.0,0.0,0.0,0.0,0.0,0.0,0.0,0.0,0.0,0.0,0.0,0.0,0.0,0.0,-3.5226,-3.7759,-4.1033,-4.3897,-4.5046,-4.3721,-4.189,-3.9772,-3.7352,-3.4818,0.0,0.0,0.0,0.0,0.0,0.0,0.0,0.0,0.0,0.0,0.0,0.0,0.0,0.0,0.0,0.0,0.0,0.0,0.0,0.0,0.0,0.0,0.0,0.0,0.0,0.0,0.0,0.0,0.0,0.0,0.0,0.0,0.0,0.0,0.0,0.0,0.0,0.0,0.0,0.0,0.0,0.0,0.0,0.0,0.0,0.0,0.0,0.0,0.0,0.0,0.0,0.0,0.0,0.0,0.0,0.0,0.0,0.0,0.0,0.0,0.0,0.0,0.0,0.0,0.0,0.0,0.0,0.0,0.0,0.0,0.0,0.0,0.0,0.0,0.0,0.0,0.0,0.0,0.0,0.0,0.0,0.0,0.0,0.0,0.0,0.0,0.0,0.0,0.0,0.0,0.0,0.0,0.0,0.0,0.0,0.0,0.0,0.0,0.0,0.0,0.0,0.0,-3.6279,-3.9318,-4.1948,-4.3156,-4.3741,-4.3598,-4.1325,-3.911,-3.7303,-3.4811,0.0,0.0,0.0,0.0,0.0,0.0,0.0,0.0,0.0,0.0,0.0,0.0,0.0,0.0,0.0,0.0,0.0,0.0,0.0,0.0,0.0,0.0,0.0,0.0,0.0,0.0,0.0,0.0,0.0,0.0,0.0,0.0,0.0,0.0,0.0,0.0,0.0,0.0,0.0,0.0,0.0,0.0,0.0,0.0,0.0,0.0,0.0,0.0,0.0,0.0,0.0,0.0,0.0,0.0,0.0,0.0,0.0,0.0,0.0,0.0,0.0,0.0,0.0,0.0,0.0,0.0,0.0,0.0,0.0,0.0,0.0,0.0,0.0,0.0,0.0,0.0,0.0,0.0,0.0,0.0,0.0,0.0,0.0,0.0,0.0,0.0,0.0,0.0,0.0,0.0,0.0,0.0,0.0,0.0,0.0,0.0,0.0,0.0,0.0,0.0,0.0,0.0,-3.5908,-3.8675,-4.1286,-4.2786,-4.3176,-4.2124,-4.0162,-3.8263,-3.6562,0.0,0.0,0.0,0.0,0.0,0.0,0.0,0.0,0.0,0.0,0.0,0.0,0.0,0.0,0.0,0.0,0.0,0.0,0.0,0.0,0.0,0.0,0.0,0.0,0.0,0.0,0.0,0.0,0.0,0.0,0.0,0.0,0.0,0.0,0.0,0.0,0.0,0.0,0.0,0.0,0.0,0.0,0.0,0.0,0.0,0.0,0.0,0.0,0.0,0.0,0.0,0.0,0.0,0.0,0.0,0.0,0.0,0.0,0.0,0.0,0.0,0.0,0.0,0.0,0.0,0.0,0.0,0.0,0.0,0.0,0.0,0.0,0.0,0.0,0.0,0.0,0.0,0.0,0.0,0.0,0.0,0.0,0.0,0.0,0.0,0.0,0.0,0.0,0.0,0.0,0.0,0.0,0.0,0.0,0.0,0.0,0.0,0.0,0.0,0.0,0.0,0.0,-3.3412,-3.6248,-3.8811,-4.0877,-4.2124,-4.2241,-4.0818,-3.8842,-3.7074,-3.5646,0.0,0.0,0.0,0.0,0.0,0.0,0.0,0.0,0.0,0.0,0.0,0.0,0.0,0.0,0.0,0.0,0.0,0.0,0.0,0.0,0.0,0.0,0.0,0.0,0.0,0.0,0.0,0.0,0.0,0.0,0.0,0.0,0.0,0.0,0.0,0.0,0.0,0.0,0.0,0.0,0.0,0.0,0.0,0.0,0.0,0.0,0.0,0.0,0.0,0.0,0.0,0.0,0.0,0.0,0.0,0.0,0.0,0.0,0.0,0.0,0.0,0.0,0.0,0.0,0.0,0.0,0.0,0.0,0.0,0.0,0.0,0.0,0.0,0.0,0.0,0.0,0.0,0.0,0.0,0.0,0.0,0.0,0.0,0.0,0.0,0.0,0.0,0.0,0.0,0.0,0.0,0.0,0.0,0.0,0.0,0.0,0.0,0.0,0.0,0.0,0.0,0.0,-3.4396,-3.7585,-4.0111,-4.1007,-4.1104,-4.0734,-3.9857,-3.742,-3.5538,0.0,0.0,0.0,0.0,0.0,0.0,0.0,0.0,0.0,0.0,0.0,0.0,0.0,0.0,0.0,0.0,0.0,0.0,0.0,0.0,0.0,0.0,0.0,0.0,0.0,0.0,0.0,0.0,0.0,0.0,0.0,0.0,0.0,0.0,0.0,0.0,0.0,0.0,0.0,0.0,0.0,0.0,0.0,0.0,0.0,0.0,0.0,0.0,0.0,0.0,0.0,0.0,0.0,0.0,0.0,0.0,0.0,0.0,0.0,0.0,0.0,0.0,0.0,0.0,0.0,0.0,0.0,0.0,0.0,0.0,0.0,0.0,0.0,0.0,0.0,0.0,0.0,0.0,0.0,0.0,0.0,0.0,0.0,0.0,0.0,0.0,0.0,0.0,0.0,0.0,0.0,0.0,0.0,0.0,0.0,0.0,0.0,0.0,0.0,0.0,0.0,0.0,0.0,-3.4237,-3.6861,-3.9169,-4.0673,-4.0819,-4.048,-3.9656,-3.78,-3.6293,-3.5422,0.0,0.0,0.0,0.0,0.0,0.0,0.0,0.0,0.0,0.0,0.0,0.0,0.0,0.0,0.0,0.0,0.0,0.0,0.0,0.0,0.0,0.0,0.0,0.0,0.0,0.0,0.0,0.0,0.0,0.0,0.0,0.0,0.0,0.0,0.0,0.0,0.0,0.0,0.0,0.0,0.0,0.0,0.0,0.0,0.0,0.0,0.0,0.0,0.0,0.0,0.0,0.0,0.0,0.0,0.0,0.0,0.0,0.0,0.0,0.0,0.0,0.0,0.0,0.0,0.0,0.0,0.0,0.0,0.0,0.0,0.0,0.0,0.0,0.0,0.0,0.0,0.0,0.0,0.0,0.0,0.0,0.0,0.0,0.0,0.0,0.0,0.0,0.0,0.0,0.0,0.0,0.0,0.0,0.0,0.0,0.0,0.0,0.0,0.0,0.0,0.0,0.0,-3.4622,-3.734,-3.9533,-4.0597,-4.0996,-4.0699,-3.9561,-3.7927,-3.6581,-3.5728,0.0,0.0,0.0,0.0,0.0,0.0,0.0,0.0,0.0,0.0,0.0,0.0,0.0,0.0,0.0,0.0,0.0,0.0,0.0,0.0,0.0,0.0,0.0,0.0,0.0,0.0,0.0,0.0,0.0,0.0,0.0,0.0,0.0,0.0,0.0,0.0,0.0,0.0,0.0,0.0,0.0,0.0,0.0,0.0,0.0,0.0,0.0,0.0,0.0,0.0,0.0,0.0,0.0,0.0,0.0,0.0,0.0,0.0,0.0,0.0,0.0,0.0,0.0,0.0,0.0,0.0,0.0,0.0,0.0,0.0,0.0,0.0,0.0,0.0,0.0,0.0,0.0,0.0,0.0,0.0,0.0,0.0,0.0,0.0,0.0,0.0,0.0,0.0,0.0,0.0,0.0,0.0,0.0,0.0,0.0,0.0,0.0,0.0,0.0,0.0,0.0,0.0,-3.5303,-3.8479,-4.0655,-4.0655,-4.139,-4.1196,-3.9514,-3.7912,-3.6624,-3.5763,0.0,0.0,0.0,0.0,0.0,0.0,0.0,0.0,0.0,0.0,0.0,0.0,0.0,0.0,0.0,0.0,0.0,0.0,0.0,0.0,0.0,0.0,0.0,0.0,0.0,0.0,0.0,0.0,0.0,0.0,0.0,0.0,0.0,0.0,0.0,0.0,0.0,0.0,0.0,0.0,0.0,0.0,0.0,0.0,0.0,0.0,0.0,0.0,0.0,0.0,0.0,0.0,0.0,0.0,0.0,0.0,0.0,0.0,0.0,0.0,-2.9223,-2.8446,0.0,0.0,0.0,0.0,0.0,0.0,0.0,0.0,0.0,0.0,0.0,0.0,0.0,0.0,0.0,0.0,0.0,0.0,0.0,0.0,0.0,0.0,0.0,0.0,0.0,0.0,0.0,0.0,0.0,0.0,0.0,0.0,0.0,0.0,0.0,0.0,0.0,0.0,0.0,0.0,-3.5301,-3.8319,-4.0398,-4.0398,-4.1144,-4.1006,-3.9317,-3.8266,-3.7334,-3.6512,-3.5577,0.0,0.0,0.0,0.0,0.0,0.0,0.0,0.0,0.0,0.0,0.0,0.0,0.0,0.0,0.0,0.0,0.0,0.0,0.0,0.0,0.0,0.0,0.0,0.0,0.0,0.0,0.0,0.0,0.0,0.0,0.0,0.0,0.0,0.0,0.0,0.0,0.0,0.0,0.0,0.0,0.0,0.0,0.0,0.0,0.0,0.0,0.0,0.0,0.0,0.0,0.0,0.0,0.0,0.0,0.0,0.0,0.0,0.0,0.0,-3.2179,-3.0871,0.0,0.0,0.0,0.0,0.0,0.0,0.0,0.0,0.0,0.0,0.0,0.0,0.0,0.0,0.0,0.0,0.0,0.0,0.0,0.0,0.0,0.0,0.0,0.0,0.0,0.0,0.0,0.0,0.0,0.0,0.0,0.0,0.0,0.0,0.0,0.0,0.0,0.0,0.0,0.0,-3.5703,-3.8489,-4.0309,-4.0309,-4.1436,-4.1549,-3.9917,-3.901,-3.8178,-3.7382,-3.6562,0.0,0.0,0.0,0.0,0.0,0.0,0.0,0.0,0.0,0.0,0.0,0.0,0.0,0.0,0.0,0.0,0.0,0.0,0.0,0.0,0.0,0.0,0.0,0.0,0.0,0.0,0.0,0.0,0.0,0.0,0.0,0.0,0.0,0.0,0.0,0.0,0.0,0.0,0.0,0.0,0.0,0.0,0.0,0.0,0.0,0.0,0.0,0.0,0.0,0.0,0.0,0.0,0.0,-3.6154,-3.7409,-3.8073,-3.8205,-3.8357,-3.8397,-3.6349,-3.4548,-3.3069,-3.2936,0.0,0.0,0.0,0.0,0.0,0.0,0.0,0.0,0.0,0.0,0.0,0.0,0.0,0.0,0.0,0.0,0.0,0.0,0.0,0.0,0.0,0.0,-3.7292,-3.7808,-3.9145,-3.9164,-3.4926,0.0,0.0,0.0,0.0,0.0,0.0,0.0,0.0,0.0,0.0,0.0,-3.6432,-3.9066,-4.0747,-4.0747,-4.218,-4.2466,-4.085,-3.9925,-3.9077,-3.8262,-3.7411,-3.693,0.0,0.0,0.0,0.0,0.0,0.0,0.0,0.0,0.0,0.0,0.0,0.0,0.0,0.0,0.0,0.0,0.0,0.0,0.0,0.0,0.0,0.0,0.0,0.0,0.0,0.0,0.0,0.0,0.0,0.0,0.0,0.0,-2.8478,-2.8587,0.0,0.0,0.0,0.0,0.0,0.0,0.0,0.0,0.0,0.0,0.0,0.0,0.0,-3.4586,-3.6156,-3.7234,-3.786,-3.8014,-3.9719,-4.0612,-4.0726,-4.1427,-4.2189,-4.294,-4.2617,0.0,-3.5742,-3.4982,0.0,0.0,0.0,0.0,0.0,0.0,0.0,0.0,0.0,0.0,0.0,0.0,0.0,0.0,0.0,0.0,0.0,0.0,0.0,0.0,0.0,0.0,-3.9642,-3.8973,-3.9584,-4.0119,-3.9451,-3.8113,-3.6623,-3.5168,-3.4327,-3.3811,0.0,0.0,0.0,0.0,0.0,0.0,-3.7406,-4.0442,-4.247,-4.247,-4.3407,-4.3349,-4.1679,-4.0811,-3.9964,-3.91,-3.8281,-3.7834,-3.7834,-3.7834,0.0,0.0,0.0,0.0,0.0,0.0,0.0,0.0,0.0,0.0,0.0,0.0,0.0,0.0,0.0,0.0,0.0,0.0,0.0,0.0,0.0,0.0,0.0,0.0,0.0,0.0,0.0,0.0,0.0,-2.9391,-2.9608,-2.8696,-2.9409,-2.959,0.0,0.0,0.0,0.0,0.0,0.0,0.0,0.0,0.0,-3.5366,-3.6205,-3.7377,-3.8952,-4.0289,-4.1274,-4.1982,-4.335,-4.4134,-4.4414,-4.4953,-4.5357,-4.564,-4.6304,-4.4867,-4.185,-3.9546,-3.7566,-3.5964,0.0,0.0,0.0,0.0,-3.6148,-3.6279,-3.7712,-3.7922,-3.7578,-3.7827,0.0,0.0,0.0,0.0,0.0,0.0,0.0,-3.8037,-3.8591,-4.0559,-4.2412,-4.2507,-4.3558,-4.4265,-4.331,-4.2125,-4.0482,-3.7846,-3.6661,-3.5783,-3.4846,-3.3987,0.0,0.0,0.0,-3.7139,-3.8932,-4.132,-4.287,-4.2907,-4.371,-4.3784,-4.2593,-4.2168,-4.1591,-4.0726,-3.9858,-3.9411,-3.9411,-3.8969,-3.8931,0.0,0.0,0.0,0.0,0.0,0.0,0.0,0.0,0.0,0.0,0.0,0.0,0.0,0.0,0.0,0.0,0.0,0.0,0.0,0.0,0.0,0.0,0.0,0.0,0.0,0.0,0.0,0.0,-3.017,-3.0622,-2.883,-3.0387,-3.0894,0.0,0.0,0.0,0.0,0.0,0.0,-3.4262,-3.5276,-3.6744,-3.8797,-3.9513,-4.0646,-4.2365,-4.3602,-4.478,-4.5873,-4.6751,-4.7427,-4.8022,-4.8472,-4.8595,-4.8514,-4.9409,-4.8969,-4.7405,-4.429,-4.1549,-3.9299,-3.9299,-3.9203,-3.9088,-3.9737,-3.9699,-3.9584,-4.1476,-4.1609,-4.0903,-4.0673,-4.0769,-4.0463,-3.7922,0.0,0.0,0.0,0.0,-4.0616,-4.2087,-4.373,-4.5144,-4.5793,-4.7054,-4.7742,-4.6252,-4.543,-4.3921,-4.0329,-3.8954,-3.798,-3.6719,-3.6012,0.0,-3.6413,-3.7234,-3.8551,-4.0672,-4.2277,-4.3329,-4.3576,-4.4224,-4.4297,-4.347,-4.3412,-4.3047,-4.22,-4.1316,-4.0931,-4.1162,-4.0373,-4.0335,-4.1143,0.0,0.0,0.0,0.0,0.0,0.0,0.0,0.0,0.0,0.0,0.0,0.0,0.0,0.0,0.0,0.0,0.0,0.0,0.0,0.0,0.0,0.0,0.0,0.0,0.0,0.0,0.0,0.0,0.0,-2.8876,-3.1383,0.0,0.0,0.0,0.0,-3.3212,-3.5367,-3.6739,-3.6798,-3.8301,-4.0359,-4.2986,-4.3848,-4.555,-4.8248,-4.8359,-4.882,-4.9635,-4.9691,-5.0155,-5.099,-5.177,-5.2251,-5.2414,-5.2487,-5.1855,-5.061,-4.8319,-4.5919,-4.3671,-4.3671,-4.3233,-4.2545,-4.2584,-4.3061,-4.3711,-4.3845,-4.3348,-4.2928,-4.4475,-4.394,-4.2641,-4.2469,-4.1877,0.0,0.0,-4.2488,-4.3959,-4.4876,-4.6347,-4.7627,-4.7665,-4.8372,-4.8774,-4.7876,-4.7646,-4.6366,-4.2183,-4.0731,-4.0138,-4.0062,0.0,-4.0005,-4.0043,-4.0731,-4.159,-4.2545,-4.3542,-4.4422,-4.5189,-4.5417,-4.5182,-4.4316,-4.4239,-4.3893,-4.3085,-4.222,-4.2104,-4.2931,-4.2143,-4.2085,-4.2951,-4.297,0.0,0.0,0.0,0.0,0.0,0.0,0.0,0.0,0.0,0.0,0.0,0.0,0.0,0.0,0.0,0.0,0.0,0.0,0.0,0.0,0.0,0.0,0.0,0.0,0.0,0.0,0.0,0.0,-3.3357,-3.6055,0.0,-3.5385,-3.5965,-3.6888,-3.7902,-3.926,-4.0709,-4.2248,-4.3371,-4.4898,-4.6888,-4.7215,-4.82,-4.9912,-4.9912,-5.0174,-5.0731,-5.1015,-5.1338,-5.1745,-5.2546,-5.3028,-5.3274,-5.4303,-5.4258,-5.3394,-5.2863,-5.0202,-4.65,-4.7054,-4.6768,-4.6156,-4.7226,-4.7474,-4.736,-4.7876,-4.7876,-4.7646,-4.7723,-4.6233,-4.4513,-4.5029,-4.4208,-4.3463,-4.5086,-4.5583,-4.6061,-4.8009,-4.8582,-4.8774,-4.9289,-4.9652,-4.9652,-4.8812,-4.82,-4.736,-4.5851,-4.3997,-4.2679,-4.2679,-4.1361,-4.0673,-4.1762,-4.2145,-4.2661,-4.358,-4.448,-4.515,-4.5494,-4.5568,-4.547,-4.5163,-4.5143,-4.5009,-4.472,-4.3893,-4.3547,-4.3855,-4.3085,-4.2777,-4.3085,-4.3104,-4.3104,0.0,0.0,0.0,0.0,0.0,0.0,0.0,0.0,0.0,0.0,0.0,0.0,0.0,0.0,0.0,0.0,0.0,0.0,0.0,0.0,0.0,0.0,0.0,0.0,0.0,-3.5331,-3.7015,-3.7015,-3.9804,-4.1107,-3.9532,-4.0111,-4.1017,-4.2049,-4.3389,-4.4965,-4.6812,-4.7409,-4.846,-5.0071,-4.9854,-5.033,-5.1633,-5.1651,-5.1778,-5.2048,-5.2305,-5.2336,-5.22,-5.3008,-5.3493,-5.3709,-5.4801,-5.5109,-5.4839,-5.4655,-5.2471,-4.9338,-4.9759,-4.9404,-4.8812,-5.0225,-5.0225,-4.9576,-5.0111,-5.0493,-5.0646,-5.0111,-4.8602,-4.7092,-4.7627,-4.7016,-4.6481,-4.8181,-4.8449,-4.8678,-5.0627,-5.0971,-5.0837,-5.1085,-5.1142,-5.0913,-5.0111,-4.927,-4.864,-4.864,-4.6596,-4.4953,-4.5239,-4.3921,-4.3119,-4.394,-4.4037,-4.4172,-4.4537,-4.5112,-4.5495,-4.5513,-4.5568,-4.5586,-4.5586,-4.5586,-4.5586,-4.5586,-4.4778,-4.4432,-4.472,-4.3932,-4.3643,-4.3932,-4.3932,-4.3932,-4.3932,0.0,0.0,0.0,0.0,0.0,0.0,0.0,0.0,0.0,0.0,0.0,0.0,0.0,0.0,0.0,0.0,0.0,0.0,0.0,0.0,0.0,0.0,0.0,-3.4932,-3.7558,-3.9568,-3.9641,-4.2393,-4.3679,-4.2122,-4.4095,-4.5454,-4.549,-4.7663,-4.9347,-5.0162,-5.0198,-5.0923,-5.2516,-5.181,-5.2154,-5.3729,-5.3748,-5.3748,-5.3748,-5.3711,-5.3295,-5.2589,-5.3396,-5.3862,-5.4027,-5.4045,-5.4424,-5.4851,-5.3564,-5.2749,-5.221,-5.1802,-5.1104,-5.0455,-5.1353,-5.1162,-5.0455,-5.0436,-5.099,-5.1735,-5.1735,-5.1142,-5.0417,-5.0417,-5.0397,-5.0378,-5.0417,-5.1009,-5.183,-5.2633,-5.3435,-5.3817,-5.2996,-5.2785,-5.2556,-5.1773,-5.0932,-5.0302,-5.0302,-4.8296,-4.6863,-4.7742,-4.7818,-4.7494,-4.6672,-4.65,0.0,-4.5392,-4.538,-4.5438,-4.5438,-4.5551,-4.5643,-4.5624,-4.5605,-4.5586,-4.5586,-4.4797,-4.4701,-4.5528,-4.4759,-4.4739,-4.5566,-4.5586,-4.5586,-4.5586,0.0,0.0,0.0,0.0,0.0,0.0,0.0,0.0,0.0,0.0,0.0,0.0,0.0,0.0,0.0,0.0,0.0,0.0,0.0,0.0,0.0,-3.7812,-3.9351,-3.9713,-4.1506,-4.3462,-4.5218,-4.721,-4.8261,-4.7826,-4.8387,-4.9003,-4.9601,-5.0271,-5.1249,-5.2643,-5.2715,-5.3186,-5.4218,-5.4037,-5.4128,-5.4581,-5.4581,-5.4581,-5.4562,-5.4282,-5.4237,-5.4446,-5.4386,-5.4638,-5.52,-5.5465,-5.5695,-5.5747,-5.446,-5.386,-5.3634,-5.2791,-5.1964,-5.1429,-5.2881,-5.3664,-5.3913,-5.3263,-5.3626,-5.4371,-5.4371,-5.3779,-5.3053,-5.3053,-5.2614,-5.2231,-5.2881,-5.2766,-5.2671,-5.3511,-5.3015,-5.2365,-5.2709,-5.2346,-5.1868,-5.1658,-5.0932,-5.0302,-5.0302,-4.9251,-4.864,-4.948,-4.8086,-4.6997,-4.7379,-4.6466,-4.5626,-4.5397,-4.5936,-4.6359,-4.6417,-4.6455,-4.6492,-4.6547,-4.5951,-4.5586,-4.5586,-4.5374,-4.5066,-4.4662,-4.5028,-4.5355,-4.5586,-4.5586,-4.5586,0.0,0.0,0.0,0.0,0.0,0.0,0.0,0.0,0.0,0.0,0.0,0.0,0.0,0.0,0.0,0.0,0.0,0.0,0.0,0.0,0.0,0.0,-4.1759,-4.4168,-4.5979,-4.587,-4.6504,-4.8931,-5.0325,-5.123,-5.1574,-5.19,-5.2299,-5.277,-5.2806,-5.3349,-5.4599,-5.4363,-5.4562,-5.5341,-5.507,-5.5051,-5.5359,-5.5051,-5.507,-5.5341,-5.481,-5.4729,-5.5073,-5.4865,-5.499,-5.544,-5.5754,-5.6066,-5.6353,-5.5062,-5.4557,-5.4406,0.0,0.0,0.0,0.0,-5.3817,-5.4734,-5.3855,-5.4371,-5.5403,-5.5403,-5.5059,-5.4581,-5.4218,-5.3741,-5.3454,-5.3951,-5.3741,-5.355,-5.4428,-5.3932,-5.332,-5.3779,-5.3244,-5.2652,-5.2652,-5.1964,-5.1353,-5.1353,-5.0703,0.0,-5.076,-4.9041,-4.7646,-4.778,-4.6694,-4.5721,-4.5416,-4.6147,-4.6704,-4.6743,-4.7108,-4.7222,-4.6932,-4.6105,0.0,0.0,0.0,-4.4989,-4.4855,-4.5316,0.0,0.0,0.0,-4.5586,-4.5586,-4.5586,0.0,0.0,-4.5355,-4.5316,0.0,0.0,0.0,0.0,0.0,0.0,0.0,0.0,0.0,0.0,0.0,0.0,0.0,0.0,0.0,0.0,-4.6196,-4.9329,-5.2462,-5.0361,-4.9311,-5.1448,-5.2335,-5.3041,-5.3766,-5.449,-5.4907,-5.4907,-5.4907,-5.5214,-5.5957,-5.5377,0.0,0.0,0.0,-5.5432,-5.5975,-5.5432,-5.5395,-5.5866,-5.5214,-5.4907,-5.4888,-5.4887,-5.4982,-5.5259,-5.535,-5.5907,-5.6591,-5.5355,-5.4756,-5.4463,-5.2975,-5.2323,-5.2201,-5.1877,-5.2686,-5.3894,-5.3086,0.0,0.0,-5.5332,-5.5332,-5.5198,-5.4486,-5.418,-5.4123,-5.4218,-5.418,-5.4276,-5.5059,-5.525,-5.525,-5.525,-5.4658,-5.4123,-5.4237,-5.355,-5.2919,-5.2824,-5.2212,-5.1677,-5.1486,-5.013,-4.8793,-4.7933,-4.7073,-4.6214,-4.5392,-4.6106,-4.6684,-4.6704,-4.753,0.0,-4.6971,-4.6182,-4.5701,-4.5605,-4.4778,-4.4682,-4.5547,-4.5509,-4.549,-4.5586,-4.5701,-4.574,-4.574,-4.5836,-4.5874,-4.5874,-4.5682,-4.5586,0.0,0.0,0.0,0.0,0.0,0.0,0.0,0.0,0.0,0.0,0.0,0.0,0.0,0.0,0.0,-4.7355,-4.9908,-5.2444,-5.4961,-5.4273,-5.3693,-5.4146,-5.4345,-5.4508,-5.4653,-5.4816,-5.4907,-5.4907,-5.4907,-5.5214,-5.5957,-5.5848,-5.6138,-5.6935,-5.6826,-5.65,-5.5993,-5.65,-5.6192,-5.5106,-5.4979,0.0,-5.496,-5.4335,-5.4528,-5.535,-5.5395,-5.5577,-5.5739,-5.4853,-5.3887,-5.2958,-5.2881,-5.2446,-5.197,-5.2523,-5.2969,-5.3264,-5.3044,-5.3647,-5.4546,-5.4825,-5.4933,-5.4943,-5.5096,-5.4658,0.0,-5.4963,-5.4639,-5.4142,-5.4314,-5.4352,-5.4352,-5.4352,-5.4218,-5.4295,-5.5002,-5.4467,-5.3645,-5.2938,-5.2671,-5.2136,-5.0779,-4.9729,-4.8793,-4.7933,-4.7073,-4.6214,-4.5392,-4.6025,-4.6583,-4.6684,-4.7491,-4.7722,-4.6952,-4.6759,-4.6355,-4.5624,-4.4778,-4.4682,-4.5547,-4.4913,-4.4874,-4.5586,-4.6297,-4.6644,-4.6644,-4.7298,-4.7625,-4.7586,-4.622,-4.5586,0.0,0.0,0.0,0.0,0.0,0.0,0.0,0.0,0.0,0.0,0.0,-4.2828,-4.4421,0.0,-4.9202,-5.2009,-5.3802,-5.554,-5.7514,-5.7134,-5.6355,-5.554,-5.545,-5.545,-5.545,-5.6174,-5.6645,-5.6645,-5.6645,-5.6808,-5.717,-5.6808,-5.6772,-5.7188,-5.7188,-5.7007,-5.6591,-5.6989,-5.6609,-5.545,-5.545,-5.548,-5.5493,-5.5123,-5.5538,-5.6492,-5.6584,-5.6475,-5.6106,-5.4895,-5.3792,-5.2816,-5.2604,-5.1966,-5.1292,-5.2118,-5.2175,-5.1963,-5.2738,-5.332,-5.3785,-5.4363,-5.4654,-5.4855,-5.5038,-5.465,-5.4199,-5.4639,-5.4123,-5.3454,-5.3454,-5.376,-5.4104,-5.4104,-5.4428,-5.4868,-5.5307,-5.5059,-5.4619,-5.4199,-5.3741,-5.3187,-5.2346,-5.1505,-5.0512,-4.9251,-4.7971,-4.715,-4.7193,-4.7578,-4.7737,-4.7434,-4.8164,-4.8375,-4.7586,-4.7144,-4.6336,-4.5028,-4.4951,-4.5143,-4.5566,-4.5182,-4.5355,-4.622,-4.6682,-4.7105,-4.7509,-4.7894,-4.8105,-4.8086,-4.724,-4.6855,0.0,0.0,0.0,0.0,0.0,0.0,0.0,0.0,-4.0596,-4.284,-4.5128,-4.7337,-4.9456,-5.1267,-5.3367,-5.6228,-5.7243,-5.8166,-5.9633,-5.9017,-5.7913,-5.6609,-5.6464,-5.6464,-5.6464,-5.7641,-5.8402,-5.8402,-5.8257,-5.8239,-5.8402,-5.7641,-5.7261,-5.7424,-5.7424,-5.7279,-5.6971,-5.7279,-5.688,-5.5776,-5.5776,-5.5848,-5.5993,-5.5946,-5.6546,-5.7601,-5.7745,-5.7399,-5.6648,-5.5225,-5.4161,-5.3353,-5.2546,-5.1694,-5.0927,-5.1432,-5.1208,-5.0833,-5.2276,-5.2947,-5.3243,-5.3952,-5.4345,-5.4604,-5.4685,-5.4211,-5.372,-5.4063,-5.3415,-5.2691,-5.3015,-5.3625,-5.4158,-5.4211,-5.4771,-5.5286,-5.5377,-5.5403,-5.5345,-5.5193,-5.4715,-5.4256,-5.3913,-5.3416,-5.2422,-5.0588,-4.9289,-4.8659,-4.9051,-4.9133,-4.8947,-4.8355,-4.8913,-4.9067,-4.8394,-4.7587,-4.6528,-4.5124,-4.5701,-4.6086,-4.6086,-4.6086,-4.6413,-4.7124,-4.7298,-4.7702,-4.8355,-4.8529,-4.8606,-4.8606,-4.8606,-4.8413,-3.4218,-3.4861,-3.5644,-3.5899,-3.683,-3.8888,0.0,0.0,-4.5273,-4.8511,-5.0506,-5.1991,-5.2987,-5.5015,-5.7116,-5.8909,-5.9271,-5.9651,-6.0557,-5.9361,-5.8329,-5.8148,-5.813,-5.813,-5.813,-5.8293,-5.8402,-5.8402,-5.7732,-5.7641,-5.8365,-5.7641,-5.7532,-5.8239,-5.8275,-5.7587,-5.6138,-5.755,-5.717,-5.5015,-5.5015,-5.5377,-5.5975,-5.5323,-5.591,-5.7455,-5.7697,-5.7353,-5.6548,-5.5786,-5.4987,-5.4197,-5.339,-5.255,-5.179,-5.1164,-5.083,-5.0925,-5.1808,-5.26,-5.3249,-5.3624,-5.3777,-5.3888,-5.4262,-5.3273,-5.2365,-5.3851,-5.3137,-5.2234,-5.3739,-5.419,-5.4363,-5.4644,-5.4809,-5.4962,-5.5332,-5.5403,-5.5174,-5.4409,-5.4791,-5.4753,-5.3206,-5.3511,-5.311,-5.0665,-5.0799,-5.0665,-4.9293,-4.9102,-4.9067,-4.9018,-4.9075,-4.9137,-4.9163,-4.8433,-4.7875,-4.7702,-4.7778,-4.7817,-4.7817,-4.7817,-4.7875,-4.7971,-4.8721,-4.9163,-4.926,-5.0029,-5.0414,-5.0414,-5.0414,-4.9586,-3.7398,-3.7669,-3.7835,-3.8904,-4.0476,-4.2569,-4.5417,-4.7276,-4.933,-5.2275,-5.4508,-5.6319,-5.7605,-5.8637,-5.9669,-6.0828,-6.0611,-6.043,-6.0756,-5.9416,-5.8058,-5.7098,-5.7424,-5.7695,-5.7695,-5.813,-5.8402,-5.8402,-5.8094,-5.8058,-5.8383,-5.7641,-5.7351,-5.7695,-5.7695,-5.7605,-5.7387,-5.8058,-5.7677,-5.6228,-5.5758,-5.5703,-5.5957,-5.5233,-5.5789,-5.7333,-5.6711,-5.62,-5.5798,-5.4686,-5.4014,-5.3683,-5.3335,-5.3004,-5.2656,-5.2325,-5.1316,-5.0343,-5.2087,-5.2307,-5.1999,-5.3064,-5.3563,-5.372,-5.3907,-5.3246,-5.263,-5.3343,-5.2667,-5.1898,-5.2592,-5.3155,-5.3597,-5.3709,-5.4137,-5.4578,-5.4723,-5.4754,-5.464,-5.4281,-5.4508,-5.4527,-5.3808,-5.3978,-5.3675,-5.2095,-5.2125,-5.1923,-5.0873,-5.0487,-4.9879,-4.8713,-4.8574,-4.8409,-4.8003,-4.8066,-4.7957,-4.75,-4.7462,-4.7552,-4.7731,-4.7556,-4.7892,-4.8779,-4.8964,-4.9365,-5.0026,-5.0248,-5.0336,-5.0291,-5.0092,-4.9594,-3.8785,-3.9529,-4.0223,-4.1491,-4.3826,-4.6158,-4.7526,-4.9922,-5.2619,-5.5359,-5.7257,-5.8861,-6.0214,-6.0484,-6.0665,-6.1245,-6.0864,-6.0394,-6.0176,-5.8945,-5.7478,-5.5884,-5.6011,-5.6228,-5.6228,-5.7351,-5.8166,-5.8383,-5.8184,-5.8166,-5.8402,-5.7641,-5.7297,-5.7514,-5.7532,-5.7695,-5.8076,-5.8293,-5.8003,-5.7188,-5.6373,-5.612,-5.6301,-5.5776,-5.6187,-5.7284,-5.6361,-5.5962,-5.5917,-5.4917,-5.4484,-5.4509,-5.4289,-5.4069,-5.3849,-5.361,-5.2289,-5.0802,-5.2344,-5.2252,-5.1665,-5.2839,-5.3359,-5.3545,-5.3545,-5.3181,-5.2785,-5.2974,-5.2433,-5.1836,-5.206,-5.2582,-5.3084,-5.3171,-5.3674,-5.4158,-5.4281,-5.4315,-5.4315,-5.4315,-5.4315,-5.4315,-5.4315,-5.4315,-5.4056,-5.33,-5.3199,-5.2968,-5.2284,-5.1714,-5.062,-4.871,-4.8522,-4.8296,-4.773,-4.8211,-4.8306,-4.774,-4.7702,-4.7794,-4.8055,-4.7821,-4.8204,-4.9331,-4.9129,-4.9409,-5.0221,-5.0019,-4.9898,-4.9872,-4.9589,-4.9532,-3.706,-3.9478,-4.2371,-4.3149,-4.6126,-4.9406,-5.1537,-5.3193,-5.5104,-5.7939,-5.856,-5.8801,-5.9509,-5.9651,-5.9651,-5.9669,-5.9651,-5.9361,-5.8583,-5.775,-5.6663,-5.5124,-5.4273,-5.3802,-5.3802,-5.5884,-5.755,-5.8347,-5.7677,-5.7587,-5.8365,-5.7641,-5.755,-5.8347,-5.8365,-5.8003,-5.7243,-5.8003,-5.8003,-5.7188,-5.6373,-5.641,-5.7152,-5.7134,-5.7152,-5.7188,-5.7302,-5.7413,-5.7528,-5.7635,-5.7757,-5.7776,-5.7005,-5.6216,-5.5427,-5.4638,-5.383,-5.3004,-5.227,-5.2527,-5.3151,-5.3188,-5.3206,-5.3206,-5.3206,-5.2679,-5.2183,-5.2973,-5.2624,-5.2165,-5.2955,-5.3193,-5.3277,-5.3624,-5.3701,-5.3833,-5.4212,-5.4315,-5.4315,-5.4315,-5.4315,-5.4315,-5.4315,-5.4315,-5.4158,-5.3758,-5.4032,-5.3921,-5.3061,-5.2268,-5.1123,-4.9464,-4.9337,-4.9348,-4.9329,-4.9408,-4.9466,-4.9447,-4.9428,-4.9428,-4.9428,-4.9428,-4.9447,-4.9495,-4.9466,-4.9485,-4.9532,-4.9504,-4.9504,-4.9504,-4.9504,-4.9692,-4.046,-4.2828,-4.5094,-4.7293,-4.9171,-5.1036,-5.3163,-5.4488,-5.5449,-5.6282,-5.6127,-5.5727,-5.5452,-5.5687,-5.6129,-5.6668,-5.7436,-5.8094,-5.8365,-5.7713,-5.6228,-5.3621,-5.4019,-5.3874,-5.2263,-5.3784,-5.5414,-5.6699,-5.6554,-5.6989,-5.8329,-5.7641,-5.7569,-5.8365,-5.7876,-5.7732,-5.7985,-5.7732,-5.7732,-5.7985,-5.717,-5.6391,-5.5721,-5.6736,-5.7188,-5.717,-5.6794,-5.6625,-5.6618,-5.6234,-5.5843,-5.5495,-5.5752,-5.5412,-5.4766,-5.4491,-5.4234,-5.3885,-5.3078,-5.2619,-5.2491,-5.3041,-5.3206,-5.3206,-5.3206,-5.339,-5.3647,-5.3922,-5.3794,-5.3647,-5.394,-5.361,-5.3248,-5.3336,-5.3359,-5.34,-5.3542,-5.3542,-5.3542,-5.3542,-5.3542,-5.3542,-5.3542,-5.3542,-5.3502,-5.34,-5.3019,-5.2733,-5.2659,-5.177,-5.0935,-5.0343,-5.0306,-5.0343,-5.0343,-5.0343,-5.0138,-4.9582,-4.9564,-4.9427,-4.9094,-4.8847,-4.893,-4.9416,-4.9202,-4.9171,-4.9375,-4.9171,-4.9126,-4.9164,-4.8832,-4.8832,-4.3166,-4.5348,-4.7208,-5.0152,-5.1471,-5.2465,-5.4114,-5.4689,-5.4815,-5.473,-5.3702,-5.2607,-5.181,-5.1645,-5.184,-5.2677,-5.3468,-5.4634,-5.6482,-5.5609,-5.4489,-5.3494,-5.3766,-5.3548,-5.2281,-5.3096,-5.4345,-5.5866,-5.6265,-5.688,-5.7913,-5.775,-5.7876,-5.8383,-5.8184,-5.8166,-5.8402,-5.7895,-5.7732,-5.7967,-5.7442,-5.6681,-5.5758,-5.6754,-5.7188,-5.717,-5.6762,-5.6594,-5.6606,-5.6223,-5.5642,-5.5103,-5.5349,-5.5053,-5.4363,-5.4087,-5.4161,-5.4326,-5.3812,-5.3298,-5.2986,-5.3794,-5.4069,-5.4014,-5.372,-5.4197,-5.4766,-5.4473,-5.4601,-5.4821,-5.4821,-5.4234,-5.3628,-5.3628,-5.3427,-5.3206,-5.3206,-5.3206,-5.3206,-5.3206,-5.3206,-5.3206,-5.3206,-5.3206,-5.3206,-5.3206,-5.2766,-5.2412,-5.234,-5.1661,-5.1114,-5.0839,-5.0802,-5.0802,-5.0802,-5.0802,-5.0582,-5.005,-5.0013,-4.9894,-4.9583,-4.9048,-4.8938,-4.9444,-4.8927,-4.8763,-4.8949,-4.8763,-4.8711,-4.8748,-4.8439,-4.8439,-4.506,-4.6989,-4.8832,-5.1657,-5.2942,-5.367,-5.4329,-5.3873,-5.326,-5.3122,-5.1208,-4.9271,0.0,0.0,-4.716,-4.8054,-4.8322,-4.9679,-5.3327,-5.2089,-5.1831,0.0,0.0,0.0,-5.3693,-5.3838,-5.4508,-5.6011,-5.679,-5.7243,-5.7315,-5.8058,-5.8474,-5.8528,-5.918,-5.9198,-5.8474,-5.842,-5.7985,-5.7134,-5.717,-5.717,-5.7134,-5.717,-5.7188,-5.7188,-5.7188,-5.7289,-5.7388,-5.7553,-5.7175,-5.6548,-5.5852,-5.517,-5.4363,-5.361,-5.3775,-5.4418,-5.4491,-5.4491,-5.4583,-5.5335,-5.5592,-5.5445,-5.4638,-5.495,-5.5427,-5.4675,-5.4968,-5.5556,-5.5629,-5.5023,-5.4418,-5.4454,-5.3885,-5.3335,-5.3335,-5.3298,-5.328,-5.3316,-5.3335,-5.3335,-5.3335,-5.3298,-5.328,-5.328,-5.3243,-5.2931,-5.216,-5.205,-5.1775,-5.1004,-5.093,-5.0912,-5.0857,-5.0857,-5.0839,-5.0802,-5.0802,-5.0802,-5.0802,-5.0013,-4.9572,-4.9572,-4.882,-4.8416,-4.8379,-4.8379,-4.8361,-4.8306,-4.8306,-4.8458,-4.7344,-4.9644,-5.1505,-5.2858,-5.3348,-5.3399,-5.2976,-5.1894,-5.0486,-4.8804,-4.5801,-4.3199,0.0,0.0,0.0,-4.6618,-4.924,0.0,-5.5187,-5.4792,0.0,-5.4863,0.0,-5.4496,-5.4569,-5.5631,-5.6717,-5.7713,-5.7424,-5.7713,-5.8927,-5.918,-5.9579,-6.0176,-5.9216,-5.8909,-5.9289,-5.8709,-5.7695,-5.6301,-5.6899,-5.688,-5.6319,-5.6935,-5.7188,-5.7188,-5.7188,-5.7188,-5.7239,-5.7307,-5.6884,-5.6303,-5.6084,-5.566,-5.5111,-5.4909,-5.4642,-5.4564,-5.5776,-5.5794,-5.5317,-5.5519,-5.5592,-5.5445,-5.4638,-5.495,-5.5556,-5.5335,-5.5005,-5.4987,-5.618,-5.5445,-5.4546,-5.5133,-5.5133,-5.4987,-5.4987,-5.4528,-5.4271,-5.4858,-5.4987,-5.4987,-5.4987,-5.4491,-5.4087,-5.4087,-5.3592,-5.3133,-5.2931,-5.2894,-5.2821,-5.2619,-5.2601,-5.2362,-5.1738,-5.1683,-5.1444,-5.0839,-5.0802,-5.0802,-5.0802,-5.06,-5.0472,-5.0472,-5.027,-4.9866,-4.926,-4.926,-4.8987,-4.8457,-4.8363,-4.8439,-4.9729,-5.1623,-5.301,-5.3788,-5.3737,-5.3044,-5.1268,-4.9458,-4.7428,-4.4874,-4.1897,-3.9529,-3.8785,-3.9692,-4.1281,0.0,0.0,0.0,-5.3315,-5.3573,-5.3823,0.0,-5.5384,0.0,-5.5518,-5.6937,-5.7996,-5.8383,-5.8311,-5.8655,-5.9561,-5.9941,-6.0339,-6.0792,-6.0285,-5.9868,-5.9615,-5.9162,-5.7949,-5.6011,-5.717,-5.7116,-5.6029,-5.6826,-5.7188,-5.7188,-5.7188,-5.7188,-5.7188,-5.7239,-5.6884,-5.6225,-5.6273,-5.5877,-5.5304,-5.5304,-5.5057,-5.4964,-5.6273,-5.6401,-5.6116,-5.6528,-5.6638,-5.6492,-5.5702,-5.6014,-5.6565,-5.6216,-5.6051,-5.6198,-5.7097,-5.64,-5.5574,-5.6014,-5.5849,-5.5592,-5.5592,-5.5244,-5.506,-5.55,-5.5592,-5.5482,-5.5115,-5.4693,-5.4289,-5.394,-5.35,-5.3206,-5.3206,-5.3206,-5.3206,-5.3206,-5.3206,-5.3023,-5.2564,-5.2527,-5.2179,-5.1371,-5.1334,-5.1169,-5.082,-5.0802,-5.0637,-5.027,-5.027,-4.9848,-4.9022,-4.9022,-4.8822,-4.8401,-4.8363,-4.8382,-5.1898,-5.3045,-5.3737,-5.4362,-5.3754,-5.2251,-4.9509,-4.6989,-4.4434,-4.1508,0.0,-3.7398,-3.6755,-3.7519,-3.8889,-4.0844,0.0,-4.5906,-5.039,-5.1042,-5.2109,-5.5191,-5.5901,-5.6235,-5.6573,-5.7861,-5.8622,-5.8609,-5.9348,-5.9762,-5.9778,-6.0538,-6.0919,-6.081,-6.1589,-6.119,-5.947,-5.9452,-5.8275,-5.6011,-5.7315,-5.7206,-5.5866,-5.6681,-5.6989,-5.6917,-5.7116,-5.7134,-5.7043,-5.7302,-5.6939,-5.6322,-5.6466,-5.6022,-5.533,-5.5439,-5.5395,-5.534,-5.641,-5.6676,-5.6759,-5.7675,-5.7997,-5.785,-5.7042,-5.7299,-5.7703,-5.7005,-5.7226,-5.7721,-5.7941,-5.7409,-5.684,-5.6932,-5.6418,-5.5904,-5.5904,-5.5904,-5.5886,-5.5776,-5.5757,-5.5556,-5.4987,-5.4693,-5.4326,-5.3628,-5.3445,-5.3335,-5.3225,-5.3206,-5.3206,-5.3206,-5.3206,-5.317,-5.3059,-5.3041,-5.2747,-5.2032,-5.1995,-5.172,-5.1151,-5.1022,-5.0674,-5.0068,-4.9958,-4.9481,-4.8636,-4.8636,-4.8526,-4.8306,-4.8306,-4.8306,-5.3274,-5.3811,-5.3998,-5.4272,-5.2354,-5.0028,-4.8433,-4.5399,0.0,0.0,-3.7584,-3.5977,-3.5842,-3.6525,-3.8387,-4.2291,-4.4326,-4.7135,-5.214,-5.2375,-5.3089,0.0,-5.583,-5.6258,-5.8176,-5.8515,-5.8939,-5.9673,-6.0368,-6.0729,-6.0575,-6.1371,-6.1498,-6.0828,-6.1589,-6.0919,-5.8637,-5.8619,-5.7732,-5.5993,-5.5667,-5.5359,-5.5124,-5.5866,-5.5884,-5.5377,-5.6645,-5.6808,-5.6247,-5.6967,-5.7166,-5.7039,-5.7039,-5.6648,-5.6109,-5.6782,-5.6248,-5.5413,-5.6937,-5.7058,-5.6731,-5.7675,-5.7997,-5.785,-5.7042,-5.6914,-5.6987,-5.684,-5.6418,-5.6308,-5.7648,-5.7409,-5.6969,-5.7629,-5.7685,-5.7574,-5.7574,-5.7574,-5.7391,-5.673,-5.6602,-5.6767,-5.7281,-5.6271,-5.5335,-5.5188,-5.462,-5.3959,-5.3298,-5.3206,-5.3206,-5.3206,-5.3206,-5.2931,-5.2252,-5.2197,-5.2142,-5.1995,-5.1995,-5.2234,-5.2766,-5.2142,-5.2032,-5.2582,-5.1922,-5.1169,-5.038,-5.038,-4.9664,-4.8306,-4.8306,-4.8306,-5.479,-5.5163,-5.4979,-5.4334,-5.19,-4.8912,-4.6026,0.0,0.0,0.0,-3.6033,-3.5104,-3.5481,-3.6494,0.0,-4.1011,-4.2463,-4.5043,-5.0237,-5.1025,0.0,-5.5172,-5.5819,-5.6286,-5.6999,-5.7751,-5.8352,-5.8662,-5.9406,-6.0184,-6.0855,-6.1605,-6.1842,-6.1462,-6.1824,-6.1045,-5.9054,-5.9017,-5.7822,-5.5432,-5.545,-5.5051,-5.4309,-5.507,-5.5233,-5.4961,-5.6084,-5.6355,-5.6047,-5.6862,-5.7188,-5.7188,-5.7188,-5.7003,-5.6762,-5.7143,-5.6594,-5.5789,-5.7085,-5.7072,-5.6638,-5.7582,-5.795,-5.7923,-5.7538,-5.7428,-5.7428,-5.7428,-5.7152,-5.7024,-5.7795,-5.7703,-5.7519,-5.7905,-5.7997,-5.7997,-5.7997,-5.7666,-5.7391,-5.7428,-5.7097,-5.6932,-5.7317,-5.6748,-5.6069,-5.5647,-5.4913,-5.4252,-5.3867,-5.3463,-5.3206,-5.3206,-5.3206,-5.3041,-5.2656,-5.2619,-5.2454,-5.2013,-5.1995,-5.1977,-5.1958,-5.1977,-5.1977,-5.1958,-5.1977,-5.1591,-5.0802,-5.0802,-5.0398,-4.9609,-4.9609,-4.9609,-5.582,-5.5953,-5.5502,-5.4238,-5.1329,-4.783,-4.3879,-4.0704,0.0,-3.5866,-3.5049,-3.484,-3.5374,0.0,-3.7715,0.0,-4.015,-4.2509,0.0,-4.9095,-5.0813,0.0,-5.5397,0.0,-5.5561,-5.657,-5.7248,-5.7123,-5.786,-5.9003,-6.0427,-6.1178,-6.1514,-6.1514,-6.1353,-6.0557,-5.9108,-5.8764,-5.7261,-5.4653,-5.5051,-5.4617,-5.3476,-5.4291,-5.4562,-5.4454,-5.5359,-5.5758,-5.583,-5.6609,-5.7043,-5.717,-5.7007,-5.6844,-5.6717,-5.688,-5.6428,-5.5903,-5.7011,-5.7037,-5.6744,-5.7496,-5.7857,-5.7997,-5.7997,-5.7997,-5.7997,-5.7997,-5.7997,-5.7997,-5.7997,-5.7997,-5.7997,-5.7997,-5.7997,-5.7997,-5.7997,-5.7501,-5.7244,-5.7886,-5.7354,-5.6859,-5.7042,-5.6914,-5.6602,-5.5941,-5.517,-5.4656,-5.4656,-5.3959,-5.3537,-5.3702,-5.3427,-5.3206,-5.3206,-5.3206,-5.2931,-5.2289,-5.2252,-5.1977,-5.1353,-5.1756,-5.1775,-5.1334,-5.1775,-5.1683,-5.1059,-5.1059,-5.0967,-5.0802,-5.0802,-5.0802,-5.5239,-5.514,-5.4501,-5.3906,-4.9993,-4.5713,-4.3528,0.0,-3.7198,-3.5656,-3.5287,-3.5253,-3.5337,-3.5408,-3.6243,0.0,0.0,-4.146,0.0,0.0,-5.0054,-5.323,0.0,0.0,-5.5602,-5.572,-5.5733,-5.5877,-5.652,-5.7538,-5.8905,-5.9663,-5.9992,-5.9992,-5.9204,-5.8311,-5.7424,-5.6029,-5.4816,-5.3802,-5.3132,-5.2752,-5.2643,-5.344,-5.3403,-5.2806,-5.4345,-5.5015,-5.507,-5.5794,-5.6536,-5.7134,-5.6391,-5.5703,-5.5196,-5.5848,-5.5631,-5.5214,-5.6681,-5.7252,-5.7346,-5.7565,-5.7792,-5.7997,-5.7997,-5.7997,-5.7997,-5.7997,-5.7997,-5.7997,-5.7997,-5.7997,-5.7997,-5.7997,-5.7997,-5.7997,-5.7997,-5.7941,-5.7905,-5.7997,-5.7354,-5.7042,-5.7758,-5.7281,-5.6785,-5.6712,-5.5996,-5.5482,-5.5482,-5.4785,-5.4564,-5.5299,-5.4069,-5.3206,-5.3206,-5.3206,-5.3188,-5.3096,-5.3096,-5.3078,-5.2986,-5.2344,-5.2307,-5.2986,-5.2325,-5.1958,-5.1885,-5.1885,-5.1499,-5.0802,-5.0802,-5.0802,-5.5106,-5.5405,-5.4792,-5.3257,-4.9061,-4.4677,-4.2525,0.0,-3.6434,-3.5399,-3.5245,-3.5291,-3.5198,-3.5198,-3.5585,0.0,0.0,0.0,-4.2925,0.0,-4.5993,-5.1358,-5.2128,-5.289,-5.4698,-5.4787,-5.506,-5.5649,-5.6302,-5.6739,-5.6916,-5.8809,-5.957,-5.897,-5.9075,-5.851,-5.7206,-5.5667,-5.4744,-5.4418,-5.3114,-5.2498,-5.2498,-5.2824,-5.3078,-5.3277,-5.4418,-5.516,-5.5613,-5.6391,-5.6627,-5.6446,-5.612,-5.554,-5.4943,-5.5233,-5.5432,-5.5649,-5.6265,-5.6889,-5.7437,-5.7553,-5.7745,-5.7886,-5.7997,-5.7997,-5.7997,-5.7997,-5.7997,-5.7997,-5.7997,-5.7997,-5.7997,-5.7997,-5.7997,-5.7997,-5.7997,-5.7611,-5.7428,-5.7905,-5.7354,-5.706,-5.785,-5.7721,-5.7519,-5.7519,-5.684,-5.6326,-5.6326,-5.5611,-5.5225,-5.5556,-5.5023,-5.4638,-5.4638,-5.4197,-5.3922,-5.3922,-5.3482,-5.3206,-5.3206,-5.2894,-5.2876,-5.3206,-5.2894,-5.2729,-5.2729,-5.2729,-5.2564,-5.2252,-5.2252,-5.2252,-5.3218,-5.4328,-5.451,-5.2539,-4.8349,-4.4108,0.0,0.0,-3.5939,-3.5191,-3.5105,-3.5152,-3.5041,-3.5041,-3.516,0.0,0.0,-3.6355,-4.0471,-4.1264,-4.3367,-4.8623,0.0,-5.0659,-5.3026,-5.3919,-5.4511,-5.504,-5.5468,-5.5585,-5.5349,-5.7409,-5.8201,-5.726,-5.7496,-5.6993,-5.5646,-5.4503,-5.3904,-5.3904,-5.2929,-5.2498,-5.2498,-5.2752,-5.3168,-5.3748,-5.4562,-5.5323,-5.6029,-5.6609,-5.65,-5.5975,-5.5758,-5.5214,-5.4581,-5.4816,-5.5233,-5.574,-5.6192,-5.6767,-5.7338,-5.7504,-5.7601,-5.7697,-5.7839,-5.795,-5.7997,-5.7997,-5.7997,-5.7997,-5.7997,-5.7997,-5.7997,-5.7997,-5.7997,-5.7997,-5.7997,-5.7556,-5.7317,-5.7886,-5.7538,-5.7336,-5.7905,-5.7997,-5.7997,-5.7997,-5.7317,-5.6895,-5.7134,-5.6455,-5.6051,-5.6271,-5.6308,-5.6106,-5.5629,-5.5078,-5.4638,-5.4418,-5.3867,-5.3463,-5.3225,-5.3206,-5.3206,-5.3206,-5.3206,-5.3206,-5.3206,-5.3206,-5.3206,-5.3206,-5.3206,-5.3206,-4.8961,-5.1264,-5.3086,-5.1645,-4.7968,-4.4108,0.0,0.0,-3.5794,-3.5048,-3.4899,-3.4899,-3.4899,-3.4899,-3.4899,-3.4916,-3.6125,0.0,-3.9268,-4.1405,-4.3397,0.0,-4.6619,-4.8396,-5.0492,-5.2925,-5.4089,-5.3585,-5.3534,-5.38,-5.4345,-5.5213,-5.5265,-5.4488,-5.3526,-5.2681,-5.1946,-5.1738,-5.1637,-5.1637,-5.2228,-5.2498,-5.2516,-5.3313,-5.3693,-5.3748,-5.4562,-5.5323,-5.5993,-5.5993,-5.5993,-5.5921,-5.5196,-5.4418,-5.382,-5.4617,-5.4907,-5.5142,-5.6663,-5.7188,-5.7239,-5.7338,-5.7388,-5.7455,-5.7534,-5.7792,-5.7997,-5.7997,-5.7997,-5.7997,-5.7997,-5.7997,-5.7997,-5.7997,-5.7997,-5.7997,-5.7997,-5.7997,-5.7997,-5.7997,-5.7997,-5.7997,-5.7997,-5.7997,-5.7997,-5.7997,-5.7317,-5.7097,-5.7886,-5.7299,-5.7097,-5.7886,-5.7978,-5.7317,-5.5721,-5.5574,-5.5244,-5.4454,-5.4399,-5.4032,-5.3243,-5.3206,-5.3206,-5.3206,-5.3206,-5.3206,-5.3206,-5.3206,-5.3206,-5.3206,-5.3206,-5.3206,-4.5019,-4.603,-4.6378,-4.4903,-4.2005,-3.9189,-3.798,0.0,-3.4419,-3.4187,-3.4551,-3.4899,-3.4899,-3.4485,-3.4468,-3.5479,-3.5628,0.0,0.0,0.0,0.0,-4.5474,-4.8859,-5.1311,-5.2133,-5.3358,-5.4119,-5.4262,-5.4245,-5.4364,-5.4532,-5.4277,-5.3965,-5.3457,-5.4215,-5.3752,-5.1929,-5.1827,-5.1811,-5.1829,-5.1989,-5.2112,-5.2147,-5.2857,-5.3727,-5.4699,-5.495,-5.5713,-5.6808,-5.6808,-5.65,-5.5975,-5.574,-5.5196,-5.4562,-5.4816,-5.5214,-5.5721,-5.621,-5.6736,-5.7239,-5.7356,-5.7388,-5.7455,-5.7553,-5.7649,-5.7745,-5.7857,-5.795,-5.7997,-5.7997,-5.7997,-5.7997,-5.7997,-5.7997,-5.7997,-5.7997,-5.7997,-5.7997,-5.7997,-5.7997,-5.7997,-5.7997,-5.7997,-5.7997,-5.7997,-5.7776,-5.7703,-5.796,-5.7776,-5.7721,-5.796,-5.7997,-5.7776,-5.7281,-5.6748,-5.6088,-5.5262,-5.4693,-5.4051,-5.3243,-5.3206,-5.3206,-5.3206,-5.3206,-5.3206,-5.3206,-5.3206,-5.3206,-5.3206,-5.3206,-5.3206,0.0,-4.2386,-4.2866,-4.1392,-3.9255,0.0,0.0,0.0,-3.4203,-3.4203,-3.4584,-3.4816,-3.4535,-3.4104,-3.4087,-3.5015,-3.5247,-3.5992,0.0,0.0,0.0,-4.6067,-4.951,-5.1738,-5.1929,-5.3168,-5.4032,-5.404,-5.4177,-5.4177,-5.4177,-5.3754,-5.3406,-5.3212,-5.3879,-5.3394,-5.1644,-5.1894,-5.2009,-5.1974,-5.2236,-5.2309,-5.2327,-5.3098,-5.3922,-5.4808,-5.5109,-5.5738,0.0,-5.651,-5.6044,-5.5328,-5.5328,-5.4862,-5.4202,-5.4488,-5.5056,-5.571,-5.6016,-5.6602,-5.7188,-5.7307,-5.7338,-5.7338,-5.7437,-5.7553,-5.7697,-5.7857,-5.795,-5.7997,-5.7997,-5.7997,-5.7997,-5.7997,-5.7997,-5.7997,-5.7997,-5.7997,-5.7997,-5.7997,-5.7997,-5.7997,-5.7997,-5.7997,-5.7997,-5.7997,-5.7997,-5.7997,-5.7997,-5.7997,-5.7997,-5.7997,-5.7997,-5.7997,-5.7997,-5.7538,-5.6914,-5.6106,-5.5299,-5.4491,-5.3702,-5.3371,-5.3206,-5.3206,-5.3206,-5.3206,-5.3206,-5.3206,-5.3206,-5.3206,-5.3206,-5.3206,0.0,-3.9797,-4.1558,-4.0183,-3.8825,0.0,0.0,0.0,0.0,-3.4816,-3.4816,-3.4634,-3.4054,-3.3822,-3.3773,-3.3988,-3.5131,-3.6522,0.0,-4.0829,0.0,0.0,-4.9044,-5.0372,-5.0426,-5.2514,-5.3727,-5.3246,-5.3416,-5.3501,-5.3501,-5.3551,-5.3551,-5.3501,-5.2824,-5.208,-5.1302,-5.1873,-5.2131,-5.201,-5.266,-5.2967,-5.3002,-5.3772,-5.418,-5.4233,-5.501,-5.5325,-5.5385,-5.5385,-5.4963,-5.4314,-5.4314,-5.3817,-5.3256,-5.3975,-5.4656,-5.5204,-5.6007,-5.6582,-5.7087,-5.7087,-5.7087,-5.7087,-5.7138,-5.7437,-5.7792,-5.7932,-5.795,-5.7997,-5.7997,-5.7997,-5.7997,-5.7997,-5.7997,-5.7997,-5.7997,-5.7997,-5.7997,-5.7997,-5.7997,-5.7997,-5.7997,-5.7997,-5.7997,-5.7997,-5.7997,-5.7997,-5.7997,-5.7997,-5.7997,-5.7997,-5.7997,-5.7997,-5.7997,-5.7997,-5.7666,-5.6859,-5.6106,-5.5299,-5.4436,-5.3683,-5.328,-5.3206,-5.3206,-5.3206,-5.3206,-5.3206,-5.3206,-5.3206,-5.3206,-5.3243,-3.4235,0.0,-3.5628,-3.4717,-3.4237,-3.3938,0.0,0.0,0.0,0.0,0.0,0.0,0.0,-3.4087,-3.369,-3.5959,-3.6141,-3.6522,-3.7996,0.0,0.0,-4.9077,-5.0883,-5.1552,-5.071,-5.2183,-5.3243,-5.3433,-5.3501,-5.3501,-5.3501,-5.4025,-5.4076,-5.3518,-5.3856,-5.3399,-5.2063,-5.277,-5.2547,-5.1393,-5.2128,-5.2448,-5.2482,-5.3284,-5.393,-5.4381,-5.4555,-5.4948,-5.5385,-5.5385,-5.5279,-5.5121,-5.5121,-5.4998,-5.4858,-5.5051,-5.5238,-5.5371,-5.5565,-5.5676,-5.5848,-5.5848,-5.5848,-5.5961,-5.651,-5.7069,-5.7504,-5.7553,-5.7583,-5.7697,-5.7792,-5.7857,-5.7886,-5.7997,-5.7997,-5.7997,-5.7997,-5.7997,-5.7997,-5.7997,-5.7997,-5.7997,-5.7997,-5.7997,-5.7997,-5.7997,-5.7997,-5.7997,-5.7997,-5.7997,-5.7997,-5.7997,-5.7997,-5.7997,-5.7997,-5.7997,-5.7666,-5.6859,-5.662,-5.5886,-5.4454,-5.4216,-5.383,-5.3225,-5.3206,-5.3206,-5.3206,-5.3206,-5.3206,-5.3206,-5.3206,-5.3537,-3.3283,-3.3437,-3.369,-3.3292,-3.3193,-3.3276,0.0,0.0,0.0,0.0,0.0,0.0,0.0,0.0,0.0,0.0,-3.6324,0.0,0.0,0.0,-4.7007,-5.0303,-5.1115,-5.1469,-5.1578,-5.2366,-5.3058,-5.3348,-5.3433,-5.3653,-5.3991,-5.4059,-5.4228,-5.4515,-5.4566,-5.3856,-5.2317,-5.3112,-5.2909,-5.1725,-5.2486,-5.2858,-5.2875,-5.3298,-5.3668,-5.4011,-5.4011,-5.4188,-5.4506,-5.4506,-5.4506,-5.4506,-5.4506,-5.4506,-5.4506,-5.4506,-5.4676,-5.4948,-5.4948,-5.5147,-5.5385,-5.5385,-5.5385,-5.5443,-5.5887,-5.6402,-5.6966,-5.7388,-5.7534,-5.7649,-5.7745,-5.7792,-5.7839,-5.795,-5.7997,-5.7997,-5.7997,-5.7997,-5.7997,-5.7997,-5.7997,-5.7997,-5.7997,-5.7997,-5.7997,-5.7997,-5.7997,-5.7997,-5.7997,-5.7997,-5.7997,-5.7997,-5.7997,-5.7997,-5.7997,-5.7997,-5.7813,-5.7373,-5.7005,-5.6418,-5.5537,-5.4785,-5.4014,-5.3225,-5.3206,-5.3206,-5.3206,-5.3206,-5.339,-5.3757,-5.3757,-5.4179,-3.3214,-3.3514,-3.3961,-3.3839,-3.3789,-3.3922,0.0,0.0,0.0,0.0,0.0,0.0,0.0,0.0,0.0,0.0,0.0,0.0,-4.55,-4.6295,-4.7487,-5.0734,-5.0767,-5.1002,-5.2191,-5.27,-5.2972,-5.3264,-5.3416,-5.3771,-5.4397,-5.394,-5.4194,-5.5344,-5.4871,-5.3856,-5.2317,-5.3213,-5.3264,-5.2486,-5.3179,-5.345,-5.3331,-5.345,-5.3433,-5.3331,-5.345,-5.3433,-5.3315,-5.3315,-5.3264,-5.3162,-5.3281,-5.3315,-5.3331,-5.345,-5.3832,-5.4281,-5.4281,-5.4658,-5.5104,-5.5104,-5.5104,-5.5164,-5.5207,-5.5601,-5.6201,-5.7126,-5.746,-5.7583,-5.7745,-5.7745,-5.7792,-5.795,-5.7997,-5.7997,-5.7997,-5.7997,-5.7997,-5.7997,-5.7997,-5.7997,-5.7997,-5.7997,-5.7997,-5.7997,-5.7997,-5.7997,-5.7997,-5.7997,-5.7997,-5.7997,-5.7997,-5.7997,-5.7997,-5.7997,-5.7997,-5.7997,-5.7373,-5.6932,-5.6822,-5.5372,-5.4197,-5.3408,-5.339,-5.339,-5.339,-5.339,-5.3812,-5.4583,-5.4583,-5.5005,-3.2547,-3.3683,-3.4707,-3.3994,-3.3789,-3.3657,0.0,0.0,0.0,0.0,0.0,0.0,0.0,0.0,0.0,0.0,0.0,-4.3297,-4.7951,-4.8597,-4.9044,-5.0237,-5.1363,-5.1768,-5.1045,-5.2167,-5.3058,-5.3433,-5.3501,-5.3551,-5.367,-5.4143,-5.4245,-5.3856,-5.4329,-5.3856,-5.2317,-5.3721,-5.4059,-5.3315,-5.345,-5.3145,-5.252,-5.3196,-5.3129,-5.252,-5.3213,-5.3112,-5.2486,-5.2486,-5.2131,-5.164,-5.2249,-5.2486,-5.257,-5.3247,-5.3568,-5.3618,-5.3618,-5.3734,-5.38,-5.38,-5.38,-5.3915,-5.4408,-5.4641,-5.4948,-5.6317,-5.6957,-5.7289,-5.7553,-5.7649,-5.7697,-5.795,-5.7997,-5.7997,-5.7997,-5.7997,-5.7997,-5.7997,-5.7997,-5.7997,-5.7997,-5.7997,-5.7997,-5.7997,-5.7997,-5.7997,-5.7997,-5.7997,-5.7997,-5.7997,-5.7997,-5.7997,-5.7997,-5.7997,-5.7997,-5.7997,-5.7886,-5.7519,-5.684,-5.5904,-5.5042,-5.4234,-5.4216,-5.4216,-5.4216,-5.4216,-5.4638,-5.5409,-5.5409,-5.5849,-3.1327,-3.2329,-3.3437,-3.3417,-3.4493,-3.5396,-3.4651,0.0,0.0,0.0,0.0,0.0,0.0,0.0,-3.8228,-4.1226,-4.3495,-4.5881,-4.8713,-4.8763,-4.9077,-5.0601,-5.1519,-5.2091,-5.2451,-5.3595,-5.4222,-5.4126,-5.4093,-5.4093,-5.4093,-5.4042,-5.4025,-5.4093,-5.4042,-5.367,-5.2959,-5.3653,-5.3619,-5.2858,-5.3298,-5.3315,-5.2959,-5.3331,-5.3298,-5.2976,-5.3348,-5.3044,-5.2334,-5.2773,-5.2266,-5.1336,-5.2503,-5.2452,-5.1809,-5.257,-5.2858,-5.2909,-5.3348,-5.3501,-5.3501,-5.3501,-5.3501,-5.3551,-5.3832,-5.4171,-5.4523,-5.5181,-5.6088,-5.6952,-5.7566,-5.7478,-5.7334,-5.7869,-5.8087,-5.8251,-5.8592,-5.8988,-5.93,-5.93,-5.93,-5.9171,-5.8731,-5.8657,-5.8657,-5.8657,-5.8657,-5.8822,-5.9245,-5.93,-5.93,-5.93,-5.8914,-5.8657,-5.8657,-5.8253,-5.7997,-5.7997,-5.7997,-5.7648,-5.684,-5.6436,-5.5868,-5.506,-5.5042,-5.5042,-5.5042,-5.5042,-5.5464,-5.6253,-5.6253,-5.6675,-3.0195,-3.1105,-3.2208,-3.2951,0.0,-3.6108,-3.6241,0.0,0.0,0.0,0.0,0.0,0.0,-3.856,0.0,-4.487,-4.6709,-4.8249,-4.9889,-4.9491,-4.9707,-5.1562,-5.1838,-5.236,-5.3874,-5.4572,-5.4713,-5.438,-5.4329,-5.4329,-5.4329,-5.3805,-5.3754,-5.4313,-5.3788,-5.3501,-5.3501,-5.3501,-5.3196,-5.2587,-5.3213,-5.3315,-5.2976,-5.3348,-5.3315,-5.2993,-5.3348,-5.2959,-5.2097,-5.2723,-5.2164,-5.1082,-5.2435,-5.2367,-5.1539,-5.2097,-5.23,-5.2384,-5.301,-5.3348,-5.3501,-5.3501,-5.3501,-5.3501,-5.3501,-5.3832,-5.4239,-5.46,-5.5484,-5.6509,-5.7341,-5.7169,-5.7056,-5.7798,-5.816,-5.8443,-5.9091,-5.9749,-6.0237,-6.0353,-6.0401,-6.0199,-5.9612,-5.9501,-5.9501,-5.9501,-5.9501,-5.9722,-6.0327,-6.0401,-6.0401,-6.0401,-5.9685,-5.9134,-5.8951,-5.8345,-5.7997,-5.7997,-5.7997,-5.7721,-5.7116,-5.7079,-5.6693,-5.5886,-5.5868,-5.5868,-5.5868,-5.5868,-5.629,-5.7079,-5.7079,-5.7409,-2.9687,-3.0917,-3.2352,-3.3049,-3.3129,0.0,-3.6406,-3.6539,0.0,0.0,0.0,0.0,0.0,-4.0812,-4.3495,-4.7173,-4.9011,-5.0701,-5.2804,-5.2506,-5.2357,-5.3169,-5.2815,-5.2944,-5.387,-5.3578,-5.3398,-5.3585,-5.3585,-5.3585,-5.3585,-5.3534,-5.3518,-5.3585,-5.3534,-5.3501,-5.3501,-5.3501,-5.3467,-5.3416,-5.3467,-5.2756,-5.142,-5.2858,-5.2723,-5.1471,-5.2892,-5.2672,-5.1302,-5.1352,-5.0913,-5.0253,-5.1065,-5.1725,-5.2232,-5.2283,-5.23,-5.2317,-5.2367,-5.2892,-5.3501,-5.3501,-5.3501,-5.3501,-5.3501,-5.3501,-5.3839,-5.5228,-5.5651,-5.5911,-5.6615,-5.6764,-5.6964,-5.7789,-5.8125,-5.8396,-5.9042,-5.9399,-5.9732,-6.0286,-6.0401,-6.0382,-6.0327,-6.0309,-6.0309,-6.0309,-6.0309,-6.0346,-6.0401,-6.0401,-6.0401,-6.0401,-5.9685,-5.8914,-5.8143,-5.8033,-5.7997,-5.7997,-5.7997,-5.796,-5.7923,-5.7905,-5.7538,-5.673,-5.6712,-5.6712,-5.6712,-5.6712,-5.7134,-5.7905,-5.7905,-5.7941,-2.8846,-3.0264,-3.1776,-3.256,0.0,0.0,0.0,0.0,0.0,-4.0713,-4.1541,0.0,0.0,0.0,-4.5997,-4.8315,-5.0303,-5.1993,-5.3235,-5.2821,-5.2638,-5.3334,-5.3456,-5.362,-5.3975,-5.4037,-5.4092,-5.4177,-5.3754,-5.3501,-5.3501,-5.3501,-5.3501,-5.3501,-5.3501,-5.3264,-5.2756,-5.2756,-5.252,-5.2097,-5.3044,-5.2942,-5.1911,-5.2486,-5.2198,-5.1268,-5.23,-5.2164,-5.1285,-5.2249,-5.1911,-5.0811,-5.1099,-5.1386,-5.164,-5.164,-5.1336,-5.0997,-5.1471,-5.2131,-5.2756,-5.2756,-5.3095,-5.3501,-5.3501,-5.3822,-5.4296,-5.4854,-5.5361,-5.5975,-5.7158,-5.7172,-5.7095,-5.7759,-5.8083,-5.8562,-5.9687,-6.0431,-6.1009,-6.172,-6.1906,-6.1741,-6.1227,-6.1153,-6.1153,-6.1153,-6.1153,-6.1337,-6.1832,-6.1906,-6.1906,-6.1906,-6.0731,-5.963,-5.8822,-5.829,-5.7997,-5.7997,-5.7997,-5.7997,-5.7997,-5.7997,-5.785,-5.7556,-5.7556,-5.7556,-5.7556,-5.7556,-5.7703,-5.7997,-5.7997,-5.7997,-2.8958,-3.0048,-3.1275,0.0,0.0,0.0,0.0,0.0,0.0,-4.3512,-4.3893,-4.4241,-4.5218,0.0,-4.7189,-4.9144,-5.1098,-5.2622,-5.3318,-5.2821,-5.2638,-5.3334,-5.3361,-5.3472,-5.3941,-5.3921,-5.3974,-5.4228,-5.3788,-5.3501,-5.3501,-5.3264,-5.3129,-5.3129,-5.2909,-5.252,-5.1961,-5.1961,-5.1708,-5.1234,-5.2283,-5.2367,-5.1606,-5.186,-5.1555,-5.0913,-5.1877,-5.1894,-5.1319,-5.2604,-5.2503,-5.1589,-5.1843,-5.1775,-5.1539,-5.1302,-5.0896,-5.049,-5.076,-5.1352,-5.1995,-5.2232,-5.2672,-5.3179,-5.3433,-5.3856,-5.4296,-5.4515,-5.5141,-5.5953,-5.6934,-5.7074,-5.7134,-5.7758,-5.8083,-5.8581,-5.984,-6.0563,-6.1304,-6.2342,-6.2534,-6.2402,-6.2022,-6.1979,-6.1979,-6.1979,-6.1979,-6.2181,-6.275,-6.2805,-6.2713,-6.2456,-6.1447,-6.0456,-5.9667,-5.9079,-5.8749,-5.8749,-5.8529,-5.8253,-5.7997,-5.7997,-5.7997,-5.7997,-5.7997,-5.7997,-5.7997,-5.7997,-5.8125,-5.8382,-5.8125,-5.8272,-3.0063,-3.0366,0.0,0.0,0.0,0.0,0.0,0.0,0.0,-4.8332,-4.6775,-4.5185,-4.6643,-4.6328,-4.6792,-4.974,-5.1429,-5.2622,-5.3318,-5.2804,-5.2622,-5.3318,-5.2477,-5.2384,-5.3874,-5.2994,-5.2638,-5.345,-5.3501,-5.3501,-5.3501,-5.2739,-5.23,-5.2283,-5.1589,-5.1217,-5.12,-5.12,-5.12,-5.12,-5.12,-5.0811,-5.0118,-5.0862,-5.0794,-5.0152,-5.164,-5.1877,-5.1268,-5.2012,-5.2317,-5.2384,-5.3196,-5.301,-5.2215,-5.1488,-5.1217,-5.1099,-5.0338,-5.0574,-5.1319,-5.2046,-5.23,-5.2452,-5.3264,-5.3501,-5.367,-5.438,-5.5141,-5.5716,-5.5716,-5.6258,-5.6985,-5.7712,-5.8027,-5.8439,-5.923,-5.9561,-6.0139,-6.1584,-6.1897,-6.2077,-6.2705,-6.2823,-6.2805,-6.2805,-6.2823,-6.2805,-6.2805,-6.2805,-6.2493,-6.1686,-6.1594,-6.1282,-6.0493,-6.0401,-6.0401,-6.0401,-5.9648,-5.8859,-5.8033,-5.7997,-5.7997,-5.7997,-5.7997,-5.7997,-5.7997,-5.7997,-5.8419,-5.9189,-5.84,-5.8877,-3.0126,-3.1451,0.0,0.0,0.0,0.0,0.0,0.0,0.0,0.0,-4.805,-4.7934,-4.8365,-4.8696,-4.9193,-5.0071,-5.1429,-5.2456,-5.2655,-5.2059,-5.1877,-5.2605,-5.2177,-5.2167,-5.3138,-5.2674,-5.2638,-5.345,-5.2976,-5.2655,-5.2655,-5.2435,-5.2063,-5.1555,-5.1319,-5.0963,-5.0422,-5.0422,-5.0168,-4.9661,-4.9661,-4.9813,-5.0101,-5.0321,-5.0016,-4.9373,-5.0338,-5.093,-5.1319,-5.2621,-5.2807,-5.2384,-5.3196,-5.301,-5.2215,-5.1488,-5.0879,-5.0321,-4.9576,-4.9813,-5.0541,-5.1302,-5.1894,-5.2452,-5.3264,-5.3856,-5.4313,-5.4532,-5.5141,-5.5716,-5.5716,-5.6258,-5.6867,-5.707,-5.7599,-5.8209,-5.9011,-5.9262,-5.9639,-6.0855,-6.105,-6.1149,-6.1436,-6.186,-6.2184,-6.2184,-6.2534,-6.2805,-6.2805,-6.2805,-6.2713,-6.2475,-6.1942,-6.1502,-6.1263,-6.0731,-6.0401,-6.0401,-5.9648,-5.9116,-5.8859,-5.8309,-5.7997,-5.7997,-5.7997,-5.7997,-5.7997,-5.8584,-5.8988,-5.9226,-5.9538,-5.9942,-3.0815,0.0,0.0,0.0,0.0,0.0,0.0,0.0,0.0,0.0,-4.9409,-4.9293,-4.9872,-4.9856,-4.9955,-5.0535,-5.1363,-5.2042,-5.234,-5.1744,-5.1545,-5.2291,-5.2044,-5.2083,-5.2836,-5.2286,-5.2198,-5.2959,-5.23,-5.186,-5.186,-5.1589,-5.1217,-5.0777,-5.0202,-4.983,-4.9661,-4.9069,-4.8849,-4.9001,-4.8714,-4.8951,-4.9661,-4.9661,-4.9424,-4.9035,-4.9779,-5.0524,-5.1285,-5.2215,-5.2469,-5.235,-5.2841,-5.2926,-5.2689,-5.1928,-5.1183,-5.0439,-4.9695,-4.9729,-5.0219,-5.098,-5.1708,-5.2452,-5.3264,-5.3805,-5.416,-5.416,-5.4685,-5.5209,-5.4921,-5.5598,-5.6444,-5.6731,-5.7357,-5.8082,-5.8651,-5.8772,-5.9028,-5.9977,-6.0246,-6.0432,-6.0778,-6.1207,-6.151,-6.151,-6.2059,-6.2464,-6.2464,-6.2636,-6.2805,-6.2805,-6.2383,-6.2089,-6.2089,-6.163,-6.1355,-6.1355,-6.0309,-5.9685,-5.9685,-5.8602,-5.7997,-5.7997,-5.8309,-5.8492,-5.8492,-5.93,-5.985,-6.0162,-6.0327,-6.075,0.0,0.0,0.0,0.0,0.0,0.0,0.0,0.0,-5.0667,-5.1926,0.0,-4.9856,-5.1065,-5.0253,-4.9823,-5.1065,-5.133,-5.1562,-5.2108,-5.1595,-5.1396,-5.2009,-5.181,-5.1882,-5.2635,-5.1814,-5.1488,-5.2147,-5.1589,-5.1166,-5.1031,-5.0355,-4.9898,-4.9695,-4.8477,-4.8105,-4.8697,-4.7428,-4.7462,-4.8798,-4.8139,-4.8156,-4.8798,-4.8934,-4.9001,-4.9035,-4.9779,-5.0439,-5.1031,-5.1166,-5.1572,-5.2114,-5.2181,-5.2655,-5.3196,-5.2384,-5.1691,-5.0997,-5.0253,-4.9999,-5.0118,-5.0947,-5.1657,-5.2367,-5.3247,-5.3501,-5.3501,-5.3501,-5.3974,-5.4346,-5.367,-5.4549,-5.5784,-5.6444,-5.7205,-5.787,-5.8014,-5.8137,-5.8368,-5.918,-5.9447,-5.9774,-6.045,-6.0658,-6.0838,-6.0897,-6.1397,-6.1824,-6.1897,-6.236,-6.2755,-6.2805,-6.2805,-6.2805,-6.2805,-6.2805,-6.2805,-6.2805,-6.1374,-6.0511,-6.0511,-5.8896,-5.8033,-5.8107,-5.8841,-5.9263,-5.9318,-6.0126,-6.0896,-6.1575,-6.0933,-6.141,0.0,0.0,0.0,0.0,0.0,0.0,0.0,0.0,-5.0982,-5.0734,-5.1645,-5.2241,-5.1429,-5.1496,-5.1578,-5.1313,-5.1761,-5.1794,-5.0817,-5.0551,-5.0286,-4.9856,-4.9993,-5.0358,-5.1112,-5.1208,-5.1285,-5.1437,-5.1302,-5.071,-4.9543,-4.9323,-4.8443,-4.6701,-4.6904,-4.6836,-4.6413,-4.6667,-4.6955,-4.7259,-4.7107,-4.7124,-4.731,-4.8477,-4.9001,-4.9035,-4.9779,-4.9864,-4.956,-5.0744,-5.0963,-5.0625,-5.1217,-5.1555,-5.1606,-5.0845,-5.0456,-5.0219,-4.9492,-4.9238,-4.9458,-5.0777,-5.1319,-5.1708,-5.3078,-5.3501,-5.3501,-5.3501,-5.3619,-5.3704,-5.3551,-5.416,-5.4871,-5.504,-5.6072,-5.7036,-5.7107,-5.7565,-5.8099,-5.8351,-5.8492,-5.865,-5.9132,-5.9613,-6.0184,-6.0778,-6.1015,-6.134,-6.1824,-6.2005,-6.229,-6.2755,-6.2805,-6.2805,-6.2805,-6.2805,-6.2805,-6.2805,-6.1887,-6.1337,-6.1337,-5.9189,-5.8309,-5.8951,-5.9116,-5.952,-6.0144,-6.0951,-6.1429,-6.1594,-6.2071,-6.2475,0.0,0.0,0.0,0.0,0.0,0.0,0.0,0.0,-4.9686,-4.9653,-5.1119,-5.2158,-5.1413,-5.1313,-5.1214,-5.0833,-5.08,-5.0667,-5.027,-4.9906,-4.9674,-4.9641,-4.9943,-5.0291,-5.0677,-5.0702,-5.0676,-5.0676,-4.9695,-4.8765,-4.7986,-4.7276,-4.6532,-4.5737,-4.572,-4.5889,-4.6227,-4.5906,-4.6092,-4.6786,-4.643,-4.6447,-4.6819,-4.7597,-4.7953,-4.7986,-4.8731,-4.8832,-4.8578,-4.9695,-5.0135,-5.0135,-5.0524,-5.0896,-5.1166,-5.0777,-5.0388,-5.0033,-4.9661,-4.9526,-4.9712,-5.0845,-5.1454,-5.1961,-5.3145,-5.3501,-5.3501,-5.3501,-5.3501,-5.3501,-5.3501,-5.3788,-5.4059,-5.4059,-5.5209,-5.6376,-5.6731,-5.7103,-5.7476,-5.7976,-5.8116,-5.826,-5.849,-5.8927,-5.9433,-5.9885,-6.0264,-6.0694,-6.134,-6.1714,-6.2131,-6.2755,-6.2805,-6.2805,-6.2805,-6.2805,-6.2805,-6.2805,-6.2034,-6.1594,-6.1594,-6.0015,-5.9355,-5.9777,-6.0162,-6.0566,-6.097,-6.1777,-6.2181,-6.2199,-6.3025,-6.3429,0.0,0.0,0.0,0.0,0.0,0.0,0.0,-4.7556,-4.7845,-4.8337,-4.9872,-5.1048,-5.0916,-5.0535,-5.0171,-5.0038,-4.9607,-4.9475,-4.9955,-4.9392,-4.9094,-4.9574,-4.9893,-5.0075,-5.0141,-4.983,-4.9712,-4.9712,-4.7784,-4.6599,-4.6599,-4.5314,-4.4807,-4.5297,-4.4705,-4.4908,-4.6007,-4.479,-4.4807,-4.6007,-4.5534,-4.5618,-4.621,-4.6346,-4.6549,-4.6836,-4.7597,-4.7919,-4.797,-4.8714,-4.9357,-4.9898,-4.9898,-5.0287,-5.0845,-5.0845,-5.0439,-4.9898,-4.9898,-4.9982,-5.0219,-5.098,-5.1708,-5.2452,-5.3264,-5.3501,-5.3501,-5.3501,-5.3399,-5.3298,-5.3298,-5.3298,-5.3298,-5.3298,-5.4431,-5.5716,-5.6461,-5.6714,-5.6985,-5.7577,-5.7857,-5.8001,-5.8001,-5.8475,-5.8857,-5.8961,-5.945,-6.0048,-6.0676,-6.134,-6.1933,-6.2585,-6.2755,-6.2805,-6.2805,-6.2805,-6.2805,-6.2805,-6.2181,-6.1814,-6.1814,-6.1172,-6.0823,-6.0823,-6.1337,-6.1667,-6.1814,-6.2493,-6.2805,-6.2842,-6.3686,-6.409,0.0,0.0,0.0,0.0,0.0,0.0,0.0,0.0,-4.6814,-4.6173,-4.8321,-5.0154,-4.9508,-4.9839,-5.0005,-4.9359,-4.9707,-4.9872,-4.9326,-4.8614,-4.7951,-4.7404,-4.7547,-4.7738,-4.7847,-4.7872,-4.7989,-4.8206,-4.6752,-4.5855,-4.5855,-4.5043,-4.4316,-4.3741,-4.3623,-4.3352,-4.2895,-4.2692,-4.2692,-4.2895,-4.3453,-4.3775,-4.3893,-4.457,-4.5585,-4.6836,-4.7597,-4.7919,-4.797,-4.8714,-4.9069,-4.9154,-4.9154,-4.9221,-4.9289,-4.9289,-4.9238,-4.9154,-4.9154,-4.956,-5.0219,-5.098,-5.1708,-5.2452,-5.3264,-5.3501,-5.3501,-5.3501,-5.301,-5.2469,-5.2469,-5.2469,-5.2469,-5.2469,-5.3636,-5.4955,-5.57,-5.6359,-5.6833,-5.6934,-5.7094,-5.7253,-5.7253,-5.8133,-5.8788,-5.8857,-5.903,-5.9383,-6.0065,-6.0615,-6.1265,-6.1951,-6.2482,-6.2805,-6.2805,-6.2805,-6.2805,-6.2805,-6.2713,-6.2658,-6.2658,-6.2548,-6.2493,-6.2493,-6.1906,-6.1942,-6.2658,-6.2768,-6.2805,-6.2842,-6.3686,-6.409,0.0,0.0,0.0,0.0,0.0,0.0,0.0,0.0,-4.394,-4.3874,-4.5649,-4.7454,-4.827,-4.8396,-4.8382,-4.8481,-4.8067,-4.7769,-4.7852,-4.7222,-4.6643,-4.6311,-4.6483,-4.6624,-4.6686,-4.6837,-4.7002,-4.714,-4.5443,-4.4418,-4.4418,-4.2912,-4.21,-4.2185,-4.2185,-4.2219,-4.2286,-4.2286,-4.225,-4.2196,-4.2571,-4.2942,-4.331,-4.3703,-4.4519,-4.5602,-4.6346,-4.6684,-4.6769,-4.7919,-4.8392,-4.8443,-4.8849,-4.9001,-4.9001,-4.9001,-4.9255,-4.956,-4.9137,-4.9763,-5.0777,-5.1099,-5.1708,-5.2452,-5.3264,-5.3501,-5.3501,-5.3501,-5.2926,-5.23,-5.23,-5.1995,-5.1792,-5.2198,-5.2824,-5.3754,-5.5361,-5.597,-5.619,-5.619,-5.6278,-5.6467,-5.7032,-5.7583,-5.8169,-5.8719,-5.8892,-5.9267,-5.9891,-6.0511,-6.1149,-6.1842,-6.2412,-6.2805,-6.2805,-6.2805,-6.2805,-6.2805,-6.2805,-6.2805,-6.2805,-6.2805,-6.2805,-6.2805,-6.2456,-6.2456,-6.2805,-6.2805,-6.3062,-6.3558,-6.4383,-6.5007,0.0,0.0,0.0,0.0,0.0,0.0,0.0,0.0,-4.1173,-4.1648,-4.3082,-4.4721,-4.6276,-4.6566,-4.6728,-4.716,-4.6383,-4.598,-4.6527,-4.598,-4.5516,-4.5516,-4.549,-4.5452,-4.5513,-4.5554,-4.5614,-4.5656,-4.39,-4.2875,-4.3115,-4.1373,-4.0713,-4.1457,-4.1305,-4.1457,-4.2016,-4.1813,-4.1675,-4.1533,-4.1825,-4.2196,-4.2572,-4.2884,-4.3445,-4.4221,-4.5223,-4.5571,-4.5672,-4.7031,-4.7673,-4.7909,-4.8511,-4.8832,-4.9001,-4.9001,-4.9357,-4.9729,-4.9187,-4.9847,-5.0963,-5.115,-5.1708,-5.2452,-5.3264,-5.3501,-5.3501,-5.3501,-5.279,-5.2029,-5.2029,-5.1488,-5.1065,-5.1606,-5.2181,-5.3129,-5.5023,-5.5581,-5.5649,-5.548,-5.5581,-5.5886,-5.6656,-5.7204,-5.7858,-5.8632,-5.8823,-5.9149,-5.9696,-6.0282,-6.0915,-6.1584,-6.2166,-6.2636,-6.2823,-6.2805,-6.2805,-6.2805,-6.2805,-6.2805,-6.2805,-6.2805,-6.2805,-6.2805,-6.2805,-6.2805,-6.2805,-6.2805,-6.3264,-6.4108,-6.4934,-6.5742,0.0,0.0,0.0,0.0,0.0,0.0,0.0,0.0,-3.9541,-3.9571,-4.1172,-4.2623,-4.2731,-4.4439,-4.5659,-4.5049,-4.5452,-4.5798,-4.5847,-4.5202,-4.4754,-4.4754,-4.4158,-4.3787,-4.3964,-4.3406,-4.3103,-4.3351,-4.2008,-4.1504,-4.2303,-4.1593,-4.1474,-4.2219,-4.1559,-4.1221,-4.1271,-4.0544,-4.0155,-4.0019,-4.0709,-4.1009,-4.0933,-4.1674,-4.2378,-4.3183,-4.474,-4.5362,-4.5295,-4.6186,-4.7002,-4.772,-4.7892,-4.8392,-4.9001,-4.9001,-4.9018,-4.9052,-4.9018,-4.9509,-5.027,-5.098,-5.1708,-5.2452,-5.3264,-5.3501,-5.3501,-5.3501,-5.2435,-5.1268,-5.1268,-5.071,-5.0152,-5.0202,-5.186,-5.367,-5.4482,-5.5209,-5.5497,-5.4786,-5.5226,-5.5733,-5.5767,-5.706,-5.8226,-5.849,-5.8701,-5.884,-5.9012,-5.9631,-6.0299,-6.0897,-6.1584,-6.2184,-6.2755,-6.2805,-6.2805,-6.2805,-6.2805,-6.2805,-6.2805,-6.2805,-6.2805,-6.2805,-6.2805,-6.2805,-6.2805,-6.2805,-6.3264,-6.4108,-6.4934,-6.5742,0.0,0.0,0.0,0.0,0.0,0.0,-3.4951,-3.6088,-3.703,-3.7449,-3.8819,-3.9825,-3.9343,-4.2082,-4.4364,-4.4107,-4.4256,-4.4406,-4.4406,-4.3761,-4.3297,-4.3297,-4.2651,-4.2204,-4.2318,-4.2159,-4.2122,-4.2217,-4.1443,-4.1148,-4.1454,-4.0831,-4.0612,-4.0865,-4.0526,-4.0339,-4.0236,-3.9967,-3.9781,-3.9659,-3.9998,-4.0314,-4.0675,-4.105,-4.1531,-4.2211,-4.2785,-4.3612,-4.4532,-4.5328,-4.584,-4.6193,-4.7349,-4.795,-4.8219,-4.8771,-4.9306,-4.9644,-4.9171,-4.9796,-5.0862,-5.1133,-5.1708,-5.2452,-5.3264,-5.3501,-5.3501,-5.3501,-5.2739,-5.1809,-5.1336,-5.0659,-5.0219,-5.0693,-5.2198,-5.3568,-5.3839,-5.411,-5.4346,-5.4549,-5.4803,-5.5294,-5.6241,-5.6992,-5.7644,-5.8192,-5.8561,-5.8788,-5.884,-5.9516,-6.0065,-6.0282,-6.1243,-6.2005,-6.2184,-6.2585,-6.2805,-6.2805,-6.2805,-6.2805,-6.2805,-6.2805,-6.2805,-6.2805,-6.2805,-6.2805,-6.2805,-6.2805,-6.3521,-6.4879,-6.5173,-6.6017,-3.1482,0.0,0.0,0.0,0.0,-3.2482,-3.3559,-3.4517,-3.5355,-3.6028,-3.7041,-3.7755,-3.7428,-3.9874,-4.1933,-4.1933,-4.2102,-4.2299,-4.2512,-4.195,-4.1579,-4.1773,-4.119,-4.0745,-4.0745,-4.0845,-4.0878,-4.095,-4.0699,-4.045,-4.0241,-3.9826,-3.9558,-3.9332,-3.9242,-3.9259,-3.9365,-3.9365,-3.9382,-3.9501,-3.959,-3.984,-4.0147,-4.0271,-4.0671,-4.1261,-4.1261,-4.2149,-4.3589,-4.419,-4.4691,-4.5226,-4.6394,-4.7204,-4.7787,-4.8338,-4.9041,-4.9661,-4.9171,-4.9644,-5.0557,-5.1048,-5.1539,-5.2131,-5.3179,-5.3501,-5.3501,-5.3501,-5.2926,-5.2198,-5.1708,-5.0845,-5.0338,-5.1352,-5.2164,-5.2875,-5.3399,-5.3687,-5.394,-5.4177,-5.4431,-5.4989,-5.6224,-5.6718,-5.7267,-5.8086,-5.8419,-5.8631,-5.8788,-5.9284,-5.9714,-5.9955,-6.0789,-6.1433,-6.1842,-6.2237,-6.2585,-6.2823,-6.2805,-6.2805,-6.2805,-6.2805,-6.2805,-6.2805,-6.2805,-6.2805,-6.2805,-6.2805,-6.3668,-6.5319,-6.5319,-6.6164,0.0,0.0,0.0,0.0,0.0,0.0,-3.2332,-3.3484,-3.4607,-3.528,-3.5938,-3.6596,-3.721,-3.7907,-3.8385,-3.84,-3.903,-3.9718,-4.034,-3.9886,-3.9702,-4.034,-3.9768,-3.9331,-3.9388,-3.9309,-3.9325,-3.9432,-3.9501,-3.9239,-3.869,-3.869,-3.8414,-3.7806,-3.7806,-3.8076,-3.8635,-3.869,-3.8957,-3.9432,-3.9432,-3.9395,-3.9272,-3.9272,-3.9669,-4.0348,-4.0348,-4.1143,-4.2469,-4.2691,-4.3614,-4.4957,-4.5109,-4.6193,-4.7686,-4.7703,-4.8253,-4.9001,-4.9001,-4.9001,-4.9255,-5.0744,-5.1217,-5.1505,-5.3044,-5.3501,-5.3501,-5.3501,-5.2942,-5.2334,-5.2317,-5.1217,-5.0473,-5.1928,-5.1742,-5.1657,-5.3145,-5.4042,-5.4346,-5.367,-5.411,-5.482,-5.5581,-5.6325,-5.7107,-5.8052,-5.8171,-5.8331,-5.8718,-5.8788,-5.9098,-5.9891,-5.9955,-6.0485,-6.1732,-6.1897,-6.2131,-6.2755,-6.2805,-6.2805,-6.2805,-6.2805,-6.2805,-6.2805,-6.2805,-6.2805,-6.2805,-6.2805,-6.3668,-6.5319,-6.5356,-6.6219,-3.1482,0.0,0.0,0.0,0.0,0.0,-3.1706,-3.2452,-3.311,-3.3305,-3.3858,-3.4517,-3.516,-3.5473,-3.5767,-3.6265,-3.8104,-3.9374,-3.9081,-3.888,-3.888,-3.9001,-3.838,-3.8126,-3.8586,-3.8593,-3.859,-3.8645,-3.8701,-3.8518,-3.7921,-3.7978,-3.7921,-3.7648,-3.7648,-3.7706,-3.7748,-3.7748,-3.8051,-3.8645,-3.8645,-3.8898,-3.9272,-3.9272,-3.9388,-3.957,-3.957,-4.0117,-4.1044,-4.2161,-4.2825,-4.3289,-4.4547,-4.5711,-4.6797,-4.7457,-4.8192,-4.8894,-4.8956,-4.8956,-4.9131,-5.068,-5.1217,-5.1505,-5.3044,-5.3501,-5.3501,-5.3501,-5.3348,-5.3044,-5.2452,-5.1606,-5.1014,-5.142,-5.1775,-5.2114,-5.2536,-5.3247,-5.3907,-5.4228,-5.4448,-5.482,-5.5581,-5.6325,-5.6867,-5.7141,-5.7776,-5.826,-5.8331,-5.849,-5.8684,-5.9098,-5.9499,-5.9966,-6.0485,-6.1376,-6.1951,-6.2131,-6.2585,-6.2805,-6.2805,-6.2805,-6.2805,-6.2805,-6.2805,-6.2805,-6.2805,-6.2805,-6.3668,-6.5338,-6.6494,-6.7265,-3.1556,-3.133,-3.1165,-3.1407,0.0,0.0,-3.1407,-3.1824,-3.2183,-3.2452,-3.2826,-3.329,-3.3948,-3.4068,-3.4203,-3.4592,-3.5997,-3.7064,-3.7183,-3.7001,-3.6846,-3.6776,-3.6385,-3.642,-3.7054,-3.7317,-3.7616,-3.7921,-3.7994,-3.762,-3.6751,-3.6232,-3.5973,-3.5913,-3.5913,-3.6113,-3.6557,-3.6291,-3.6785,-3.7937,-3.7875,-3.8241,-3.8898,-3.9148,-3.9272,-3.9272,-3.9272,-3.952,-4.0034,-4.1458,-4.2237,-4.2634,-4.3929,-4.513,-4.6296,-4.6854,-4.7737,-4.8707,-4.8894,-4.8894,-4.9034,-5.0308,-5.0963,-5.1454,-5.2638,-5.323,-5.3501,-5.3501,-5.3501,-5.3399,-5.2926,-5.2232,-5.1674,-5.1674,-5.1758,-5.1944,-5.2232,-5.2672,-5.323,-5.3991,-5.4143,-5.4465,-5.553,-5.6072,-5.6562,-5.7171,-5.7683,-5.8116,-5.8188,-5.8331,-5.849,-5.8631,-5.8995,-5.9349,-5.9873,-6.0572,-6.1109,-6.1454,-6.1806,-6.2148,-6.2412,-6.2412,-6.2534,-6.2823,-6.2805,-6.2805,-6.2805,-6.2805,-6.3503,-6.4861,-6.6788,-6.7504,-3.1735,-3.1135,-3.0761,-3.1317,-3.112,0.0,-3.1347,-3.1541,-3.1735,-3.2302,-3.2407,-3.2602,-3.326,-3.338,-3.341,-3.3484,-3.3499,-3.3924,-3.5018,-3.4696,-3.4376,-3.4327,-3.4309,-3.4539,-3.5199,-3.5853,-3.6411,-3.7026,-3.7014,-3.6451,-3.5231,-3.4091,-3.3499,-3.3499,-3.3499,-3.4046,-3.52,-3.4678,-3.5313,-3.7184,-3.7206,-3.7552,-3.8222,-3.8898,-3.9202,-3.9202,-3.9272,-3.9272,-3.9371,-4.0746,-4.174,-4.2485,-4.3297,-4.4643,-4.6079,-4.6079,-4.712,-4.8483,-4.8707,-4.8786,-4.8887,-4.9801,-5.0541,-5.1251,-5.2046,-5.2807,-5.3399,-5.3484,-5.3501,-5.3501,-5.3501,-5.2976,-5.2418,-5.2317,-5.1877,-5.1623,-5.2181,-5.2367,-5.2638,-5.3365,-5.3501,-5.3923,-5.5243,-5.5615,-5.6156,-5.7459,-5.778,-5.7954,-5.8116,-5.8188,-5.826,-5.8419,-5.849,-5.8806,-5.953,-5.9661,-5.9995,-6.0718,-6.0838,-6.1149,-6.1769,-6.1769,-6.2059,-6.2585,-6.2585,-6.2636,-6.2705,-6.2847,-6.3337,-6.4145,-6.6476,-6.7173,-3.2303,-3.1839,-3.136,-3.1437,-3.1839,0.0,-3.1556,-3.1943,-3.2213,-3.1809,-3.1676,-3.1928,-3.2587,-3.2706,-3.2886,-3.341,-3.3499,-3.3606,-3.3833,-3.3741,-3.3696,-3.3683,-3.3668,-3.3925,-3.4552,-3.4728,-3.4849,-3.4988,-3.456,-3.4167,-3.3848,-3.3621,-3.3499,-3.3499,-3.3499,-3.3606,-3.3848,-3.4254,-3.4927,-3.5809,-3.6304,-3.6946,-3.7605,-3.8238,-3.8479,-3.8535,-3.9077,-3.9272,-3.9392,-4.0233,-4.0994,-4.1756,-4.3098,-4.4643,-4.6079,-4.6079,-4.6995,-4.8292,-4.8644,-4.869,-4.8744,-4.9784,-5.0185,-5.0557,-5.1894,-5.2418,-5.2672,-5.3315,-5.3501,-5.3501,-5.3501,-5.3382,-5.3112,-5.2452,-5.2689,-5.2909,-5.2418,-5.2807,-5.3315,-5.3467,-5.3501,-5.3602,-5.389,-5.4921,-5.5818,-5.6105,-5.7137,-5.7881,-5.7954,-5.7954,-5.8044,-5.826,-5.826,-5.8402,-5.8736,-5.9197,-5.9609,-5.9885,-6.0432,-6.0855,-6.1091,-6.1091,-6.1131,-6.1265,-6.1247,-6.1566,-6.2077,-6.328,-6.3925,-6.4127,-6.5907,-6.6641,-3.2898,-3.2452,-3.2093,-3.2422,-3.2273,0.0,0.0,-3.2018,-3.1928,-3.1541,-3.1482,-3.1571,-3.1958,-3.2018,-3.2138,-3.2467,-3.2512,-3.2512,-3.2512,-3.2796,-3.2886,-3.2557,-3.2512,-3.2751,-3.3408,-3.3438,-3.3575,-3.3909,-3.3352,-3.3006,-3.3006,-3.2691,-3.2512,-3.2512,-3.2512,-3.2677,-3.3006,-3.3006,-3.3668,-3.4926,-3.5278,-3.5935,-3.689,-3.7531,-3.7822,-3.7879,-3.8197,-3.8551,-3.8838,-3.9631,-4.0325,-4.1044,-4.2502,-4.4019,-4.5424,-4.5789,-4.662,-4.768,-4.8366,-4.8564,-4.8614,-4.9299,-4.9796,-5.0304,-5.142,-5.23,-5.2993,-5.3399,-5.3501,-5.3501,-5.3501,-5.3501,-5.3298,-5.2486,-5.2604,-5.279,-5.2384,-5.2621,-5.3027,-5.3416,-5.3805,-5.4042,-5.4042,-5.4972,-5.5835,-5.6207,-5.7188,-5.7881,-5.7881,-5.7881,-5.7971,-5.8044,-5.8044,-5.8116,-5.8331,-5.8632,-5.8875,-5.9097,-5.9398,-5.9756,-6.0149,-6.0229,-6.0476,-6.0897,-6.0897,-6.1091,-6.1397,-6.2148,-6.2838,-6.3503,-6.5558,-6.6292,-3.355,-3.3063,-3.2826,-3.3365,-3.2706,-3.2018,0.0,0.0,0.0,-3.1497,-3.1482,-3.1482,-3.1482,-3.1482,-3.1437,-3.1302,-3.145,-3.1422,-3.136,-3.1898,-3.2138,-3.1541,-3.1482,-3.1676,-3.2273,-3.2332,-3.2542,-3.308,-3.2617,-3.2332,-3.2332,-3.1765,-3.1482,-3.1482,-3.1482,-3.1735,-3.2317,-3.1928,-3.2587,-3.4277,-3.4379,-3.5049,-3.6258,-3.6906,-3.7191,-3.7191,-3.737,-3.7648,-3.8157,-3.891,-3.9609,-4.0331,-4.1898,-4.333,-4.4589,-4.5467,-4.6262,-4.7071,-4.8105,-4.842,-4.8483,-4.8815,-4.9593,-5.0422,-5.1031,-5.2283,-5.3501,-5.3501,-5.3501,-5.3501,-5.3501,-5.3501,-5.3348,-5.2689,-5.2536,-5.2536,-5.2536,-5.2418,-5.2536,-5.3348,-5.3856,-5.4245,-5.4532,-5.5327,-5.6122,-5.6714,-5.7425,-5.7881,-5.7881,-5.7881,-5.7881,-5.7881,-5.7881,-5.7971,-5.8116,-5.8116,-5.826,-5.8419,-5.8419,-5.865,-5.918,-5.938,-5.9756,-6.0476,-6.0494,-6.0555,-6.0736,-6.0736,-6.1322,-6.25,-6.482,-6.5551,-3.4036,-3.3749,-3.3395,-3.3469,-3.338,-3.314,-3.2632,0.0,-3.2243,-3.1601,0.0,-3.1482,-3.1482,0.0,0.0,-3.0717,-3.1135,-3.1315,-3.0717,-3.121,-3.1556,-3.1482,-3.1482,-3.1497,-3.1644,-3.1586,-3.1616,-3.1691,-3.1631,-3.1586,-3.1586,-3.1511,-3.1482,-3.1482,-3.1482,-3.1511,-3.1586,-3.2153,-3.2811,-3.3604,-3.4237,-3.4883,-3.5619,-3.6258,-3.6477,-3.6538,-3.7131,-3.7429,-3.7546,-3.8148,-3.8853,-3.9699,-4.1708,-4.3015,-4.391,-4.5284,-4.6262,-4.7007,-4.7913,-4.8227,-4.8292,-4.8707,-4.9839,-5.1099,-5.1183,-5.2283,-5.3501,-5.3501,-5.3501,-5.3501,-5.3501,-5.3501,-5.3484,-5.3399,-5.3365,-5.3365,-5.3365,-5.2807,-5.2536,-5.3348,-5.2993,-5.2993,-5.4346,-5.575,-5.6714,-5.6799,-5.7425,-5.7881,-5.7881,-5.7881,-5.7881,-5.7881,-5.7881,-5.7881,-5.7954,-5.7954,-5.8044,-5.8188,-5.826,-5.8331,-5.8597,-5.8597,-5.8754,-5.9012,-5.903,-5.9383,-6.0129,-6.0129,-6.045,-6.1185,-6.2887,-6.3639,-3.4718,-3.4371,-3.4017,-3.4562,-3.4006,-3.3391,-3.3634,-3.3365,-3.2901,-3.2243,0.0,0.0,0.0,0.0,0.0,0.0,-3.1345,-3.13,-3.0597,-3.0746,-3.1091,-3.1422,-3.1482,-3.1482,-3.1482,-3.1165,-3.1106,-3.1437,-3.1165,-3.1106,-3.1452,-3.1482,-3.1482,-3.1482,-3.1482,-3.1482,-3.1482,-3.2183,-3.2841,-3.3499,-3.4158,-3.4846,-3.5504,-3.5733,-3.5846,-3.591,-3.6211,-3.6723,-3.7429,-3.7648,-3.8416,-3.9456,-4.075,-4.1972,-4.3164,-4.4622,-4.5351,-4.5781,-4.7148,-4.7628,-4.7691,-4.7989,-4.8945,-4.9932,-4.9932,-5.098,-5.2266,-5.2689,-5.3145,-5.3501,-5.3501,-5.3501,-5.3501,-5.3501,-5.3501,-5.3501,-5.3501,-5.323,-5.3095,-5.3433,-5.3568,-5.3839,-5.4482,-5.5108,-5.5801,-5.6664,-5.7053,-5.7408,-5.7831,-5.7881,-5.7881,-5.7881,-5.7881,-5.7881,-5.7881,-5.7881,-5.7971,-5.8044,-5.8044,-5.8116,-5.8331,-5.8348,-5.8419,-5.8631,-5.8648,-5.8823,-5.9284,-5.9284,-5.9676,-6.0574,-6.2399,-6.3538,-3.5082,-3.4777,-3.4669,-3.5305,-3.4494,-3.3749,-3.4367,-3.3963,-3.3365,-3.2886,-3.2647,0.0,0.0,0.0,-3.1422,-3.1285,0.0,-3.124,-3.0372,-3.0402,-3.0687,-3.1195,-3.1362,-3.1482,-3.1482,-3.0911,-3.0717,-3.121,-3.0791,-3.0717,-3.1225,-3.1377,-3.1482,-3.1482,-3.1482,-3.1556,-3.1735,-3.2273,-3.2931,-3.3769,-3.4247,-3.4846,-3.5504,-3.5504,-3.5504,-3.5504,-3.5504,-3.6022,-3.6906,-3.7071,-3.778,-3.887,-3.9775,-4.0998,-4.2402,-4.386,-4.4522,-4.4903,-4.6537,-4.7311,-4.7571,-4.7524,-4.8343,-4.9255,-4.9069,-5.0185,-5.1623,-5.2147,-5.2892,-5.3501,-5.3501,-5.3501,-5.3501,-5.3501,-5.3501,-5.3501,-5.3501,-5.3331,-5.3179,-5.3179,-5.3602,-5.4025,-5.4245,-5.4617,-5.5327,-5.6613,-5.6799,-5.707,-5.7797,-5.7881,-5.7881,-5.7881,-5.7881,-5.7881,-5.7881,-5.7881,-5.7881,-5.7881,-5.7881,-5.7971,-5.8116,-5.8116,-5.8188,-5.8402,-5.8419,-5.849,-5.8718,-5.8924,-5.9474,-6.0372,-6.1989,-6.3165,-3.4868,-3.5052,-3.5198,-3.5424,-3.4966,-3.4457,-3.4472,-3.3963,-3.3484,-3.3469,-3.2961,-3.2497,-3.2482,-3.1958,-3.1315,-3.0642,-3.1106,0.0,0.0,-3.0118,-3.0507,-3.0537,-3.112,-3.1482,-3.1482,-3.0911,-3.0507,-3.0537,-3.0507,-3.0507,-3.0537,-3.1165,-3.1482,-3.1482,-3.1482,-3.1839,-3.2482,-3.2497,-3.3155,-3.4442,-3.4472,-3.4846,-3.5504,-3.5504,-3.5504,-3.5504,-3.5504,-3.5504,-3.5619,-3.6196,-3.6845,-3.761,-3.8914,-4.0238,-4.1624,-4.3115,-4.4092,-4.4903,-4.6378,-4.7611,-4.8333,-4.763,-4.8618,-4.9915,-4.9221,-5.0541,-5.2266,-5.23,-5.2892,-5.3501,-5.3501,-5.3501,-5.3501,-5.3501,-5.3501,-5.3501,-5.3501,-5.2892,-5.2334,-5.2334,-5.2367,-5.2621,-5.3399,-5.4735,-5.5936,-5.6697,-5.6799,-5.707,-5.7797,-5.7881,-5.7881,-5.7881,-5.7881,-5.7881,-5.7881,-5.7881,-5.7881,-5.7881,-5.7881,-5.7881,-5.7881,-5.7881,-5.8027,-5.8188,-5.8188,-5.8331,-5.849,-5.9242,-5.9976,-6.0694,-6.1146,-6.1791,-3.4868,-3.4883,-3.4964,-3.5228,-3.505,-3.4807,-3.5096,-3.4996,-3.4696,-3.4233,-3.3963,-3.3544,-3.2677,-3.2332,-3.1958,-3.13,-3.1317,-3.1168,0.0,-3.0372,-3.0507,-3.0507,-3.1106,-3.136,-3.0896,-3.0268,-2.9894,-2.9894,-2.9894,-3.0073,-3.0477,-3.1165,-3.1482,-3.1482,-3.1482,-3.1795,-3.2497,-3.2946,-3.3604,-3.4487,-3.4936,-3.528,-3.5504,-3.5504,-3.5504,-3.5504,-3.5504,-3.5733,-3.6085,-3.6321,-3.7011,-3.8026,-3.8497,-3.9797,-4.1541,-4.2535,-4.3363,-4.4191,-4.5665,-4.6895,-4.7646,-4.6926,-4.7272,-4.7868,-4.7614,-4.8409,-4.9712,-5.1166,-5.2131,-5.2841,-5.3365,-5.3501,-5.3501,-5.3501,-5.3501,-5.3501,-5.3501,-5.3298,-5.3095,-5.3095,-5.2655,-5.2553,-5.3365,-5.3484,-5.4211,-5.6461,-5.6799,-5.707,-5.7797,-5.7881,-5.7881,-5.7881,-5.7881,-5.7881,-5.7881,-5.7881,-5.7881,-5.7881,-5.7881,-5.7881,-5.7881,-5.7881,-5.7954,-5.8027,-5.8027,-5.8116,-5.8331,-5.9025,-5.9848,-6.0745,-6.1371,-6.2169,-3.4817,-3.475,-3.4765,-3.5016,-3.5001,-3.5001,-3.5294,-3.5359,-3.5305,-3.4936,-3.4651,-3.4218,-3.3365,-3.2826,-3.2377,-3.1958,-3.1689,-3.13,0.0,-3.0507,-3.0507,-3.0507,-3.1106,-3.1302,-3.0911,-3.0088,-2.9669,-2.9894,-2.9699,-2.9849,-3.0477,-3.1165,-3.1482,-3.1482,-3.1706,-3.2198,-3.2856,-3.3514,-3.4188,-3.4846,-3.5295,-3.5504,-3.5504,-3.5504,-3.5504,-3.5504,-3.5504,-3.5733,-3.6085,-3.6085,-3.6662,-3.7648,-3.7879,-3.9226,-4.1173,-4.1824,-4.2916,-4.4141,-4.5069,-4.6084,-4.6831,-4.6112,-4.627,-4.671,-4.6786,-4.7496,-4.8714,-5.0659,-5.1742,-5.2486,-5.3298,-5.3501,-5.3501,-5.3501,-5.3501,-5.3501,-5.3501,-5.3501,-5.3416,-5.3129,-5.2655,-5.2469,-5.2993,-5.2892,-5.3484,-5.5683,-5.6241,-5.6681,-5.7408,-5.7729,-5.7881,-5.7881,-5.7881,-5.7881,-5.7881,-5.7881,-5.7881,-5.7881,-5.7881,-5.7881,-5.7881,-5.7881,-5.8017,-5.8287,-5.8017,-5.8225,-5.8897,-5.9315,-6.0017,-6.0932,-6.1739,-6.2446]}]]